Date StartTime U_cm/s V_cm/s W_cm/s Ustd_cm/s Vstd_cm/s Wstd_cm/s Uvar_(cm/s)^2 Vvar_(cm/s)^2 Wvar_(cm/s)^2 KE_(m/s)^2 TurbulentKE_(m/s)^2 HorizWindSpeed_cm/s FrictionSpeec_cm/s DragCoef SpeedOfSound_m/s SonicTemperature_C Pressure_mb 
01/01/2015  00:00:00      -85.451       -9.008       -5.003       20.779       13.770       15.330      431.746      189.615      235.023        0.413        0.043       85.925       13.101        0.023      326.533       -8.556      865.457
01/01/2015  00:01:00     -104.314       -0.458      -15.749       19.224       11.131       13.378      369.561      123.896      178.960        0.590        0.034      104.315       12.050        0.013      326.474       -8.650      865.454
01/01/2015  00:02:00      -92.261       -1.699      -11.985       26.655       12.845       14.391      710.514      164.991      207.096        0.487        0.054       92.277       15.485        0.028      326.510       -8.593      865.451
01/01/2015  00:03:00      -77.067       -8.873       -6.111       21.358       16.223       14.082      456.175      263.173      198.310        0.349        0.046       77.576       11.987        0.024      326.504       -8.603      865.461
01/01/2015  00:04:00      -49.042      -17.848       -2.556       24.576       13.578       11.213      604.001      184.361      125.730        0.182        0.046       52.189       11.511        0.049      326.485       -8.633      865.455
01/01/2015  00:05:00      -48.761      -17.478       -7.797        7.346       10.208        8.464       53.966      104.196       71.643        0.149        0.011       51.799        3.820        0.005      326.498       -8.613      865.447
01/01/2015  00:06:00      -38.026      -23.163       -4.475       22.077       12.429       10.878      487.411      154.480      118.320        0.138        0.038       44.525        7.262        0.027      326.694       -8.295      865.422
01/01/2015  00:07:00      -15.259      -23.501       -0.314       17.216       10.798        9.529      296.377      116.592       90.800        0.064        0.025       28.020        6.117        0.048      326.621       -8.414      865.404
01/01/2015  00:08:00      -26.875      -22.800        5.020       14.714       13.722       11.772      216.516      188.281      138.585        0.091        0.027       35.244       10.924        0.096      326.548       -8.530      865.391
01/01/2015  00:09:00      -38.035       -7.292       -6.337        8.713       10.160        7.205       75.915      103.234       51.917        0.089        0.012       38.727        5.206        0.018      326.541       -8.542      865.385
01/01/2015  00:10:00      -34.795       -8.586       -3.081        8.798        9.011       10.467       77.408       81.191      109.563        0.078        0.013       35.838        3.499        0.010      326.522       -8.574      865.394
01/01/2015  00:11:00      -38.421      -10.894       -6.238       10.665       11.803        7.295      113.741      139.302       53.222        0.097        0.015       39.936        3.474        0.008      326.522       -8.573      865.397
01/01/2015  00:12:00      -38.323      -19.970       -4.642       11.050       11.120        6.967      122.107      123.644       48.545        0.109        0.015       43.214        6.610        0.023      326.524       -8.570      865.407
01/01/2015  00:13:00      -46.222      -23.812       -5.430       17.694       12.236        5.923      313.073      149.714       35.079        0.162        0.025       51.995        4.526        0.008      326.519       -8.578      865.421
01/01/2015  00:14:00      -26.981       -4.177       -5.832       11.431        7.478        6.039      130.661       55.919       36.468        0.050        0.011       27.302        3.974        0.021      326.510       -8.592      865.432
01/01/2015  00:15:00      -15.065        4.243       -2.483       10.121        9.993        4.919      102.433       99.862       24.200        0.024        0.011       15.651        6.690        0.183      326.538       -8.547      865.451
01/01/2015  00:16:00       20.648       10.346        2.874       12.977        9.287        6.972      168.409       86.244       48.612        0.042        0.015       23.094        3.087        0.018      326.675       -8.327      865.467
01/01/2015  00:17:00       35.269       23.608        4.627       11.630        9.162        6.701      135.260       83.939       44.905        0.104        0.013       42.441        4.480        0.011      326.796       -8.129      865.472
01/01/2015  00:18:00       35.796       17.048        8.451       15.346        9.279        8.595      235.501       86.108       73.879        0.102        0.020       39.648        4.946        0.016      326.805       -8.114      865.472
01/01/2015  00:19:00       34.442       17.565        9.690       12.636        8.786       11.359      159.674       77.194      129.021        0.098        0.018       38.662        8.252        0.046      326.847       -8.045      865.467
01/01/2015  00:20:00       41.452       21.113       13.857       13.778        9.638       12.605      189.845       92.895      158.885        0.140        0.022       46.520        4.723        0.010      326.861       -8.025      865.474
01/01/2015  00:21:00       36.737       26.628       10.117       16.598       10.471       10.875      275.498      109.644      118.275        0.133        0.025       45.373        7.118        0.025      326.836       -8.065      865.484
01/01/2015  00:22:00        6.934        6.048       11.681       14.423       12.087       10.019      208.022      146.084      100.377        0.034        0.023        9.201        9.779        1.130      326.776       -8.162      865.485
01/01/2015  00:23:00        0.494       -1.659        3.365        7.558        9.532        6.855       57.122       90.868       46.992        0.010        0.010        1.731        4.616        7.110      326.794       -8.132      865.482
01/01/2015  00:24:00      -12.109        2.525        4.162        6.519        5.851        5.133       42.494       34.238       26.349        0.014        0.005       12.370        1.927        0.024      326.744       -8.213      865.483
01/01/2015  00:25:00        7.271       10.293        5.515       12.101        8.137        7.917      146.441       66.219       62.678        0.023        0.014       12.602        7.122        0.319      326.803       -8.118      865.501
01/01/2015  00:26:00       47.358       34.379       11.486       10.068        8.558        8.114      101.365       73.242       65.838        0.190        0.012       58.521        6.051        0.011      326.873       -8.001      865.511
01/01/2015  00:27:00       51.408       34.979       19.352       22.340       13.500       12.880      499.090      182.249      165.904        0.254        0.042       62.179       12.933        0.043      326.833       -8.069      865.499
01/01/2015  00:28:00       28.121       26.485       22.725       14.338       12.224       11.667      205.588      149.417      136.125        0.125        0.025       38.630        4.182        0.012      326.846       -8.048      865.468
01/01/2015  00:29:00        1.799        9.173       17.866        6.612        9.943        7.181       43.719       98.866       51.567        0.030        0.010        9.348        5.510        0.347      326.791       -8.137      865.440
01/01/2015  00:30:00       -3.014        5.158       20.468        7.902        8.632        5.777       62.443       74.515       33.371        0.031        0.009        5.974        4.277        0.512      326.741       -8.219      865.411
01/01/2015  00:31:00       -2.120       11.753       16.538        7.200       10.432        6.813       51.835      108.819       46.423        0.031        0.010       11.943        3.176        0.071      326.786       -8.147      865.390
01/01/2015  00:32:00       25.471        9.257       14.338       14.869       17.183       11.206      221.078      295.247      125.563        0.079        0.032       27.101       11.885        0.192      326.788       -8.142      865.384
01/01/2015  00:33:00        2.242        8.563       15.109       14.972        9.318       13.281      224.157       86.834      176.375        0.040        0.024        8.852       10.783        1.484      326.766       -8.177      865.387
01/01/2015  00:34:00       11.257       12.616       18.136       14.778       13.615       11.203      218.391      185.375      125.498        0.057        0.026       16.908        9.439        0.312      326.746       -8.211      865.388
01/01/2015  00:35:00       44.262       21.123       15.513       15.460       16.344       13.911      239.024      267.140      193.518        0.167        0.035       49.044       12.941        0.070      326.798       -8.128      865.383
01/01/2015  00:36:00       13.307       10.227       16.802       24.460       21.348        9.203      598.312      455.726       84.688        0.085        0.057       16.783        9.292        0.307      326.797       -8.128      865.378
01/01/2015  00:37:00        0.147        7.781       20.892       11.860       12.424       12.837      140.668      154.350      164.789        0.048        0.023        7.782        9.349        1.443      326.756       -8.192      865.361
01/01/2015  00:38:00       18.769      -21.933        7.629       19.243       20.737       18.583      370.296      430.019      345.327        0.102        0.057       28.868       12.919        0.200      326.803       -8.116      865.354
01/01/2015  00:39:00       33.834      -50.284        0.018       28.447       21.874       14.405      809.235      478.452      207.513        0.258        0.075       60.607        9.116        0.023      326.858       -8.028      865.361
01/01/2015  00:40:00      -25.793      -34.136       -5.862       19.082       12.515       11.073      364.106      156.626      122.601        0.125        0.032       42.785        5.264        0.015      326.728       -8.240      865.373
01/01/2015  00:41:00      -17.103      -17.121       -1.827       21.737       15.332       15.215      472.493      235.078      231.511        0.076        0.047       24.200       12.955        0.287      326.754       -8.197      865.391
01/01/2015  00:42:00      -30.908       -9.399       -3.849        7.135        6.988        5.548       50.915       48.828       30.778        0.059        0.007       32.305        2.541        0.006      326.657       -8.355      865.398
01/01/2015  00:43:00      -29.854       10.960        8.367       10.502        9.314        7.363      110.297       86.747       54.210        0.067        0.013       31.803        2.649        0.007      326.773       -8.166      865.405
01/01/2015  00:44:00      -13.910        9.885        0.600       10.476        7.940        7.014      109.749       63.049       49.203        0.026        0.011       17.065        4.639        0.074      326.686       -8.307      865.425
01/01/2015  00:45:00      -20.868       11.146       -6.319        8.552        7.926        6.986       73.145       62.828       48.808        0.039        0.009       23.658        4.542        0.037      326.721       -8.252      865.434
01/01/2015  00:46:00      -11.140       25.613       -1.404       12.956       10.363        7.415      167.848      107.394       54.983        0.056        0.017       27.930        2.622        0.009      326.822       -8.086      865.430
01/01/2015  00:47:00       -2.314       15.240        2.922       14.725       10.083        7.169      216.838      101.671       51.396        0.031        0.018       15.415        6.865        0.198      326.790       -8.138      865.412
01/01/2015  00:48:00        2.277       10.933       11.708       17.989       15.347        9.260      323.590      235.527       85.739        0.045        0.032       11.168        8.449        0.572      326.746       -8.211      865.401
01/01/2015  00:49:00       -1.962        1.488       10.389       12.247       11.707       11.747      149.993      137.054      137.992        0.027        0.021        2.462        8.467       11.825      326.775       -8.162      865.413
01/01/2015  00:50:00       10.219        7.679        9.175       24.173       18.609        9.467      584.357      346.301       89.628        0.063        0.051       12.783        9.924        0.603      326.792       -8.135      865.430
01/01/2015  00:51:00       15.583        7.025        4.212       16.202       12.469        7.550      262.513      155.477       57.000        0.039        0.024       17.093        5.412        0.100      326.861       -8.023      865.425
01/01/2015  00:52:00        8.788        4.259        8.853       10.966       10.239        6.463      120.249      104.832       41.770        0.022        0.013        9.765        2.343        0.058      326.825       -8.082      865.425
01/01/2015  00:53:00        6.916        3.129       10.788       13.611       11.407        9.233      185.263      130.128       85.250        0.029        0.020        7.591        8.511        1.257      326.831       -8.072      865.429
01/01/2015  00:54:00       20.739        8.212        6.798       16.724       10.818        8.493      279.688      117.039       72.138        0.051        0.023       22.306        2.072        0.009      326.807       -8.111      865.445
01/01/2015  00:55:00       56.483       17.738        9.059       16.213       13.748       10.937      262.859      189.007      119.616        0.208        0.029       59.203        9.819        0.028      326.865       -8.018      865.462
01/01/2015  00:56:00       39.607       14.417       12.395       24.945       14.850       10.928      622.259      220.511      119.425        0.145        0.048       42.149        9.719        0.053      326.859       -8.026      865.486
01/01/2015  00:57:00       28.375        5.597       10.810       22.259       22.188       10.509      495.472      492.289      110.439        0.103        0.055       28.922        8.339        0.083      326.863       -8.021      865.490
01/01/2015  00:58:00        0.295        1.991       14.690        6.491        6.159        4.784       42.138       37.935       22.890        0.016        0.005        2.013        3.470        2.972      326.810       -8.106      865.478
01/01/2015  00:59:00        4.549       -7.493        9.612        9.153       10.994        6.282       83.786      120.879       39.470        0.021        0.012        8.766        6.064        0.479      326.867       -8.013      865.450
01/01/2015  01:00:00       -4.736        4.392       -2.046       22.112        7.759        7.622      488.958       60.201       58.092        0.033        0.030        6.459        8.786        1.850      326.759       -8.188      865.422
01/01/2015  01:01:00      -25.091      -11.217      -10.151       13.080        7.527        5.073      171.076       56.649       25.740        0.056        0.013       27.484        3.985        0.021      326.574       -8.490      865.398
01/01/2015  01:02:00      -59.871      -11.703       -6.403       13.062       13.757        8.755      170.628      189.253       76.643        0.210        0.022       61.004        3.381        0.003      326.430       -8.724      865.382
01/01/2015  01:03:00      -64.807      -10.748       -6.284       16.016       10.427        9.340      256.512      108.713       87.239        0.240        0.023       65.692        7.540        0.013      326.443       -8.701      865.372
01/01/2015  01:04:00      -56.259       -6.197       -9.076       11.433        9.496        6.776      130.706       90.178       45.908        0.178        0.013       56.599        5.954        0.011      326.498       -8.612      865.359
01/01/2015  01:05:00      -39.752       -7.444       -4.614        7.569       11.083        9.300       57.287      122.828       86.491        0.096        0.013       40.443        7.390        0.033      326.476       -8.647      865.351
01/01/2015  01:06:00      -30.636       -3.601       -8.562        6.876        5.702        7.484       47.273       32.509       56.003        0.058        0.007       30.847        2.942        0.009      326.544       -8.537      865.344
01/01/2015  01:07:00      -19.139       -8.752       -4.145       12.819        7.954        5.034      164.326       63.263       25.337        0.036        0.013       21.045        6.453        0.094      326.514       -8.586      865.342
01/01/2015  01:08:00      -60.747      -13.119       -7.250       14.019       10.299        8.062      196.520      106.068       64.999        0.214        0.018       62.148        4.797        0.006      326.505       -8.602      865.340
01/01/2015  01:09:00      -71.559      -33.585       -5.999       15.355       14.952        8.633      235.787      223.569       74.524        0.341        0.027       79.048        4.781        0.004      326.397       -8.776      865.346
01/01/2015  01:10:00      -90.043      -46.750       -7.883       23.910       20.265       14.855      571.680      410.690      220.660        0.578        0.060      101.456       10.980        0.012      326.409       -8.757      865.356
01/01/2015  01:11:00      -92.368      -57.141       -7.297       32.772       24.922       17.677     1073.974      621.084      312.472        0.693        0.100      108.614       14.091        0.017      326.387       -8.791      865.368
01/01/2015  01:12:00     -108.478      -47.386      -10.225       30.318       22.348       17.537      919.152      499.421      307.553        0.792        0.086      118.376       16.120        0.019      326.370       -8.820      865.381
01/01/2015  01:13:00      -75.526      -32.991       -2.351       35.320       24.493       16.909     1247.536      599.895      285.924        0.447        0.107       82.417       16.028        0.038      326.363       -8.831      865.400
01/01/2015  01:14:00      -84.216      -49.378       -6.796       17.219       22.143       10.462      296.489      490.306      109.462        0.524        0.045       97.624        7.990        0.007      326.364       -8.829      865.418
01/01/2015  01:15:00      -74.373      -13.749       -8.730       18.244       17.989       10.508      332.856      323.602      110.414        0.328        0.038       75.634        6.676        0.008      326.250       -9.014      865.415
01/01/2015  01:16:00      -85.459      -17.247       -9.119       15.851       16.086        9.639      251.245      258.753       92.915        0.414        0.030       87.182        7.133        0.007      326.241       -9.029      865.401
01/01/2015  01:17:00      -76.915      -16.910       -3.726       19.619       19.411       14.876      384.912      376.789      221.302        0.360        0.049       78.752        7.263        0.009      326.201       -9.093      865.367
01/01/2015  01:18:00      -81.940      -17.083       -1.046       30.401       17.201       13.343      924.232      295.887      178.039        0.420        0.070       83.702       14.379        0.030      326.185       -9.119      865.331
01/01/2015  01:19:00      -75.125      -23.645        0.025       27.528       16.213       12.104      757.785      262.873      146.495        0.368        0.058       78.758        9.676        0.015      326.221       -9.061      865.302
01/01/2015  01:20:00      -52.874      -13.824        3.165       17.112       22.106       10.704      292.805      488.657      114.583        0.195        0.045       54.652        6.742        0.015      326.240       -9.030      865.293
01/01/2015  01:21:00      -71.750       -2.291       -8.249       14.063       14.247       10.421      197.769      202.978      108.599        0.287        0.025       71.786        8.562        0.014      326.274       -8.974      865.301
01/01/2015  01:22:00      -76.994      -11.036       -7.302       17.317       12.407       11.807      299.863      153.932      139.401        0.335        0.030       77.781       10.384        0.018      326.244       -9.022      865.317
01/01/2015  01:23:00      -87.667      -13.100       -9.201       18.046       14.407        8.619      325.655      207.551       74.291        0.427        0.030       88.640        2.795        0.001      326.241       -9.028      865.312
01/01/2015  01:24:00      -91.154       -4.835      -12.038       14.745       10.393       11.130      217.416      108.012      123.877        0.446        0.022       91.283        8.649        0.009      326.242       -9.027      865.302
01/01/2015  01:25:00      -58.068      -10.977       -8.086       21.256       18.658       11.070      451.836      348.112      122.540        0.224        0.046       59.096       10.969        0.034      326.205       -9.086      865.295
01/01/2015  01:26:00      -46.689      -18.122       -6.627       11.597       13.368        9.109      134.487      178.704       82.970        0.147        0.020       50.083        4.518        0.008      326.204       -9.087      865.302
01/01/2015  01:27:00      -41.885      -18.715       -5.666        9.667       13.943       10.333       93.458      194.409      106.761        0.127        0.020       45.876        6.632        0.021      326.214       -9.072      865.298
01/01/2015  01:28:00      -44.741      -16.498       -7.924       14.252       12.910       10.662      203.121      166.674      113.684        0.141        0.024       47.686        5.372        0.013      326.274       -8.974      865.298
01/01/2015  01:29:00      -67.605       -0.264      -10.499       16.243       13.766        9.183      263.835      189.511       84.335        0.261        0.027       67.606        4.817        0.005      326.344       -8.863      865.298
01/01/2015  01:30:00      -61.208      -15.192       -8.535       20.072       16.195       11.845      402.870      262.264      140.301        0.243        0.040       63.065        5.202        0.007      326.185       -9.119      865.292
01/01/2015  01:31:00      -97.370      -34.265      -12.569       22.976       17.546       12.612      527.880      307.871      159.070        0.590        0.050      103.223        9.324        0.008      326.027       -9.374      865.300
01/01/2015  01:32:00      -83.689      -31.539       -9.360       15.522       22.802       10.545      240.926      519.933      111.192        0.448        0.044       89.435        7.630        0.007      325.976       -9.458      865.331
01/01/2015  01:33:00      -71.746      -23.868       -8.545       20.902       18.201       12.718      436.908      331.289      161.750        0.336        0.046       75.612       11.236        0.022      326.017       -9.391      865.364
01/01/2015  01:34:00      -40.654      -13.660       -7.546       19.914       16.199       12.725      396.572      262.400      161.922        0.136        0.041       42.888        9.730        0.051      325.991       -9.432      865.388
01/01/2015  01:35:00      -22.541       -1.453       -0.405       10.662       11.878        8.236      113.674      141.078       67.834        0.042        0.016       22.588        5.980        0.070      326.021       -9.385      865.402
01/01/2015  01:36:00      -29.716       -5.561       -6.526        7.325        6.466        9.299       53.660       41.807       86.469        0.057        0.009       30.231        3.821        0.016      326.153       -9.172      865.405
01/01/2015  01:37:00       -5.967       -3.668       -3.711        9.179        6.838        5.749       84.246       46.761       33.052        0.011        0.008        7.004        2.637        0.142      326.268       -8.984      865.403
01/01/2015  01:38:00      -11.436       -1.262       -4.960       12.733        7.909        6.993      162.126       62.553       48.899        0.022        0.014       11.505        5.123        0.198      326.188       -9.115      865.426
01/01/2015  01:39:00      -31.376        6.511       -7.721        8.512        8.758        6.390       72.458       76.704       40.836        0.064        0.009       32.044        3.904        0.015      326.124       -9.217      865.462
01/01/2015  01:40:00      -33.370      -12.293       -7.312       15.487       11.740        7.559      239.847      137.836       57.132        0.088        0.022       35.562        3.104        0.008      326.243       -9.026      865.472
01/01/2015  01:41:00      -47.914      -22.206       -3.263       20.697       13.958       11.072      428.347      194.834      122.589        0.177        0.037       52.810       10.356        0.038      326.087       -9.277      865.467
01/01/2015  01:42:00      -54.790      -10.768      -12.315       11.055        7.409        6.316      122.223       54.888       39.896        0.174        0.011       55.838        2.968        0.003      326.011       -9.401      865.469
01/01/2015  01:43:00      -70.751       -6.968      -11.333       17.302       16.316       11.574      299.351      266.197      133.959        0.294        0.035       71.093        2.997        0.002      325.978       -9.455      865.482
01/01/2015  01:44:00      -71.494      -10.131       -5.732       18.228       14.664       11.496      332.268      215.038      132.157        0.296        0.034       72.208       10.084        0.020      325.961       -9.482      865.488
01/01/2015  01:45:00      -59.545      -15.739        0.731       17.817       13.392       12.112      317.434      179.344      146.698        0.222        0.032       61.589        7.073        0.013      325.958       -9.487      865.485
01/01/2015  01:46:00      -56.739        2.202      -10.331       14.061       10.547        8.087      197.699      111.234       65.399        0.185        0.019       56.782        3.036        0.003      325.981       -9.449      865.490
01/01/2015  01:47:00      -47.447      -11.375       -9.990        8.387        9.513        7.354       70.337       90.497       54.078        0.135        0.011       48.791        3.355        0.005      326.032       -9.367      865.504
01/01/2015  01:48:00      -47.752      -14.475       -4.649       11.057       12.578       10.922      122.263      158.198      119.299        0.146        0.020       49.898        4.951        0.010      326.112       -9.238      865.509
01/01/2015  01:49:00      -78.321       -8.739      -14.598       12.677       11.128       10.729      160.703      123.825      115.118        0.341        0.020       78.807        7.050        0.008      325.999       -9.419      865.507
01/01/2015  01:50:00      -66.191      -19.526       -7.010       15.493       17.173       12.635      240.026      294.910      159.649        0.275        0.035       69.011       10.400        0.023      325.981       -9.448      865.511
01/01/2015  01:51:00      -89.606       -2.967      -10.676       26.156       14.948       11.041      684.132      223.451      121.903        0.459        0.051       89.656       11.258        0.016      325.924       -9.542      865.526
01/01/2015  01:52:00      -90.568        3.872      -13.841       20.689       15.472       11.041      428.025      239.391      121.895        0.460        0.039       90.651       10.201        0.013      325.915       -9.556      865.539
01/01/2015  01:53:00      -56.931        7.631       -6.738       25.069       24.629       15.074      628.444      606.571      227.220        0.240        0.073       57.440       14.420        0.063      325.933       -9.527      865.547
01/01/2015  01:54:00      -19.380       -3.719        0.336       18.397       15.347       10.597      338.435      235.534      112.291        0.054        0.034       19.733        8.742        0.196      325.956       -9.490      865.549
01/01/2015  01:55:00      -44.131       -4.679       -8.974       14.386       13.386        8.474      206.962      179.190       71.804        0.125        0.023       44.378        6.708        0.023      326.017       -9.393      865.550
01/01/2015  01:56:00      -63.452       -6.766       -8.918       14.186       15.124        9.384      201.240      228.722       88.051        0.233        0.026       63.811        6.374        0.010      325.962       -9.480      865.559
01/01/2015  01:57:00      -65.489      -14.416      -11.474       15.408       12.691       11.107      237.393      161.068      123.357        0.257        0.026       67.057        8.812        0.017      325.992       -9.432      865.566
01/01/2015  01:58:00      -54.755      -19.485      -10.903       14.307       12.390        9.986      204.682      153.503       99.719        0.198        0.023       58.118        5.714        0.010      326.049       -9.339      865.562
01/01/2015  01:59:00      -47.448      -10.843       -5.085       17.462       12.670        9.844      304.929      160.531       96.904        0.148        0.028       48.672        7.914        0.026      326.034       -9.364      865.559
01/01/2015  02:00:00      -47.888      -17.803       -9.561       19.929       13.931        9.421      397.176      194.077       88.757        0.169        0.034       51.090        7.448        0.021      325.932       -9.529      865.581
01/01/2015  02:01:00      -42.671      -20.015       -5.161       13.533       11.553        6.598      183.145      133.471       43.534        0.130        0.018       47.132        4.228        0.008      325.883       -9.606      865.601
01/01/2015  02:02:00      -34.285      -19.165      -10.287       12.941       13.413        8.733      167.458      179.918       76.266        0.104        0.021       39.278        6.333        0.026      325.928       -9.535      865.623
01/01/2015  02:03:00      -40.898       -1.764       -5.628       10.282        7.148        7.588      105.728       51.088       57.573        0.096        0.011       40.936        2.486        0.004      326.001       -9.417      865.628
01/01/2015  02:04:00      -20.600       -7.116        9.081       12.555        8.239        7.291      157.623       67.876       53.162        0.042        0.014       21.794        6.551        0.090      325.968       -9.472      865.625
01/01/2015  02:05:00      -20.409      -14.258        4.624       14.686       10.088        8.815      215.675      101.767       77.712        0.052        0.020       24.896        6.907        0.077      325.957       -9.489      865.628
01/01/2015  02:06:00      -41.759       -3.805       -3.784       25.466       14.787       11.595      648.532      218.661      134.441        0.139        0.050       41.933       15.319        0.133      325.871       -9.626      865.607
01/01/2015  02:07:00      -66.652       -1.372       -8.951       13.633        9.022       10.200      185.863       81.396      104.048        0.245        0.019       66.666        6.498        0.010      325.906       -9.572      865.587
01/01/2015  02:08:00      -44.356       -7.708       -7.416       15.900       13.068       10.721      252.794      170.773      114.950        0.131        0.027       45.020        7.735        0.030      325.937       -9.520      865.569
01/01/2015  02:09:00      -67.041      -13.213      -10.733       11.117       12.328        7.257      123.580      151.974       52.659        0.256        0.016       68.330        6.557        0.009      325.907       -9.568      865.571
01/01/2015  02:10:00      -82.867      -14.418      -13.137       22.549       19.452       11.140      508.437      378.379      124.098        0.413        0.051       84.111       12.610        0.022      325.892       -9.595      865.571
01/01/2015  02:11:00     -104.509      -26.900      -13.521       29.684       13.708       16.243      881.142      187.909      263.826        0.658        0.067      107.915       18.779        0.030      325.812       -9.722      865.570
01/01/2015  02:12:00     -105.017      -20.824       -9.778       19.330       17.054       12.851      373.631      290.831      165.151        0.619        0.041      107.062       10.217        0.009      325.860       -9.645      865.557
01/01/2015  02:13:00     -105.866      -17.984      -13.469       23.994       18.024       13.253      575.692      324.864      175.648        0.639        0.054      107.382        9.647        0.008      325.803       -9.737      865.545
01/01/2015  02:14:00     -118.206       -6.711       -8.468       26.394       17.605       17.850      696.667      309.941      318.617        0.771        0.066      118.396       13.706        0.013      325.857       -9.652      865.543
01/01/2015  02:15:00     -119.374      -10.933      -10.604       17.182       19.574       15.736      295.223      383.131      247.619        0.770        0.046      119.874       12.827        0.011      325.899       -9.583      865.554
01/01/2015  02:16:00      -96.467       -2.835       -5.339       29.875       19.255       16.001      892.536      370.753      256.022        0.543        0.076       96.509       14.868        0.024      325.890       -9.597      865.578
01/01/2015  02:17:00     -107.611       -7.637       -8.459       22.720       12.786       14.444      516.203      163.476      208.642        0.630        0.044      107.882       13.994        0.017      325.883       -9.609      865.603
01/01/2015  02:18:00     -114.506      -13.723       -9.866       17.334       16.798       12.343      300.453      282.177      152.348        0.707        0.037      115.326        9.329        0.007      325.846       -9.669      865.620
01/01/2015  02:19:00     -105.537      -17.028       -5.687       24.215       13.202       13.063      586.354      174.302      170.634        0.620        0.047      106.902       12.231        0.013      325.819       -9.712      865.626
01/01/2015  02:20:00     -106.094      -32.250       -4.569       24.961       17.198       11.028      623.059      295.779      121.607        0.668        0.052      110.888        7.225        0.004      325.857       -9.651      865.627
01/01/2015  02:21:00     -113.936      -54.555       -8.131       28.855       18.483       14.420      832.604      341.611      207.944        0.870        0.069      126.324       15.042        0.014      325.835       -9.688      865.639
01/01/2015  02:22:00     -108.856      -48.563       -6.418       28.681       16.981       14.287      822.579      288.338      204.131        0.778        0.066      119.198        3.189        0.001      325.878       -9.616      865.654
01/01/2015  02:23:00      -96.887      -45.393       -9.327       14.377       10.303        7.928      206.696      106.159       62.847        0.596        0.019      106.993        2.951        0.001      325.817       -9.714      865.644
01/01/2015  02:24:00      -86.735      -35.056       -1.857       20.209       21.806       11.577      408.418      475.519      134.025        0.489        0.051       93.551        9.905        0.011      325.833       -9.690      865.626
01/01/2015  02:25:00     -105.241      -30.769       -3.106       17.268       18.803       13.695      298.179      353.554      187.541        0.644        0.042      109.647       10.155        0.009      325.792       -9.758      865.606
01/01/2015  02:26:00      -90.783      -32.968       -7.130       21.488       19.624       10.777      461.752      385.108      116.144        0.517        0.048       96.584       10.178        0.011      325.878       -9.618      865.582
01/01/2015  02:27:00     -100.307      -15.892       -9.595       24.322       18.185       13.851      591.544      330.681      191.853        0.576        0.056      101.558        9.734        0.009      325.863       -9.642      865.548
01/01/2015  02:28:00      -97.918      -16.013       -3.036       21.378       22.930       13.794      457.005      525.769      190.279        0.551        0.059       99.218       12.899        0.017      325.869       -9.630      865.525
01/01/2015  02:29:00      -91.752      -21.188       -4.002       29.875       20.838       17.368      892.540      434.214      301.648        0.526        0.081       94.166       17.780        0.036      325.840       -9.677      865.501
01/01/2015  02:30:00     -101.576      -43.871       -5.249       29.206       21.844       15.699      853.009      477.166      246.462        0.692        0.079      110.645       14.962        0.018      325.812       -9.723      865.484
01/01/2015  02:31:00      -66.774      -38.481        1.335       32.549       18.315       14.205     1059.467      335.440      201.785        0.377        0.080       77.069       16.639        0.047      325.868       -9.633      865.464
01/01/2015  02:32:00      -40.358      -29.012        6.403       38.244       22.638       15.096     1462.640      512.471      227.878        0.236        0.110       49.704       20.524        0.171      325.878       -9.616      865.442
01/01/2015  02:33:00      -12.176      -12.862        8.084       27.369       10.173       13.988      749.087      103.494      195.656        0.071        0.052       17.711       14.476        0.668      325.884       -9.607      865.424
01/01/2015  02:34:00      -47.167      -31.638       -4.668       28.730       21.852       16.102      825.400      477.531      259.261        0.240        0.078       56.795       12.257        0.047      325.838       -9.681      865.418
01/01/2015  02:35:00      -19.206      -23.265        8.364       27.233       19.469       16.575      741.644      379.031      274.725        0.119        0.070       30.168       13.297        0.194      325.837       -9.682      865.418
01/01/2015  02:36:00      -28.922      -25.025        5.391       27.896       18.865       12.363      778.206      355.901      152.835        0.139        0.064       38.246       12.923        0.114      325.853       -9.657      865.420
01/01/2015  02:37:00      -72.856      -32.767       -6.072       21.541       19.190       11.961      464.012      368.239      143.061        0.370        0.049       79.886        3.468        0.002      325.828       -9.698      865.428
01/01/2015  02:38:00      -59.671      -34.997      -10.219       20.993       12.207       11.281      440.700      149.015      127.263        0.280        0.036       69.177        1.019        0.000      325.896       -9.588      865.435
01/01/2015  02:39:00      -61.884      -26.126       -3.630       16.865       17.965       12.924      284.429      322.734      167.035        0.265        0.039       67.173        7.445        0.012      325.888       -9.600      865.417
01/01/2015  02:40:00      -91.301      -24.228       -5.868       19.833       21.151       14.047      393.362      447.352      197.318        0.500        0.052       94.460        9.541        0.010      325.873       -9.624      865.396
01/01/2015  02:41:00     -113.167      -10.020      -16.181       18.221       12.977       14.540      331.994      168.391      211.417        0.694        0.036      113.610       10.891        0.009      325.745       -9.831      865.371
01/01/2015  02:42:00     -108.718       -5.111      -11.800       29.460       18.947       17.505      867.920      358.993      306.424        0.676        0.077      108.838       16.506        0.023      325.691       -9.918      865.356
01/01/2015  02:43:00      -83.218      -16.973       -1.533       27.683       20.431       19.267      766.337      417.411      371.229        0.439        0.078       84.932       15.630        0.034      325.728       -9.859      865.353
01/01/2015  02:44:00     -102.631      -54.979       -6.245       25.311       23.872       16.733      640.659      569.875      280.003        0.754        0.075      116.430       14.219        0.015      325.712       -9.884      865.352
01/01/2015  02:45:00     -110.464      -55.853       -6.092       22.663       23.073       18.140      513.598      532.364      329.071        0.837        0.069      123.782       13.626        0.012      325.636      -10.008      865.345
01/01/2015  02:46:00     -102.838      -48.277       -8.398       27.977       23.993       16.844      782.699      575.646      283.724        0.731        0.082      113.606       16.608        0.021      325.628      -10.020      865.352
01/01/2015  02:47:00      -86.050      -26.709       -5.628       24.829       27.701       12.673      616.480      767.331      160.613        0.485        0.077       90.100       12.518        0.019      325.680       -9.936      865.354
01/01/2015  02:48:00      -85.590      -11.123       -8.759       17.954       15.408       18.795      322.342      237.420      353.254        0.422        0.046       86.310       12.667        0.022      325.633      -10.013      865.357
01/01/2015  02:49:00      -90.594       -2.970       -5.250       21.082       16.449       13.593      444.456      270.561      184.761        0.457        0.045       90.643        4.475        0.002      325.632      -10.015      865.358
01/01/2015  02:50:00      -82.151      -12.300       -8.896       14.247       15.252       14.518      202.969      232.625      210.762        0.381        0.032       83.066        7.898        0.009      325.657       -9.974      865.351
01/01/2015  02:51:00      -85.484      -10.201       -9.905       14.674       18.090       14.245      215.314      327.248      202.926        0.413        0.037       86.090        6.171        0.005      325.617      -10.039      865.337
01/01/2015  02:52:00      -47.684      -21.681       -4.917       20.051       19.454       16.110      402.043      378.453      259.540        0.190        0.052       52.382       11.372        0.047      325.666       -9.960      865.329
01/01/2015  02:53:00      -47.465       -5.027       -2.664       23.356       16.949       14.230      545.482      287.282      202.479        0.166        0.052       47.730        8.093        0.029      325.630      -10.017      865.327
01/01/2015  02:54:00      -64.695      -10.346       -5.835       14.353       13.150       12.294      206.020      172.932      151.143        0.243        0.027       65.517        9.120        0.019      325.672       -9.948      865.330
01/01/2015  02:55:00      -69.877      -17.441      -10.163       13.806       17.775       11.049      190.610      315.934      122.076        0.296        0.031       72.021        7.569        0.011      325.649       -9.986      865.334
01/01/2015  02:56:00      -75.855       -9.228       -9.945       16.244       13.084       14.534      263.862      171.182      211.230        0.329        0.032       76.414       11.071        0.021      325.648       -9.988      865.318
01/01/2015  02:57:00      -91.812       -8.608      -13.769       14.990        9.537       10.840      224.709       90.958      117.515        0.456        0.022       92.214        6.320        0.005      325.627      -10.021      865.307
01/01/2015  02:58:00      -69.774       -8.947       -6.402       21.161       15.208       11.028      447.805      231.288      121.611        0.289        0.040       70.345        6.467        0.008      325.595      -10.073      865.294
01/01/2015  02:59:00      -74.570       -2.439       -7.811       12.981       10.954        9.260      168.518      119.992       85.742        0.300        0.019       74.609        5.297        0.005      325.607      -10.055      865.290
01/01/2015  03:00:00      -75.682       -5.862      -15.540        8.557       11.899        9.478       73.219      141.588       89.836        0.315        0.015       75.908        5.571        0.005      325.546      -10.153      865.291
01/01/2015  03:01:00      -75.326       -7.920       -9.353       10.021        9.247        9.569      100.426       85.514       91.574        0.305        0.014       75.741        4.911        0.004      325.621      -10.032      865.278
01/01/2015  03:02:00      -72.075       -2.468       -6.905       13.003       10.821       10.219      169.073      117.084      104.433        0.282        0.020       72.117        5.236        0.005      325.574      -10.107      865.264
01/01/2015  03:03:00      -73.956        5.565       -6.262       12.066       10.578        8.268      145.593      111.886       68.366        0.293        0.016       74.165        4.489        0.004      325.514      -10.205      865.255
01/01/2015  03:04:00      -61.974        1.841       -8.039        9.722        8.461        7.378       94.515       71.586       54.442        0.206        0.011       62.001        2.865        0.002      325.529      -10.178      865.250
01/01/2015  03:05:00      -46.326        2.433       -8.527       12.408       10.697        7.770      153.954      114.420       60.376        0.128        0.016       46.390        7.590        0.027      325.625      -10.026      865.240
01/01/2015  03:06:00      -49.687       -1.265       -2.829       13.692        6.808        7.964      187.484       46.343       63.427        0.139        0.015       49.703        3.371        0.005      325.670       -9.952      865.231
01/01/2015  03:07:00      -55.456       -0.202       -3.687        8.456        9.905        7.727       71.508       98.108       59.707        0.166        0.011       55.456        3.251        0.003      325.685       -9.926      865.223
01/01/2015  03:08:00      -36.641        8.621       -2.489       11.973       12.574        8.843      143.356      158.111       78.199        0.090        0.019       37.641        5.665        0.023      325.732       -9.852      865.205
01/01/2015  03:09:00      -42.572       17.318       -9.716        7.578        7.214        5.628       57.424       52.043       31.671        0.117        0.007       45.960        1.468        0.001      325.673       -9.947      865.192
01/01/2015  03:10:00      -43.712        8.590       -2.736        9.650        7.672        7.835       93.119       58.852       61.381        0.110        0.011       44.548        6.499        0.021      325.693       -9.917      865.189
01/01/2015  03:11:00      -24.297        0.789       -2.415       11.002        9.426        5.954      121.038       88.856       35.455        0.042        0.012       24.310        5.683        0.055      325.801       -9.741      865.193
01/01/2015  03:12:00       -5.066       -1.719       -2.613        5.307        4.532        4.048       28.164       20.535       16.384        0.005        0.003        5.350        3.309        0.383      325.796       -9.748      865.190
01/01/2015  03:13:00       11.702       25.226       -2.411       11.833        9.146        9.385      140.009       83.651       88.074        0.055        0.016       27.808        8.977        0.104      325.969       -9.469      865.174
01/01/2015  03:14:00       -1.575       20.679       -1.781       12.933       12.426        8.136      167.264      154.394       66.200        0.041        0.019       20.739        6.623        0.102      325.918       -9.550      865.133
01/01/2015  03:15:00       -0.307       16.412        1.166       13.704       14.204       11.078      187.794      201.763      122.730        0.039        0.026       16.415       11.469        0.488      325.939       -9.517      865.103
01/01/2015  03:16:00        2.482       21.536       -0.388       13.197       19.506       11.193      174.152      380.497      125.274        0.057        0.034       21.678       12.609        0.338      325.878       -9.617      865.099
01/01/2015  03:17:00       12.183       52.635       -7.109       16.335       14.135        9.486      266.831      199.802       89.988        0.176        0.028       54.026       10.156        0.035      325.935       -9.523      865.117
01/01/2015  03:18:00       21.385       58.227       -3.676       15.917       15.458       12.160      253.340      238.943      147.874        0.225        0.032       62.030       10.035        0.026      325.858       -9.648      865.125
01/01/2015  03:19:00       25.880       47.446        1.150       24.878       21.080       20.082      618.894      444.380      403.284        0.219        0.073       54.045       17.027        0.099      325.854       -9.654      865.115
01/01/2015  03:20:00       30.176       42.861        1.499       16.688       23.228       14.063      278.487      539.544      197.758        0.188        0.051       52.418       10.486        0.040      325.808       -9.730      865.104
01/01/2015  03:21:00       47.258       36.267        4.474       19.492       23.701       20.997      379.941      561.714      440.866        0.248        0.069       59.570       16.373        0.076      325.835       -9.685      865.097
01/01/2015  03:22:00       43.702       37.218        1.886       21.976       21.365       18.532      482.942      456.451      343.438        0.229        0.064       57.402       14.643        0.065      325.811       -9.723      865.088
01/01/2015  03:23:00       59.891       21.594       12.530       25.755       19.684       16.144      663.303      387.479      260.616        0.276        0.066       63.665       12.474        0.038      325.841       -9.675      865.078
01/01/2015  03:24:00       68.324       35.873       12.711       30.103       30.233       21.706      906.213      914.060      471.150        0.420        0.115       77.169       11.522        0.022      325.884       -9.605      865.068
01/01/2015  03:25:00       91.828       44.936        9.260       20.673       15.459       17.987      427.361      238.977      323.536        0.576        0.049      102.233       15.026        0.022      325.859       -9.648      865.058
01/01/2015  03:26:00       64.996       41.881       11.875       21.832       17.116       15.198      476.646      292.967      230.986        0.356        0.050       77.320       10.929        0.020      325.855       -9.653      865.056
01/01/2015  03:27:00       76.999       42.042        1.771       14.062       12.283       10.688      197.738      150.874      114.232        0.408        0.023       87.729        3.143        0.001      325.839       -9.678      865.051
01/01/2015  03:28:00       68.532       40.283        1.780       13.759        9.851       10.656      189.313       97.046      113.554        0.336        0.020       79.495        7.734        0.009      325.876       -9.618      865.041
01/01/2015  03:29:00       59.219       38.842        3.109       22.456       15.008        9.843      504.263      225.249       96.893        0.293        0.041       70.821       11.272        0.025      325.877       -9.616      865.030
01/01/2015  03:30:00       77.641       44.979        5.785       12.918       17.551       12.188      166.885      308.051      148.541        0.435        0.031       89.728        9.515        0.011      325.940       -9.516      865.030
01/01/2015  03:31:00       61.147       34.724        9.967       20.787       12.521       14.438      432.103      156.784      208.452        0.292        0.040       70.319       12.620        0.032      325.937       -9.521      865.027
01/01/2015  03:32:00       66.514       41.983        9.595       17.991       14.644       15.396      323.671      214.450      237.048        0.353        0.039       78.656       12.045        0.023      325.913       -9.560      865.020
01/01/2015  03:33:00       85.092       37.943        7.414       16.172       14.620       11.915      261.528      213.753      141.959        0.468        0.031       93.168        9.552        0.011      325.892       -9.591      864.995
01/01/2015  03:34:00       77.808       45.570        3.022       11.704       13.861        7.864      136.990      192.133       61.842        0.427        0.020       90.170        3.038        0.001      325.895       -9.587      864.978
01/01/2015  03:35:00       49.673       31.030       14.095       24.136       14.740       18.319      582.526      217.278      335.578        0.238        0.057       58.569       16.011        0.075      325.893       -9.592      864.966
01/01/2015  03:36:00       49.976       20.167        9.685       25.970       23.972       20.815      674.456      574.677      433.247        0.234        0.084       53.892       12.039        0.050      325.918       -9.550      864.979
01/01/2015  03:37:00       58.498       24.895       -8.820       21.454       14.724       16.761      460.286      216.792      280.931        0.254        0.048       63.575       10.244        0.026      325.898       -9.582      864.999
01/01/2015  03:38:00       41.580       27.006        1.653       18.059       22.055       13.918      326.128      486.424      193.704        0.173        0.050       49.581        3.613        0.005      325.905       -9.572      865.010
01/01/2015  03:39:00       15.938       14.712        6.411       14.125       13.914        9.336      199.505      193.591       87.168        0.050        0.024       21.690        8.039        0.137      325.856       -9.650      865.021
01/01/2015  03:40:00       23.881       32.365       -0.164       14.441       12.330       11.947      208.531      152.038      142.739        0.106        0.025       40.222        8.409        0.044      325.885       -9.604      865.039
01/01/2015  03:41:00       24.403       49.110       -3.122       12.524       15.096       13.784      156.847      227.890      190.001        0.180        0.029       54.839       10.338        0.036      325.856       -9.652      865.056
01/01/2015  03:42:00       18.354       36.074       -7.585       11.661       10.678        8.537      135.971      114.026       72.873        0.101        0.016       40.475        6.344        0.025      325.868       -9.632      865.069
01/01/2015  03:43:00       -7.307        9.075        0.362       10.501       15.601        7.916      110.271      243.376       62.669        0.028        0.021       11.651       10.135        0.757      325.840       -9.677      865.070
01/01/2015  03:44:00      -23.210        9.875       -2.299       20.573       19.538        7.272      423.260      381.721       52.889        0.075        0.043       25.223        6.564        0.068      325.618      -10.036      865.065
01/01/2015  03:45:00      -55.473       -0.016       -9.867       13.512       16.716       13.969      182.561      279.415      195.131        0.192        0.033       55.473       12.525        0.051      325.437      -10.329      865.066
01/01/2015  03:46:00      -39.714       -5.680      -10.200       21.635       11.502       10.682      468.061      132.292      114.100        0.121        0.036       40.118        8.195        0.042      325.463      -10.287      865.087
01/01/2015  03:47:00      -39.994       -5.762      -15.432        8.735        7.284        7.411       76.292       53.051       54.919        0.103        0.009       40.407        4.410        0.012      325.504      -10.220      865.117
01/01/2015  03:48:00      -23.108       -2.834       -5.557       12.596        8.805        6.478      158.663       77.527       41.969        0.043        0.014       23.281        4.005        0.030      325.599      -10.067      865.141
01/01/2015  03:49:00      -45.618       -6.243       -7.026        9.003        7.163        6.854       81.054       51.306       46.976        0.117        0.009       46.043        3.730        0.007      325.438      -10.327      865.152
01/01/2015  03:50:00      -40.331       -0.041       -3.388        8.291        6.860        6.091       68.740       47.057       37.105        0.090        0.008       40.331        4.488        0.012      325.478      -10.262      865.147
01/01/2015  03:51:00      -43.899        0.050       -7.833       12.657       10.800        7.735      160.210      116.642       59.823        0.116        0.017       43.899        3.063        0.005      325.514      -10.204      865.131
01/01/2015  03:52:00      -45.168        7.552      -10.827       11.198        8.675        8.237      125.405       75.255       67.851        0.124        0.013       45.795        6.028        0.017      325.551      -10.145      865.125
01/01/2015  03:53:00      -26.168      -10.480       -2.028       15.346        6.665        6.498      235.486       44.418       42.223        0.056        0.016       28.188        4.219        0.022      325.598      -10.067      865.122
01/01/2015  03:54:00       -5.101      -10.447       -0.878        5.416        3.710        4.532       29.329       13.762       20.541        0.010        0.003       11.626        2.094        0.032      325.735       -9.847      865.114
01/01/2015  03:55:00        0.260        1.967       10.847        4.401        5.439        5.378       19.369       29.580       28.918        0.010        0.004        1.984        1.787        0.811      325.718       -9.873      865.109
01/01/2015  03:56:00       -2.360       -2.108        7.281        7.262        8.789        8.036       52.736       77.248       64.578        0.013        0.010        3.164        5.188        2.688      325.759       -9.810      865.107
01/01/2015  03:57:00        0.158        0.137        0.516        7.553        8.334        4.992       57.049       69.456       24.918        0.008        0.008        0.209        3.573      291.328      325.772       -9.787      865.097
01/01/2015  03:58:00       -9.626        1.698        8.947        5.946        9.654        5.393       35.360       93.194       29.086        0.017        0.008        9.775        4.443        0.207      325.692       -9.916      865.092
01/01/2015  03:59:00       -6.935      -18.421        2.897        7.886       12.122       11.870       62.187      146.931      140.907        0.037        0.018       19.683        4.642        0.056      325.775       -9.782      865.092
01/01/2015  04:00:00       -5.668       -9.342       12.782        7.326        9.756        8.317       53.671       95.174       69.171        0.025        0.011       10.927        6.827        0.390      325.713       -9.882      865.089
01/01/2015  04:01:00      -27.371        5.658        1.733        5.837        4.783        5.426       34.075       22.881       29.446        0.044        0.004       27.950        2.760        0.010      325.474      -10.268      865.087
01/01/2015  04:02:00      -14.122        3.648        5.107        5.874       10.621        5.472       34.508      112.812       29.942        0.021        0.009       14.585        2.715        0.035      325.582      -10.095      865.093
01/01/2015  04:03:00        2.955        5.811       10.853       11.097        7.318        6.621      123.154       53.547       43.837        0.019        0.011        6.520        3.728        0.327      325.664       -9.961      865.101
01/01/2015  04:04:00        9.702        9.476       11.335       11.978        9.870        7.509      143.476       97.411       56.385        0.030        0.015       13.562        6.335        0.218      325.714       -9.881      865.095
01/01/2015  04:05:00       -3.685        3.275       15.325        5.371        7.091        6.239       28.849       50.289       38.923        0.019        0.006        4.930        4.586        0.865      325.682       -9.934      865.081
01/01/2015  04:06:00       -6.771        8.911       16.249        7.055        8.364        6.491       49.769       69.958       42.139        0.028        0.008       11.192        4.630        0.171      325.699       -9.907      865.061
01/01/2015  04:07:00       -5.625        5.925       20.740        5.105        9.628        7.295       26.056       92.689       53.220        0.033        0.009        8.169        5.738        0.493      325.735       -9.847      865.037
01/01/2015  04:08:00        0.874        4.500       15.311        6.753       11.565        6.506       45.599      133.758       42.329        0.024        0.011        4.584        3.842        0.702      325.733       -9.852      865.020
01/01/2015  04:09:00       -1.223        4.254       18.526        5.657        7.328        6.121       31.997       53.698       37.465        0.024        0.006        4.426        5.315        1.442      325.709       -9.889      865.004
01/01/2015  04:10:00        1.750        1.667       14.910        6.944        9.200        5.412       48.223       84.634       29.290        0.020        0.008        2.417        5.556        5.286      325.713       -9.882      865.004
01/01/2015  04:11:00        9.477       12.024       18.026       14.576       12.194       14.293      212.473      148.687      204.294        0.056        0.028       15.309       10.905        0.507      325.705       -9.897      865.008
01/01/2015  04:12:00       16.520       16.256       18.566       20.823       21.602       15.232      433.578      466.653      232.023        0.101        0.057       23.177       16.264        0.492      325.700       -9.904      865.016
01/01/2015  04:13:00        8.162       19.747       26.081       22.841       19.311       15.318      521.705      372.908      234.651        0.113        0.056       21.367       15.228        0.508      325.649       -9.985      865.013
01/01/2015  04:14:00       28.130       32.437       27.497       17.761       16.865       21.739      315.448      284.426      472.592        0.184        0.054       42.935        9.782        0.052      325.701       -9.902      865.004
01/01/2015  04:15:00        2.074       23.905       38.347       12.505       18.102       16.217      156.366      327.673      263.004        0.140        0.037       23.995        8.741        0.133      325.674       -9.946      864.998
01/01/2015  04:16:00        0.034       23.924       49.107       14.361       17.677       10.746      206.252      312.478      115.467        0.181        0.032       23.924        9.571        0.160      325.670       -9.954      864.995
01/01/2015  04:17:00        1.257       31.504       39.743       14.679       18.302       17.228      215.468      334.967      296.815        0.171        0.042       31.529       10.533        0.112      325.706       -9.895      864.994
01/01/2015  04:18:00       47.112       37.290       23.966       27.506       21.759       20.969      756.556      473.470      439.688        0.293        0.083       60.084        9.741        0.026      325.709       -9.890      864.984
01/01/2015  04:19:00       39.110       24.516        7.170       19.976       16.711       16.523      399.043      279.265      272.997        0.157        0.048       46.158       13.620        0.087      325.748       -9.828      864.965
01/01/2015  04:20:00       43.128       37.577       15.182       17.330       14.049       17.574      300.328      197.385      308.851        0.215        0.040       57.202       13.194        0.053      325.667       -9.956      864.948
01/01/2015  04:21:00       42.951       33.942       19.649       14.091       12.926       10.632      198.552      167.090      113.034        0.193        0.024       54.743        7.464        0.019      325.659       -9.970      864.959
01/01/2015  04:22:00       29.204       28.729       25.086       16.471       12.733       10.062      271.300      162.138      101.244        0.142        0.027       40.967        7.922        0.037      325.672       -9.951      864.975
01/01/2015  04:23:00       26.133       25.280        9.453       11.027       15.622       14.602      121.600      244.049      213.227        0.100        0.029       36.360       10.303        0.080      325.712       -9.884      864.996
01/01/2015  04:24:00       29.338       24.887        8.673       16.429       16.202       10.600      269.908      262.513      112.355        0.110        0.032       38.472        9.621        0.063      325.682       -9.933      865.005
01/01/2015  04:25:00       36.280       26.705        3.947        9.874       10.293        8.389       97.500      105.947       70.383        0.116        0.014       45.049        5.298        0.014      325.679       -9.939      865.008
01/01/2015  04:26:00       45.426       31.727        6.797       13.293       10.103        9.703      176.692      102.062       94.143        0.174        0.019       55.409        5.819        0.011      325.680       -9.937      865.010
01/01/2015  04:27:00       33.736       24.421        5.957       14.477       13.783        9.050      209.582      189.967       81.894        0.113        0.024       41.647        3.528        0.007      325.664       -9.962      865.008
01/01/2015  04:28:00       44.135       36.371       10.010       13.043        9.671       11.540      170.119       93.534      133.167        0.188        0.020       57.190        5.633        0.010      325.637      -10.002      865.006
01/01/2015  04:29:00       55.476       31.779        7.215        9.187       12.169        9.429       84.406      148.086       88.915        0.223        0.016       63.933        5.510        0.007      325.647       -9.989      864.997
01/01/2015  04:30:00       50.093       36.480        7.244        9.129        8.184       10.050       83.345       66.979      100.997        0.207        0.013       61.969        6.946        0.013      325.656       -9.975      864.982
01/01/2015  04:31:00       40.294       32.518        9.234        8.114        9.099        7.500       65.835       82.797       56.247        0.149        0.010       51.779        2.820        0.003      325.684       -9.929      864.969
01/01/2015  04:32:00       19.346       25.544        8.386       15.515       12.809       11.626      240.706      164.074      135.153        0.082        0.027       32.043        8.453        0.070      325.693       -9.916      864.974
01/01/2015  04:33:00       33.443       13.379        5.987       16.626       11.181       10.873      276.409      125.009      118.219        0.093        0.026       36.020       10.258        0.081      325.737       -9.845      864.980
01/01/2015  04:34:00       38.693       14.403       12.614       17.057       18.556        9.654      290.954      344.326       93.191        0.130        0.036       41.287        9.096        0.049      325.663       -9.964      865.002
01/01/2015  04:35:00       50.046       27.773       11.496       15.908       11.664       11.821      253.072      136.039      139.740        0.197        0.026       57.236        8.541        0.022      325.685       -9.929      865.011
01/01/2015  04:36:00       43.482       25.490       15.264       13.030       15.669       13.419      169.775      245.513      180.065        0.168        0.030       50.403        8.575        0.029      325.711       -9.887      865.000
01/01/2015  04:37:00        7.871       -2.571       14.863       21.840       21.440       12.181      477.001      459.685      148.375        0.069        0.054        8.280        9.321        1.267      325.713       -9.884      864.988
01/01/2015  04:38:00        0.644       -2.118       10.079        8.791       11.063       10.500       77.280      122.396      110.244        0.021        0.015        2.214        7.103       10.295      325.722       -9.868      864.973
01/01/2015  04:39:00      -10.205       18.831       38.381        9.419       14.815       12.168       88.708      219.493      148.069        0.119        0.023       21.418        9.838        0.211      325.702       -9.901      864.961
01/01/2015  04:40:00       -0.787       19.138       36.404       12.075       19.396       11.462      145.812      376.194      131.382        0.117        0.033       19.154        8.993        0.220      325.684       -9.930      864.969
01/01/2015  04:41:00       24.473      -57.073       21.070       31.511       39.600       22.470      992.954     1568.184      504.897        0.368        0.153       62.099       20.208        0.106      325.781       -9.774      864.971
01/01/2015  04:42:00       31.029      -64.240       10.077       33.093       48.057       31.890     1095.137     2309.468     1016.965        0.481        0.221       71.341       20.707        0.084      325.904       -9.575      864.970
01/01/2015  04:43:00       62.345      -74.702       -0.065       44.541       30.804       29.272     1983.902      948.865      856.841        0.663        0.189       97.300       28.786        0.088      325.833       -9.690      864.969
01/01/2015  04:44:00       74.600      -80.169       -5.676       28.342       44.405       21.985      803.260     1971.782      483.345        0.764        0.163      109.509       19.860        0.033      325.805       -9.734      864.967
01/01/2015  04:45:00       63.575      -50.657       -6.763       32.362       37.692       30.750     1047.298     1420.658      945.544        0.503        0.171       81.289       19.947        0.060      325.784       -9.767      864.976
01/01/2015  04:46:00        5.786      -14.772       21.634       21.265       43.896       27.197      452.185     1926.862      739.668        0.192        0.156       15.864       28.956        3.332      325.748       -9.827      864.983
01/01/2015  04:47:00       15.621      -48.665       -1.413       32.960       22.528       18.643     1086.374      507.500      347.564        0.228        0.097       51.110       18.748        0.135      325.891       -9.596      864.982
01/01/2015  04:48:00      -10.699      -48.555        6.327       22.957       29.827       21.128      527.031      889.671      446.376        0.219        0.093       49.720       19.937        0.161      325.835       -9.685      864.977
01/01/2015  04:49:00       20.004      -31.903        3.119       26.704       24.649       20.417      713.079      607.575      416.856        0.158        0.087       37.656       11.927        0.100      325.840       -9.677      864.984
01/01/2015  04:50:00      -14.556      -36.189       -1.738       27.145       20.933       13.203      736.858      438.206      174.310        0.144        0.067       39.007       10.403        0.071      325.784       -9.768      865.005
01/01/2015  04:51:00      -20.026       -5.891       12.321       14.155       16.108       11.087      200.357      259.484      122.927        0.059        0.029       20.875       10.254        0.241      325.678       -9.940      865.014
01/01/2015  04:52:00      -35.103        0.579       -3.555       18.672       14.368       13.171      348.660      206.425      173.463        0.099        0.036       35.108        8.324        0.056      325.606      -10.057      865.022
01/01/2015  04:53:00      -39.566        3.035       -2.897       18.731       13.536        9.882      350.836      183.232       97.658        0.111        0.032       39.683        4.531        0.013      325.535      -10.172      865.021
01/01/2015  04:54:00      -36.182        3.753        4.245       27.794       17.729       15.681      772.511      314.325      245.879        0.134        0.067       36.377       16.483        0.205      325.492      -10.239      865.032
01/01/2015  04:55:00      -22.495       -7.239       10.033       30.293       19.913       16.291      917.641      396.509      265.396        0.112        0.079       23.631       15.242        0.416      325.492      -10.240      865.048
01/01/2015  04:56:00       -6.754      -29.747        5.429       42.468       23.039       22.126     1803.535      530.784      489.543        0.189        0.141       30.504       10.359        0.115      325.596      -10.072      865.065
01/01/2015  04:57:00      -65.561      -12.409       -2.012       31.777       32.517       17.004     1009.748     1057.326      289.133        0.341        0.118       66.725       13.134        0.039      325.310      -10.533      865.085
01/01/2015  04:58:00      -73.959        3.360        2.783       40.586       25.468       21.648     1647.202      648.603      468.652        0.413        0.138       74.035       19.627        0.070      325.217      -10.685      865.098
01/01/2015  04:59:00     -115.126       -8.277       -2.008       51.403       30.989       26.960     2642.288      960.299      726.815        0.883        0.216      115.423       29.529        0.065      325.132      -10.821      865.126
01/01/2015  05:00:00     -100.686      -13.955        1.760       42.893       36.981       19.767     1839.826     1367.582      390.730        0.697        0.180      101.649       13.888        0.019      325.122      -10.838      865.143
01/01/2015  05:01:00     -140.057      -26.110       -5.798       42.549       37.169       26.083     1810.378     1381.534      680.305        1.210        0.194      142.470       22.687        0.025      325.132      -10.822      865.157
01/01/2015  05:02:00     -159.531      -51.047       -8.775       39.311       28.600       19.171     1545.388      817.957      367.546        1.543        0.137      167.499       16.864        0.010      325.132      -10.821      865.170
01/01/2015  05:03:00     -128.267      -75.064        0.914       44.662       36.912       24.952     1994.725     1362.526      622.615        1.303        0.199      148.617       23.583        0.025      325.077      -10.910      865.162
01/01/2015  05:04:00     -150.373      -73.287       -7.190       49.211       34.979       26.558     2421.769     1223.560      705.317        1.619        0.218      167.281       26.317        0.025      325.047      -10.958      865.140
01/01/2015  05:05:00     -156.564      -73.314      -11.661       32.756       39.498       22.045     1072.984     1560.060      485.964        1.657        0.156      172.879       20.508        0.014      325.065      -10.930      865.122
01/01/2015  05:06:00     -142.856      -50.234       -1.363       38.681       29.135       20.952     1496.236      848.839      438.972        1.286        0.139      151.431       23.925        0.025      325.055      -10.946      865.107
01/01/2015  05:07:00     -106.916      -52.707       -5.793       42.175       45.419       22.000     1778.771     2062.920      484.020        0.928        0.216      119.202       16.637        0.019      325.088      -10.892      865.093
01/01/2015  05:08:00     -100.978       -3.845        1.291       40.182       34.630       26.279     1614.604     1199.228      690.604        0.686        0.175      101.052       22.636        0.050      325.086      -10.896      865.088
01/01/2015  05:09:00     -133.926      -32.865       -6.600       39.575       28.502       19.641     1566.186      812.336      385.775        1.091        0.138      137.899       19.095        0.019      325.089      -10.891      865.098
01/01/2015  05:10:00     -143.658      -21.469       -6.824       32.618       27.636       23.766     1063.915      763.772      564.837        1.177        0.120      145.253       20.560        0.020      325.067      -10.926      865.111
01/01/2015  05:11:00     -146.918      -48.962      -10.190       28.258       29.133       19.802      798.541      848.717      392.106        1.306        0.102      154.862       16.330        0.011      325.035      -10.978      865.115
01/01/2015  05:12:00     -113.786      -33.135       -9.461       27.472       39.861       23.513      754.722     1588.922      552.845        0.851        0.145      118.512       17.513        0.022      325.108      -10.861      865.122
01/01/2015  05:13:00     -105.425      -28.568       -2.441       36.244       30.211       23.673     1313.598      912.701      560.402        0.736        0.139      109.228       21.970        0.040      325.092      -10.887      865.124
01/01/2015  05:14:00     -149.505      -32.848       -8.168       29.935       22.348       20.062      896.123      499.422      402.495        1.265        0.090      153.071       15.774        0.011      325.108      -10.859      865.122
01/01/2015  05:15:00     -117.039      -64.071       -2.932       41.395       28.550       19.051     1713.564      815.087      362.927        1.035        0.145      133.429       19.671        0.022      325.138      -10.812      865.130
01/01/2015  05:16:00     -116.635      -53.532       -4.441       38.336       29.633       19.359     1469.662      878.100      374.762        0.961        0.136      128.333       22.227        0.030      325.118      -10.842      865.148
01/01/2015  05:17:00     -107.950      -54.091       -0.443       42.586       26.778       19.489     1813.552      717.067      379.840        0.874        0.146      120.743       14.487        0.014      325.203      -10.707      865.170
01/01/2015  05:18:00     -126.358      -33.301       -1.776       33.430       30.721       21.821     1117.584      943.769      476.162        0.981        0.127      130.672       18.201        0.019      325.198      -10.715      865.180
01/01/2015  05:19:00     -116.862      -54.040       -5.084       34.445       29.263       18.325     1186.492      856.299      335.793        0.949        0.119      128.752       16.476        0.016      325.173      -10.754      865.181
01/01/2015  05:20:00     -114.304      -15.295      -15.477       21.837       24.951       17.432      476.852      622.538      303.861        0.747        0.070      115.323       11.831        0.011      325.227      -10.666      865.187
01/01/2015  05:21:00      -88.582      -11.158       -6.990       36.154       17.842       16.558     1307.146      318.344      274.161        0.496        0.095       89.282       17.421        0.038      325.189      -10.729      865.201
01/01/2015  05:22:00     -106.993      -10.004       -7.835       23.598       19.121       17.342      556.851      365.625      300.729        0.642        0.061      107.460       14.712        0.019      325.141      -10.807      865.223
01/01/2015  05:23:00      -70.968      -20.422       -5.389       31.049       20.447       16.831      964.019      418.083      283.267        0.357        0.083       73.848       18.681        0.064      325.167      -10.763      865.239
01/01/2015  05:24:00      -80.276      -12.041      -10.063       15.028       11.607        9.461      225.828      134.733       89.518        0.357        0.023       81.174        6.310        0.006      325.276      -10.589      865.244
01/01/2015  05:25:00      -30.903      -13.383       -4.210       20.082       15.255        8.770      403.293      232.710       76.908        0.093        0.036       33.677        5.463        0.026      325.286      -10.572      865.264
01/01/2015  05:26:00      -49.548      -21.085       -6.562       16.986       12.133        9.491      288.539      147.207       90.084        0.173        0.026       53.848        9.275        0.030      325.238      -10.648      865.297
01/01/2015  05:27:00      -41.570      -15.657       -4.238       13.065       16.002        7.138      170.702      256.049       50.953        0.123        0.024       44.421        3.290        0.005      325.319      -10.518      865.345
01/01/2015  05:28:00      -22.519        8.619       -2.312       14.165       12.505        9.884      200.660      156.370       97.691        0.052        0.023       24.112        7.430        0.095      325.446      -10.314      865.387
01/01/2015  05:29:00       -9.970       13.227        3.879       12.084       17.668       12.179      146.013      312.167      148.323        0.045        0.030       16.563       11.926        0.518      325.487      -10.247      865.423
01/01/2015  05:30:00      -12.736       40.811       -3.010       32.058       17.481       11.870     1027.712      305.603      140.888        0.166        0.074       42.752        8.030        0.035      325.529      -10.179      865.446
01/01/2015  05:31:00       -2.758       82.166       -7.476       15.165       27.743        8.366      229.963      769.692       69.992        0.394        0.053       82.213        9.741        0.014      325.530      -10.178      865.480
01/01/2015  05:32:00       13.652      120.246      -17.705        8.804       20.120        8.547       77.517      404.824       73.044        0.776        0.028      121.019        8.757        0.005      325.537      -10.167      865.530
01/01/2015  05:33:00       23.815      137.177      -22.476        9.367       16.127        8.772       87.738      260.080       76.945        1.016        0.021      139.228        7.103        0.003      325.513      -10.206      865.582
01/01/2015  05:34:00       34.984      114.532      -20.201       20.874       29.356       13.634      435.713      861.758      185.893        0.812        0.074      119.755       13.332        0.012      325.373      -10.432      865.631
01/01/2015  05:35:00       26.724       87.478      -11.079       22.880       30.614       22.607      523.493      937.194      511.083        0.523        0.099       91.469       21.447        0.055      325.317      -10.522      865.661
01/01/2015  05:36:00       26.058       86.015       -8.021       22.140       35.146       22.257      490.162     1235.238      495.360        0.518        0.111       89.876       20.322        0.051      325.358      -10.455      865.679
01/01/2015  05:37:00       30.488       60.752       -4.313       21.179       35.415       25.073      448.532     1254.249      628.635        0.348        0.117       67.973       23.821        0.123      325.371      -10.436      865.702
01/01/2015  05:38:00       18.869       44.957       -2.578       23.004       30.073       19.381      529.185      904.393      375.640        0.210        0.090       48.756       14.587        0.090      325.339      -10.487      865.722
01/01/2015  05:39:00       44.508       39.975       -5.878       21.795       18.586       16.926      475.040      345.454      286.503        0.236        0.055       59.824       12.965        0.047      325.362      -10.448      865.714
01/01/2015  05:40:00       53.651       25.161        9.045       16.424       14.942       11.960      269.749      223.252      143.036        0.211        0.032       59.258        9.818        0.027      325.439      -10.325      865.681
01/01/2015  05:41:00       37.641       10.545        5.284       19.674       15.529       15.982      387.061      241.140      255.436        0.122        0.044       39.091        9.091        0.054      325.478      -10.263      865.626
01/01/2015  05:42:00       34.889       26.643       10.383       13.220       13.171        9.805      174.775      173.483       96.129        0.124        0.022       43.899        4.228        0.009      325.500      -10.228      865.582
01/01/2015  05:43:00       51.764       35.094        6.803       15.266        9.761        8.855      233.038       95.282       78.405        0.218        0.020       62.539        5.124        0.007      325.513      -10.207      865.557
01/01/2015  05:44:00       38.814       30.570        2.773        6.478        7.992        9.809       41.960       63.869       96.219        0.133        0.010       49.407        1.809        0.001      325.542      -10.159      865.547
01/01/2015  05:45:00       20.063       14.036        0.043        8.725        8.210        7.384       76.117       67.401       54.518        0.040        0.010       24.486        6.063        0.061      325.520      -10.194      865.529
01/01/2015  05:46:00        8.069      -20.060       -7.318        8.155       20.582        6.971       66.504      423.608       48.589        0.053        0.027       21.622        7.495        0.120      325.568      -10.117      865.504
01/01/2015  05:47:00      -25.821      -19.802        6.825       12.208       11.450        7.220      149.026      131.091       52.122        0.072        0.017       32.540        6.016        0.034      325.559      -10.132      865.502
01/01/2015  05:48:00       -8.316       -2.405        3.348       11.781        6.569        7.839      138.801       43.157       61.456        0.016        0.012        8.657        5.550        0.411      325.471      -10.275      865.532
01/01/2015  05:49:00       -0.795        1.268        1.611        6.028        2.833        5.793       36.342        8.029       33.560        0.004        0.004        1.496        4.074        7.411      325.475      -10.267      865.573
01/01/2015  05:50:00       21.090       14.191        2.281       11.040        9.228        8.039      121.885       85.153       64.626        0.046        0.014       25.420        3.657        0.021      325.596      -10.071      865.587
01/01/2015  05:51:00        9.664        7.670       -1.709       13.122        7.212        3.788      172.182       52.015       14.350        0.020        0.012       12.338        4.462        0.131      325.606      -10.054      865.616
01/01/2015  05:52:00       -6.403       10.167        3.244       10.661        9.820        7.433      113.665       96.438       55.245        0.021        0.013       12.015        1.495        0.015      325.554      -10.140      865.664
01/01/2015  05:53:00      -31.073       19.891       -2.445       19.222       23.811       12.268      369.475      566.956      150.503        0.123        0.054       36.894       13.394        0.132      325.485      -10.250      865.680
01/01/2015  05:54:00      -47.990       30.321       -9.400       17.139       15.993       10.973      293.733      255.769      120.416        0.199        0.033       56.766        6.396        0.013      325.423      -10.351      865.680
01/01/2015  05:55:00      -56.705       20.769       -8.692       14.931       20.672       10.141      222.930      427.326      102.841        0.224        0.038       60.389        5.092        0.007      325.372      -10.435      865.715
01/01/2015  05:56:00      -83.119        3.000       -8.203       33.537       25.554       14.744     1124.722      653.026      217.397        0.449        0.100       83.173       16.664        0.040      325.292      -10.562      865.728
01/01/2015  05:57:00     -121.685        6.422      -10.121       33.036       31.142       17.236     1091.401      969.827      297.081        0.865        0.118      121.854       10.976        0.008      325.151      -10.790      865.687
01/01/2015  05:58:00     -121.623        9.787      -10.647       26.160       23.062       15.259      684.345      531.843      232.848        0.822        0.072      122.016       11.808        0.009      325.129      -10.825      865.665
01/01/2015  05:59:00     -100.316       13.141      -11.910       26.797       27.879       18.025      718.098      777.246      324.893        0.610        0.091      101.173       13.846        0.019      325.178      -10.746      865.664
01/01/2015  06:00:00      -98.963        5.502      -10.168       29.905       23.233       15.129      894.333      539.749      228.877        0.579        0.083       99.115        7.106        0.005      325.205      -10.703      865.660
01/01/2015  06:01:00     -104.287       -3.833       -7.203       36.456       22.075       15.800     1329.019      487.319      249.633        0.650        0.103      104.358       17.799        0.029      325.207      -10.700      865.650
01/01/2015  06:02:00      -71.954       -3.124       -0.127       38.553       29.769       18.009     1486.307      886.184      324.330        0.394        0.135       72.022       18.445        0.066      325.151      -10.791      865.649
01/01/2015  06:03:00     -133.954       14.913       -9.977       33.994       24.986       16.244     1155.564      624.279      263.864        1.015        0.102      134.782       10.866        0.006      325.141      -10.808      865.667
01/01/2015  06:04:00     -122.833       29.312      -14.915       33.006       30.437       16.386     1089.377      926.386      268.496        0.923        0.114      126.282       14.373        0.013      325.202      -10.709      865.712
01/01/2015  06:05:00     -106.315        6.245       -7.136       55.140       41.507       19.903     3040.396     1722.808      396.129        0.827        0.258      106.498       23.818        0.050      325.133      -10.820      865.737
01/01/2015  06:06:00      -87.316      -29.101      -10.047       20.591       22.153       14.938      424.009      490.771      223.157        0.485        0.057       92.038       12.138        0.017      325.107      -10.862      865.737
01/01/2015  06:07:00      -67.142      -29.372       -5.202       29.237       23.522       16.010      854.788      553.284      256.323        0.353        0.083       73.286        9.583        0.017      325.185      -10.734      865.752
01/01/2015  06:08:00      -96.066      -35.252      -12.150       21.410       18.253       13.413      458.381      333.162      179.896        0.580        0.049      102.330       10.500        0.011      325.193      -10.722      865.766
01/01/2015  06:09:00     -116.888      -32.113      -12.139       16.434       18.668       14.146      270.087      348.476      200.100        0.783        0.041      121.219       10.736        0.008      325.032      -10.983      865.767
01/01/2015  06:10:00      -92.006      -27.347       -4.731       25.638       25.382       15.733      657.312      644.267      247.520        0.539        0.077       95.984       13.362        0.019      325.054      -10.947      865.764
01/01/2015  06:11:00      -92.682      -21.053       -4.549       28.671       16.036       15.721      822.044      257.164      247.159        0.519        0.066       95.043       10.652        0.013      325.039      -10.970      865.778
01/01/2015  06:12:00      -86.391      -11.617       -3.814       32.948       24.119       15.759     1085.582      581.708      248.361        0.476        0.096       87.169       16.500        0.036      325.018      -11.005      865.780
01/01/2015  06:13:00      -91.713      -24.992       -4.627       26.471       19.160       17.992      700.701      367.105      323.720        0.522        0.070       95.057       14.734        0.024      325.065      -10.930      865.791
01/01/2015  06:14:00      -98.087      -17.409       -4.669       21.850       16.480       13.471      477.413      271.598      181.457        0.544        0.047       99.620       10.510        0.011      325.070      -10.922      865.821
01/01/2015  06:15:00     -106.224      -14.093       -5.423       15.646       12.642       12.136      244.790      159.816      147.283        0.603        0.028      107.155        9.925        0.009      325.089      -10.891      865.857
01/01/2015  06:16:00      -90.590      -13.008       -3.475       23.360       22.748       15.419      545.693      517.482      237.759        0.484        0.065       91.519       11.172        0.015      325.165      -10.768      865.874
01/01/2015  06:17:00     -105.188      -10.790       -7.655       15.027       14.524       12.250      225.817      210.959      150.068        0.591        0.029      105.740        9.355        0.008      325.149      -10.793      865.880
01/01/2015  06:18:00      -96.016      -14.403       -9.666       13.736       11.661        7.936      188.667      135.970       62.984        0.495        0.019       97.090        3.030        0.001      325.163      -10.771      865.877
01/01/2015  06:19:00      -79.023      -24.082       -6.477       17.538       15.632       10.823      307.593      244.373      117.147        0.377        0.033       82.611        5.467        0.004      325.209      -10.695      865.855
01/01/2015  06:20:00      -93.316      -26.929       -9.659       15.425       15.997       11.938      237.944      255.901      142.513        0.508        0.032       97.124        5.895        0.004      325.260      -10.615      865.818
01/01/2015  06:21:00      -95.757      -18.000       -6.680       21.264       15.806       13.106      452.155      249.838      171.778        0.521        0.044       97.434        8.896        0.008      325.269      -10.601      865.809
01/01/2015  06:22:00      -84.936      -17.213       -8.773       17.322       16.916       12.919      300.049      286.160      166.898        0.417        0.038       86.663        9.022        0.011      325.269      -10.600      865.834
01/01/2015  06:23:00      -72.535      -22.771       -2.737       24.809       17.651       13.246      615.468      311.563      175.448        0.344        0.055       76.025       10.791        0.020      325.271      -10.598      865.841
01/01/2015  06:24:00      -76.430      -39.218        1.173       19.549       18.259       12.980      382.181      333.390      168.476        0.413        0.044       85.904        9.959        0.013      325.292      -10.561      865.819
01/01/2015  06:25:00      -91.870      -37.529       -2.876       20.076       29.762       14.489      403.045      885.783      209.938        0.568        0.075       99.240       11.986        0.015      325.323      -10.514      865.772
01/01/2015  06:26:00      -99.067      -26.559       -7.220       18.253       19.265       10.436      333.173      371.139      108.911        0.569        0.041      102.565        4.910        0.002      325.354      -10.461      865.736
01/01/2015  06:27:00      -72.684      -18.406       -4.464       17.468       11.723       10.474      305.122      137.439      109.697        0.310        0.028       74.978        7.715        0.011      325.384      -10.414      865.726
01/01/2015  06:28:00      -77.841      -13.004       -4.913       16.325       11.230        8.519      266.513      126.119       72.572        0.336        0.023       78.920        7.137        0.008      325.363      -10.450      865.741
01/01/2015  06:29:00      -60.300      -22.959       -5.558       17.632       17.916       10.976      310.885      321.000      120.467        0.247        0.038       64.523       10.464        0.026      325.362      -10.451      865.754
01/01/2015  06:30:00      -68.406      -28.839       -4.164       12.363       13.869        8.140      152.835      192.354       66.260        0.297        0.021       74.237        3.068        0.002      325.408      -10.374      865.755
01/01/2015  06:31:00      -50.058      -28.312       -5.384       12.162       13.260        9.555      147.903      175.834       91.300        0.188        0.021       57.510        4.443        0.006      325.370      -10.436      865.761
01/01/2015  06:32:00      -29.598      -13.459       -6.278       10.726       13.210        6.289      115.057      174.492       39.555        0.071        0.016       32.515        5.842        0.032      325.350      -10.467      865.742
01/01/2015  06:33:00      -35.074      -14.733       -3.458       11.174       11.417        6.666      124.852      130.343       44.435        0.088        0.015       38.043        5.416        0.020      325.376      -10.428      865.716
01/01/2015  06:34:00      -48.359      -17.361       -7.123        9.812       11.147        6.521       96.277      124.255       42.528        0.148        0.013       51.381        5.199        0.010      325.300      -10.551      865.706
01/01/2015  06:35:00      -54.775      -10.741       -4.644        9.080        9.029        8.612       82.449       81.523       74.167        0.169        0.012       55.818        4.275        0.006      325.292      -10.562      865.716
01/01/2015  06:36:00      -63.938      -21.416       -6.909       12.622        9.893        8.044      159.313       97.866       64.705        0.246        0.016       67.429        5.826        0.007      325.302      -10.548      865.736
01/01/2015  06:37:00      -89.700      -38.492       -8.548       12.652       13.583        6.831      160.072      184.487       46.658        0.500        0.020       97.610        5.014        0.003      325.284      -10.576      865.738
01/01/2015  06:38:00      -99.238      -37.694       -0.888       22.467       20.078       16.477      504.748      403.128      271.503        0.622        0.059      106.156       14.253        0.018      325.262      -10.612      865.713
01/01/2015  06:39:00      -67.379      -49.750        0.002       42.318       26.539       17.466     1790.821      704.306      305.055        0.491        0.140       83.755       16.550        0.039      325.258      -10.619      865.706
01/01/2015  06:40:00      -86.348      -50.276        0.726       55.085       43.232       28.632     3034.313     1869.024      819.797        0.785        0.286       99.918       33.886        0.115      325.210      -10.695      865.711
01/01/2015  06:41:00     -102.328      -82.247       -4.018       34.617       36.671       19.539     1198.346     1344.793      381.788        1.009        0.146      131.284       12.784        0.009      325.221      -10.676      865.715
01/01/2015  06:42:00      -83.182      -53.246        5.159       50.347       30.666       28.954     2534.774      940.374      838.316        0.705        0.216       98.764       24.988        0.064      325.167      -10.764      865.715
01/01/2015  06:43:00      -73.477      -73.683        0.649       39.066       40.072       23.245     1526.141     1605.732      540.311        0.725        0.184      104.058       22.064        0.045      325.067      -10.926      865.720
01/01/2015  06:44:00      -83.927      -87.626        0.160       40.694       34.106       21.635     1656.022     1163.202      468.085        0.900        0.164      121.334       16.766        0.019      325.169      -10.761      865.734
01/01/2015  06:45:00     -100.065      -49.536        3.916       40.298       30.901       23.003     1623.907      954.853      529.130        0.779        0.155      111.655       23.261        0.043      324.951      -11.112      865.749
01/01/2015  06:46:00      -64.964      -57.115        6.179       59.622       38.009       26.729     3554.746     1444.709      714.425        0.662        0.286       86.501       28.111        0.106      325.065      -10.930      865.758
01/01/2015  06:47:00     -117.574     -103.234       -5.671       37.691       32.304       28.970     1420.644     1043.566      839.266        1.391        0.165      156.463       18.385        0.014      324.906      -11.186      865.763
01/01/2015  06:48:00      -88.067      -60.176        1.148       44.678       31.298       24.901     1996.116      979.572      620.058        0.749        0.180      106.663       23.162        0.047      324.943      -11.126      865.783
01/01/2015  06:49:00     -107.827     -101.859       -9.247       44.825       41.478       25.416     2009.273     1720.442      645.967        1.323        0.219      148.330       25.798        0.030      324.914      -11.172      865.798
01/01/2015  06:50:00     -106.135      -98.940       -1.847       41.460       38.736       24.670     1718.954     1500.500      608.618        1.244        0.191      145.099       21.057        0.021      324.954      -11.108      865.795
01/01/2015  06:51:00      -74.774      -61.402        0.367       41.741       38.980       22.654     1742.347     1519.451      513.207        0.657        0.189       96.754       23.945        0.061      324.919      -11.163      865.774
01/01/2015  06:52:00      -88.575      -66.427        1.243       51.374       28.017       26.983     2639.274      784.935      728.058        0.821        0.208      110.716       26.122        0.056      324.932      -11.143      865.741
01/01/2015  06:53:00     -120.151     -120.323      -14.685       25.627       29.658       23.388      656.725      879.589      547.006        1.561        0.104      170.041       14.963        0.008      324.963      -11.093      865.736
01/01/2015  06:54:00     -111.685      -72.255       -4.015       34.509       35.342       25.439     1190.848     1249.043      647.123        1.040        0.154      133.021       20.348        0.023      324.964      -11.093      865.742
01/01/2015  06:55:00     -132.218      -52.858      -10.321       19.070       22.370       16.068      363.658      500.428      258.194        1.075        0.056      142.392        7.768        0.003      325.054      -10.947      865.745
01/01/2015  06:56:00      -63.952      -49.303       -3.862       32.813       25.081       18.132     1076.725      629.066      328.775        0.428        0.102       80.750       11.066        0.019      325.075      -10.913      865.745
01/01/2015  06:57:00      -91.726      -23.512       -0.189       23.642       37.142       18.970      558.926     1379.491      359.858        0.563        0.115       94.692       15.328        0.026      325.015      -11.009      865.751
01/01/2015  06:58:00      -71.726      -23.651       -0.562       31.784       27.506       16.836     1010.198      756.599      283.439        0.388        0.103       75.525       17.813        0.056      325.047      -10.957      865.767
01/01/2015  06:59:00      -97.171      -13.421       -6.245       26.862       27.154       20.650      721.543      737.361      426.429        0.577        0.094       98.093       12.232        0.016      324.961      -11.096      865.785
01/01/2015  07:00:00      -86.973      -22.100       -3.503       28.362       25.726       14.332      804.396      661.830      205.407        0.487        0.084       89.737       10.965        0.015      324.967      -11.087      865.800
01/01/2015  07:01:00      -64.763       -9.753        2.190       27.245       20.275       17.170      742.266      411.080      294.824        0.287        0.072       65.493       18.390        0.079      324.985      -11.058      865.779
01/01/2015  07:02:00      -80.647       -6.485        1.965       34.744       21.252       17.078     1207.132      451.629      291.658        0.425        0.098       80.907       17.315        0.046      324.955      -11.107      865.756
01/01/2015  07:03:00      -44.538       -2.813        3.209       24.266       18.558       13.483      588.821      344.396      181.800        0.156        0.056       44.627       14.356        0.103      324.940      -11.129      865.751
01/01/2015  07:04:00      -38.588        2.135        5.967       21.294       10.755       11.126      453.439      115.680      123.794        0.111        0.035       38.647       12.191        0.099      324.983      -11.060      865.745
01/01/2015  07:05:00      -38.240      -13.493       -1.112       16.464       14.312        9.875      271.052      204.825       97.509        0.111        0.029       40.551        8.632        0.045      325.106      -10.863      865.736
01/01/2015  07:06:00      -40.131      -15.176       -0.167       16.641       16.145        8.948      276.911      260.654       80.066        0.123        0.031       42.905        6.057        0.020      325.137      -10.811      865.718
01/01/2015  07:07:00      -33.104       -7.015       -0.040       14.775       12.671        9.999      218.292      160.557       99.989        0.081        0.024       33.839        9.261        0.075      325.173      -10.756      865.707
01/01/2015  07:08:00      -44.785        3.170       -0.725       14.569        9.774        8.748      212.252       95.523       76.530        0.120        0.019       44.897        6.324        0.020      325.173      -10.756      865.709
01/01/2015  07:09:00      -65.325        8.293       -6.526       16.138       12.824        8.175      260.436      164.445       66.836        0.244        0.025       65.849        4.865        0.005      325.141      -10.806      865.722
01/01/2015  07:10:00      -53.013       -5.249       -5.887       17.655       14.730        9.511      311.695      216.962       90.459        0.175        0.031       53.272       10.489        0.039      325.167      -10.764      865.750
01/01/2015  07:11:00      -65.160      -27.121      -11.093       15.842       14.564        8.943      250.956      212.101       79.971        0.282        0.027       70.579        6.943        0.010      325.170      -10.760      865.764
01/01/2015  07:12:00      -68.445      -33.060      -14.768       16.582       12.858        8.335      274.962      165.337       69.480        0.325        0.025       76.011        7.217        0.009      325.117      -10.843      865.779
01/01/2015  07:13:00      -51.891      -28.222       -7.366       13.510       11.445       12.989      182.531      130.984      168.719        0.201        0.024       59.069        7.742        0.017      325.047      -10.958      865.789
01/01/2015  07:14:00      -50.745      -28.316       -3.619       12.173       12.303        9.023      148.184      151.368       81.408        0.189        0.019       58.111        6.743        0.013      324.975      -11.073      865.792
01/01/2015  07:15:00      -31.121      -18.558       -1.745       15.602        9.617        8.902      243.408       92.493       79.247        0.087        0.021       36.235        5.226        0.021      324.970      -11.081      865.812
01/01/2015  07:16:00      -29.449      -14.728       -2.676       16.033       15.408        9.114      257.067      237.410       83.065        0.083        0.029       32.927        8.260        0.063      325.002      -11.032      865.849
01/01/2015  07:17:00      -14.516      -10.860       -0.514        9.131        4.580        5.355       83.369       20.980       28.677        0.023        0.007       18.129        5.104        0.079      325.135      -10.818      865.875
01/01/2015  07:18:00        4.399        2.210        5.860       12.482        3.875        5.911      155.802       15.018       34.945        0.013        0.010        4.922        6.543        1.767      325.099      -10.873      865.895
01/01/2015  07:19:00       18.490        5.378        9.696        7.829        6.204        8.379       61.299       38.491       70.203        0.032        0.008       19.256        3.244        0.028      325.214      -10.691      865.905
01/01/2015  07:20:00        7.253        7.935        8.012        7.794        6.627        7.057       60.747       43.921       49.799        0.017        0.008       10.750        5.867        0.298      325.228      -10.668      865.904
01/01/2015  07:21:00       -8.283      -13.532        8.051        9.645       10.740        7.827       93.035      115.342       61.259        0.029        0.013       15.866        7.193        0.206      325.201      -10.710      865.893
01/01/2015  07:22:00      -14.394       -3.501        3.729        8.201        6.714        5.088       67.250       45.075       25.883        0.019        0.007       14.814        3.679        0.062      325.175      -10.750      865.880
01/01/2015  07:23:00      -28.796       -2.634        2.693        8.263        6.031        6.599       68.281       36.375       43.548        0.050        0.007       28.916        3.700        0.016      325.126      -10.829      865.870
01/01/2015  07:24:00      -34.320       -4.977       -3.936        5.777        7.198        6.604       33.371       51.817       43.611        0.067        0.006       34.679        2.916        0.007      325.103      -10.866      865.860
01/01/2015  07:25:00      -40.489       -6.488       -1.465        7.138        6.440        8.287       50.950       41.473       68.681        0.092        0.008       41.006        3.274        0.006      325.112      -10.852      865.834
01/01/2015  07:26:00      -34.039      -11.522       -2.152        8.200        8.289        6.786       67.237       68.708       46.043        0.074        0.009       35.936        4.995        0.019      325.068      -10.924      865.822
01/01/2015  07:27:00      -41.290      -11.949       -3.441        6.513        8.110        6.446       42.415       65.778       41.554        0.100        0.007       42.985        2.724        0.004      325.076      -10.912      865.809
01/01/2015  07:28:00      -42.274       -9.361       -5.380        8.332        6.326        6.691       69.424       40.021       44.775        0.103        0.008       43.298        3.051        0.005      325.094      -10.882      865.817
01/01/2015  07:29:00      -31.245       -5.141       -6.102        6.309        4.758        5.490       39.803       22.637       30.144        0.057        0.005       31.666        2.932        0.009      325.117      -10.846      865.848
01/01/2015  07:30:00      -15.652      -10.358        2.964       11.990        9.901        7.856      143.753       98.029       61.720        0.033        0.015       18.769        7.580        0.163      325.171      -10.759      865.868
01/01/2015  07:31:00      -19.360       -7.791       -1.133        9.226        6.855        5.419       85.112       46.996       29.368        0.030        0.008       20.869        4.233        0.041      325.187      -10.734      865.870
01/01/2015  07:32:00      -34.789      -13.075       -4.274        7.017        7.885        7.626       49.236       62.171       58.156        0.078        0.008       37.165        1.613        0.002      325.147      -10.797      865.866
01/01/2015  07:33:00      -23.548       -3.040       -0.458       12.962        8.257        6.621      168.009       68.182       43.840        0.042        0.014       23.743        5.759        0.059      325.203      -10.707      865.880
01/01/2015  07:34:00      -13.484        1.672        2.738        8.496        3.978        3.724       72.181       15.823       13.870        0.015        0.005       13.587        2.998        0.049      325.197      -10.718      865.905
01/01/2015  07:35:00        8.379        1.447        1.986       10.233        4.455        8.606      104.717       19.844       74.061        0.014        0.010        8.503        7.788        0.839      325.282      -10.579      865.929
01/01/2015  07:36:00       -4.352        1.725       -2.027       10.114        3.601        6.616      102.293       12.967       43.775        0.009        0.008        4.682        4.298        0.843      325.333      -10.498      865.935
01/01/2015  07:37:00       -8.035        7.372        8.409        9.381        7.810        8.364       88.005       61.002       69.964        0.020        0.011       10.905        6.530        0.359      325.430      -10.340      865.932
01/01/2015  07:38:00       -3.461       13.113       -1.185        9.500       12.337        6.847       90.249      152.212       46.879        0.024        0.014       13.562        6.566        0.234      325.311      -10.532      865.920
01/01/2015  07:39:00       -6.129       14.666        3.065       13.898       11.378        8.230      193.155      129.460       67.731        0.033        0.020       15.895        5.306        0.111      325.299      -10.551      865.924
01/01/2015  07:40:00        1.221       34.430        1.608       11.152       13.401       15.750      124.362      179.584      248.052        0.087        0.028       34.452       12.650        0.135      325.287      -10.572      865.948
01/01/2015  07:41:00       22.775       23.250       -2.960       13.229       13.459       11.060      175.013      181.148      122.314        0.077        0.024       32.546        9.115        0.078      325.306      -10.538      865.962
01/01/2015  07:42:00       25.496       21.910        0.877       13.464       10.940       10.337      181.286      119.684      106.846        0.077        0.020       33.617        5.410        0.026      325.338      -10.489      865.937
01/01/2015  07:43:00       42.151       27.074        3.390       18.142       12.244       10.613      329.124      149.927      112.632        0.156        0.030       50.098        1.668        0.001      325.278      -10.586      865.908
01/01/2015  07:44:00       63.801       29.162        2.226       12.170       14.428       11.427      148.118      208.176      130.584        0.271        0.024       70.150        6.350        0.008      325.242      -10.642      865.884
01/01/2015  07:45:00       61.472       42.585        7.484       24.781       18.110       20.242      614.094      327.958      409.734        0.350        0.068       74.782       10.568        0.020      325.256      -10.621      865.858
01/01/2015  07:46:00       86.256       42.338       21.023       28.986       24.316       21.836      840.210      591.274      476.808        0.579        0.095       96.086       16.376        0.029      325.200      -10.712      865.853
01/01/2015  07:47:00      117.838       65.891        3.116       17.138       15.389       18.396      293.719      236.822      338.417        0.955        0.043      135.009        8.810        0.004      325.114      -10.850      865.876
01/01/2015  07:48:00       97.990       60.022        6.469       30.221       22.041       18.519      913.314      485.825      342.941        0.749        0.087      114.912        7.319        0.004      325.144      -10.801      865.886
01/01/2015  07:49:00       95.303       49.956        3.735       25.349       19.105       19.963      642.577      365.009      398.521        0.650        0.070      107.602       10.534        0.010      325.172      -10.757      865.894
01/01/2015  07:50:00      100.217       46.693        9.134       25.128       19.988       21.432      631.441      399.515      459.337        0.690        0.075      110.560       10.489        0.009      325.177      -10.749      865.897
01/01/2015  07:51:00       83.537       31.795       -2.162       19.554       23.704       15.857      382.350      561.874      251.429        0.459        0.060       89.383       12.104        0.018      325.245      -10.640      865.883
01/01/2015  07:52:00       67.363       39.645        6.394       25.607       20.298       18.875      655.701      411.991      356.252        0.379        0.071       78.163       13.693        0.031      325.307      -10.537      865.870
01/01/2015  07:53:00       56.438       54.926        0.010       22.146       22.660       19.858      490.440      513.462      394.341        0.380        0.070       78.753       12.882        0.027      325.242      -10.643      865.849
01/01/2015  07:54:00       69.861       51.232        8.585       22.558       16.160       18.102      508.860      261.148      327.684        0.434        0.055       86.633        8.950        0.011      325.232      -10.659      865.841
01/01/2015  07:55:00       72.496       46.222        0.169       18.699       18.228       17.544      349.652      332.258      307.808        0.419        0.049       85.977        9.875        0.013      325.255      -10.622      865.863
01/01/2015  07:56:00       80.173       53.380        2.087       17.235       12.617       17.621      297.031      159.196      310.497        0.502        0.038       96.318        8.707        0.008      325.243      -10.641      865.901
01/01/2015  07:57:00       75.174       45.514       -5.119       16.439       22.642       16.150      270.251      512.682      260.812        0.440        0.052       87.878        3.647        0.002      325.265      -10.607      865.930
01/01/2015  07:58:00       74.010       36.249       -5.341       15.009       18.495       15.088      225.273      342.052      227.642        0.381        0.040       82.411        8.702        0.011      325.303      -10.545      865.924
01/01/2015  07:59:00       80.781       50.858        4.170       20.733       15.645       13.544      429.858      244.756      183.440        0.499        0.043       95.457       10.255        0.012      325.304      -10.541      865.919
01/01/2015  08:00:00       89.546       48.690        1.590       17.437       10.853       13.528      304.038      117.797      183.002        0.550        0.030      101.927        7.416        0.005      325.315      -10.524      865.905
01/01/2015  08:01:00       47.349       39.414       20.829       22.254       17.017       21.120      495.257      289.591      446.073        0.273        0.062       61.607       13.105        0.045      325.432      -10.337      865.891
01/01/2015  08:02:00       34.322       41.042       20.478       20.828       14.244       18.420      433.796      202.884      339.314        0.213        0.049       53.502       15.779        0.087      325.544      -10.156      865.882
01/01/2015  08:03:00       57.980       49.059       15.310       16.801       13.880       18.987      282.260      192.648      360.505        0.342        0.042       75.950       11.903        0.025      325.444      -10.317      865.884
01/01/2015  08:04:00       63.143       44.629        3.709        6.938        9.915       12.979       48.133       98.307      168.449        0.315        0.016       77.323        4.594        0.004      325.367      -10.442      865.909
01/01/2015  08:05:00       55.317       33.468        1.802       18.942       18.250       18.876      358.813      333.062      356.290        0.262        0.052       64.653        6.552        0.010      325.482      -10.256      865.936
01/01/2015  08:06:00       53.739       18.790       -2.132       23.312       18.163       16.826      543.428      329.887      283.109        0.220        0.058       56.929        7.822        0.019      325.469      -10.277      865.961
01/01/2015  08:07:00       54.892       35.158       -1.904       12.081       12.539       12.604      145.960      157.216      158.859        0.236        0.023       65.186        8.310        0.016      325.497      -10.232      865.968
01/01/2015  08:08:00       52.136       28.600        6.244       20.293       13.212       18.098      411.788      174.545      327.528        0.224        0.046       59.466       15.532        0.068      325.544      -10.155      865.976
01/01/2015  08:09:00       63.268       40.936       16.740       20.953       12.431       20.132      439.017      154.535      405.317        0.348        0.050       75.357       14.619        0.038      325.539      -10.164      865.988
01/01/2015  08:10:00       48.281       32.962       -5.163       17.320        9.822       16.501      299.997       96.479      272.267        0.206        0.033       58.460       10.453        0.032      325.549      -10.147      866.007
01/01/2015  08:11:00       53.824       24.520       -2.510       25.217       12.770       11.681      635.902      163.066      136.446        0.222        0.047       59.147        6.394        0.012      325.664       -9.960      866.012
01/01/2015  08:12:00       27.025       39.157       -0.788       19.702       24.581       20.301      388.157      604.204      412.142        0.183        0.070       47.577       18.739        0.155      325.834       -9.687      866.024
01/01/2015  08:13:00        0.937       43.343      -11.274       10.632       18.241       13.901      113.044      332.722      193.229        0.132        0.032       43.353        6.935        0.026      325.844       -9.671      866.041
01/01/2015  08:14:00       29.143       34.303       -3.761       25.245       10.403       12.571      637.322      108.228      158.034        0.147        0.045       45.011       10.962        0.059      325.875       -9.622      866.045
01/01/2015  08:15:00       21.705       42.079       -2.367       19.744       28.208       22.057      389.819      795.683      486.516        0.196        0.084       47.348       17.088        0.130      325.992       -9.432      866.045
01/01/2015  08:16:00       24.518       16.395       11.994       33.657       17.093       15.117     1132.791      292.173      228.529        0.133        0.083       29.495       11.996        0.165      326.100       -9.255      866.055
01/01/2015  08:17:00       50.509       21.044       -0.885       25.605       15.139       17.401      655.641      229.185      302.808        0.209        0.059       54.718       10.641        0.038      325.853       -9.656      866.070
01/01/2015  08:18:00       64.520       47.604        1.903       31.572       31.623       18.682      996.797     1000.027      349.014        0.439        0.117       80.181        7.292        0.008      325.925       -9.540      866.077
01/01/2015  08:19:00       46.038       36.333        1.942       36.231       25.679       23.165     1312.714      659.422      536.621        0.298        0.125       58.648       15.529        0.070      325.968       -9.471      866.102
01/01/2015  08:20:00       69.510       49.238        6.316       16.187       18.212       23.774      262.023      331.660      565.211        0.423        0.058       85.183        9.180        0.012      325.766       -9.796      866.111
01/01/2015  08:21:00       21.287       16.728        5.903       26.402       16.008       20.906      697.082      256.264      437.072        0.108        0.070       27.073       20.520        0.574      325.940       -9.515      866.110
01/01/2015  08:22:00        6.215       33.486       36.715       18.721       18.850       16.440      350.486      355.309      270.284        0.174        0.049       34.058       11.787        0.120      326.195       -9.103      866.131
01/01/2015  08:23:00       13.646       41.663       41.679       45.054       27.590       25.617     2029.876      761.222      656.227        0.355        0.172       43.841       23.620        0.290      326.258       -9.001      866.135
01/01/2015  08:24:00       73.524       44.379       23.915       25.189       23.966       23.775      634.504      574.359      565.266        0.486        0.089       85.879       12.841        0.022      325.974       -9.461      866.131
01/01/2015  08:25:00       54.169       54.374       20.997       19.575       23.230       20.793      383.183      539.625      432.337        0.384        0.068       76.752       14.115        0.034      326.010       -9.403      866.125
01/01/2015  08:26:00       76.464       54.763       11.456       25.742       14.539       19.054      662.643      211.390      363.038        0.511        0.062       94.052       16.138        0.029      325.937       -9.521      866.133
01/01/2015  08:27:00       54.104       42.121       -0.678       16.712       15.155       15.228      279.278      229.676      231.887        0.272        0.037       68.567        7.927        0.013      326.097       -9.262      866.152
01/01/2015  08:28:00       31.069       34.510        9.330       28.578       19.762       17.603      816.722      390.549      309.868        0.188        0.076       46.435        7.123        0.024      326.339       -8.870      866.177
01/01/2015  08:29:00       35.790       47.954       46.683       38.396       31.898       28.347     1474.219     1017.507      803.536        0.453        0.165       59.838       19.504        0.106      326.358       -8.840      866.204
01/01/2015  08:30:00       72.852       63.907       38.808       26.098       26.111       35.411      681.121      681.765     1253.955        0.676        0.131       96.910       27.298        0.079      326.076       -9.296      866.253
01/01/2015  08:31:00       63.065       63.819       60.660       36.268       28.759       31.266     1315.395      827.104      977.540        0.742        0.156       89.722       22.837        0.065      326.209       -9.080      866.292
01/01/2015  08:32:00       43.066       30.538       47.253       47.701       32.753       34.119     2275.341     1072.730     1164.106        0.477        0.226       52.794       35.904        0.463      326.258       -9.000      866.338
01/01/2015  08:33:00       42.895       46.223       66.633       53.475       36.230       32.869     2859.597     1312.599     1080.361        0.683        0.263       63.060       35.522        0.317      326.326       -8.891      866.361
01/01/2015  08:34:00       42.660       57.476       39.657       41.093       32.381       35.013     1688.656     1048.522     1225.937        0.533        0.198       71.578       26.834        0.141      326.381       -8.801      866.379
01/01/2015  08:35:00       16.471       82.672       95.317       40.247       46.801       26.873     1619.818     2190.371      722.132        1.036        0.227       84.297       29.708        0.124      326.423       -8.733      866.399
01/01/2015  08:36:00       66.551       93.371       80.734       52.429       35.884       37.947     2748.773     1287.690     1440.010        1.257        0.274      114.661       32.369        0.080      326.209       -9.079      866.434
01/01/2015  08:37:00       15.086       67.015       82.509       28.797       34.886       21.769      829.276     1217.025      473.896        0.702        0.126       68.692       21.580        0.099      326.264       -8.990      866.466
01/01/2015  08:38:00       -1.102       85.982      100.199       26.135       42.676       25.190      683.062     1821.281      634.543        1.029        0.157       85.989       24.911        0.084      326.320       -8.900      866.475
01/01/2015  08:39:00       84.360       79.523       59.256       54.950       35.772       39.200     3019.467     1279.629     1536.614        1.139        0.292      115.934       37.213        0.103      326.190       -9.109      866.482
01/01/2015  08:40:00       60.228       51.171       39.267       46.543       39.840       24.784     2166.210     1587.204      614.230        0.608        0.218       79.031       20.610        0.068      326.272       -8.979      866.483
01/01/2015  08:41:00       27.378       25.821       46.921       30.826       37.871       28.478      950.250     1434.205      810.985        0.341        0.160       37.633       19.592        0.271      326.573       -8.491      866.461
01/01/2015  08:42:00       40.405       65.426       71.956       47.824       43.424       26.910     2287.103     1885.624      724.154        0.799        0.245       76.897        9.860        0.016      326.528       -8.564      866.458
01/01/2015  08:43:00       49.848       86.424       85.406       41.069       38.456       30.040     1686.658     1478.899      902.422        1.066        0.203       99.770       22.521        0.051      326.315       -8.908      866.459
01/01/2015  08:44:00      109.375       99.246       61.448       48.454       27.473       35.287     2347.823      754.759     1245.149        1.497        0.217      147.691       29.301        0.039      326.157       -9.165      866.481
01/01/2015  08:45:00      113.864       51.909       27.452       40.245       36.207       34.943     1619.693     1310.959     1221.030        1.028        0.208      125.138       21.578        0.030      326.142       -9.188      866.489
01/01/2015  08:46:00      113.583       71.660       42.151       51.305       30.228       37.952     2632.216      913.732     1440.347        1.240        0.249      134.299       37.203        0.077      326.191       -9.110      866.483
01/01/2015  08:47:00       97.273       80.860       48.067       32.196       24.701       34.170     1036.571      610.118     1167.583        1.056        0.141      126.492       18.315        0.021      326.165       -9.150      866.488
01/01/2015  08:48:00       84.482       88.086       55.872       23.976       17.935       33.506      574.850      321.676     1122.668        1.002        0.101      122.050       17.016        0.019      326.213       -9.072      866.479
01/01/2015  08:49:00      105.166       67.490       26.405       31.183       19.029       23.491      972.408      362.085      551.816        0.910        0.094      124.959       18.383        0.022      326.179       -9.128      866.470
01/01/2015  08:50:00       96.373       56.571       18.081       27.502       21.133       31.040      756.347      446.611      963.465        0.749        0.108      111.750       13.318        0.014      326.270       -8.982      866.475
01/01/2015  08:51:00       90.623       51.996       13.814       53.455       42.060       31.906     2857.396     1769.048     1018.016        0.837        0.282      104.480       16.502        0.025      326.341       -8.867      866.491
01/01/2015  08:52:00       33.973       71.423       19.089       44.215       40.211       37.427     1954.947     1616.904     1400.805        0.580        0.249       79.091       37.558        0.225      326.629       -8.400      866.511
01/01/2015  08:53:00       71.255       71.354        1.473       38.533       27.463       24.573     1484.759      754.243      603.814        0.651        0.142      100.839       25.069        0.062      326.452       -8.687      866.516
01/01/2015  08:54:00       81.423       62.533       38.160       37.346       28.578       36.678     1394.692      816.706     1345.244        0.778        0.178      102.665       18.465        0.032      326.471       -8.656      866.522
01/01/2015  08:55:00       48.422       60.972       48.304       34.607       18.365       23.287     1197.638      337.256      542.269        0.524        0.104       77.861       17.453        0.050      326.571       -8.494      866.552
01/01/2015  08:56:00       10.983       49.725       73.788       38.849       44.721       31.782     1509.279     1999.949     1010.077        0.628        0.226       50.923       34.189        0.451      326.827       -8.078      866.580
01/01/2015  08:57:00      -15.887       58.187       90.348       19.358       41.717       27.254      374.721     1740.332      742.781        0.733        0.143       60.317       24.496        0.165      327.017       -7.771      866.605
01/01/2015  08:58:00        6.957       32.970       53.158       31.673       29.629       22.386     1003.150      877.881      501.114        0.317        0.119       33.696       15.686        0.217      326.914       -7.937      866.615
01/01/2015  08:59:00       62.294       51.217       16.952       46.849       33.192       32.739     2194.819     1101.741     1071.821        0.558        0.218       80.645       25.584        0.101      326.749       -8.207      866.602
01/01/2015  09:00:00       51.420       43.077        6.567       33.316       24.917       24.418     1109.968      620.846      596.230        0.343        0.116       67.079       12.202        0.033      326.696       -8.290      866.605
01/01/2015  09:01:00       -7.275        3.068       41.488       19.560       43.291       22.143      382.601     1874.123      490.318        0.226        0.137        7.896       19.199        5.912      327.165       -7.530      866.619
01/01/2015  09:02:00       -5.785       19.413       46.304       28.305       24.102       17.253      801.185      580.908      297.675        0.212        0.084       20.256        6.781        0.112      327.155       -7.547      866.644
01/01/2015  09:03:00        7.901       -0.126       47.347       22.959       33.689       20.355      527.130     1134.980      414.320        0.219        0.104        7.902       15.203        3.701      327.205       -7.466      866.654
01/01/2015  09:04:00       14.756       35.693       54.196       22.704       27.001       21.713      515.474      729.053      471.435        0.307        0.086       38.623       19.570        0.257      326.897       -7.966      866.658
01/01/2015  09:05:00       47.163      -45.607       13.829       38.201       66.566       39.970     1459.315     4431.061     1597.600        0.599        0.374       65.608       46.061        0.493      326.974       -7.841      866.668
01/01/2015  09:06:00       16.074        3.022       38.754       20.189       31.657       16.674      407.591     1002.135      278.023        0.173        0.084       16.356       17.779        1.182      327.290       -7.328      866.670
01/01/2015  09:07:00       -2.448       21.692       50.531       21.984       39.210       35.350      483.306     1537.430     1249.656        0.315        0.164       21.830       27.915        1.635      327.275       -7.352      866.671
01/01/2015  09:08:00        1.024       34.679       58.058       23.951       38.617       21.384      573.629     1491.260      457.282        0.355        0.126       34.694       20.553        0.351      327.166       -7.529      866.677
01/01/2015  09:09:00       23.992        8.171       32.545       27.612       46.839       27.105      762.416     2193.856      734.672        0.270        0.185       25.345       27.501        1.177      327.152       -7.552      866.706
01/01/2015  09:10:00       43.615       35.744       27.874       29.687       38.882       35.404      881.331     1511.791     1253.419        0.380        0.182       56.391       26.726        0.225      327.169       -7.524      866.745
01/01/2015  09:11:00       71.927       99.654       72.206       49.910       33.499       32.880     2490.977     1122.209     1081.095        1.251        0.235      122.900       24.055        0.038      326.866       -8.016      866.754
01/01/2015  09:12:00       43.841       33.976       36.418       39.828       36.085       37.179     1586.264     1302.144     1382.299        0.434        0.214       55.465       27.190        0.240      326.958       -7.866      866.746
01/01/2015  09:13:00       19.188       56.706       72.105       38.150       40.193       22.609     1455.400     1615.506      511.185        0.618        0.179       59.865       25.440        0.181      327.233       -7.420      866.713
01/01/2015  09:14:00       67.609       74.204       41.044       43.773       33.882       34.637     1916.108     1147.969     1199.739        0.801        0.213      100.385       28.119        0.078      326.839       -8.060      866.683
01/01/2015  09:15:00      111.012       75.874       37.957       31.540       25.395       27.462      994.777      644.915      754.173        1.096        0.120      134.464       20.087        0.022      326.737       -8.225      866.671
01/01/2015  09:16:00       68.707       72.483       58.229       42.303       38.815       35.994     1789.543     1506.588     1295.545        0.898        0.230       99.873       29.253        0.086      326.912       -7.940      866.682
01/01/2015  09:17:00       59.910       84.494       67.503       43.318       37.362       33.834     1876.427     1395.887     1144.731        0.985        0.221      103.578       30.633        0.087      327.032       -7.746      866.677
01/01/2015  09:18:00       72.775       71.741       40.360       54.887       36.452       39.576     3012.614     1328.731     1566.287        0.899        0.295      102.190       33.551        0.108      326.970       -7.848      866.664
01/01/2015  09:19:00       44.269       67.478       63.680       47.748       32.856       34.896     2279.845     1079.518     1217.698        0.757        0.229       80.703       23.905        0.088      327.329       -7.264      866.633
01/01/2015  09:20:00       68.089       94.552       65.685       38.855       28.595       34.770     1509.676      817.668     1208.984        1.071        0.177      116.517       22.012        0.036      327.179       -7.507      866.604
01/01/2015  09:21:00        2.930       50.868       69.460       17.576       38.791       25.760      308.902     1504.736      663.589        0.495        0.124       50.952       22.964        0.203      327.231       -7.422      866.581
01/01/2015  09:22:00       58.388       76.159       56.100       59.865       46.286       33.897     3583.864     2142.374     1149.012        0.961        0.344       95.965       37.513        0.153      327.157       -7.544      866.571
01/01/2015  09:23:00       18.217       20.910       42.274       35.485       52.250       33.908     1259.189     2730.077     1149.719        0.385        0.257       27.732       26.812        0.935      327.468       -7.037      866.578
01/01/2015  09:24:00       32.293       61.823       62.923       45.704       38.616       26.264     2088.831     1491.185      689.818        0.655        0.213       69.749       13.267        0.036      327.403       -7.144      866.591
01/01/2015  09:25:00       73.013       74.002       51.850       44.306       41.911       40.370     1963.061     1756.525     1629.758        0.942        0.267      103.957       23.742        0.052      327.305       -7.303      866.602
01/01/2015  09:26:00       79.563       67.389        5.823       39.074       30.182       42.184     1526.742      910.957     1779.512        0.756        0.211      104.267        8.783        0.007      327.255       -7.385      866.621
01/01/2015  09:27:00       32.744       60.086       22.618       38.287       38.376       34.321     1465.857     1472.682     1177.932        0.465        0.206       68.428       24.314        0.126      327.621       -6.790      866.637
01/01/2015  09:28:00       63.806       74.408       23.980       53.370       41.463       36.589     2848.369     1719.206     1338.785        0.804        0.295       98.019       35.459        0.131      327.597       -6.828      866.658
01/01/2015  09:29:00        8.510       66.609       47.461       39.071       49.356       55.697     1526.534     2436.063     3102.190        0.691        0.353       67.150       36.571        0.297      327.662       -6.723      866.681
01/01/2015  09:30:00       28.900       99.459       94.024       51.807       37.328       45.128     2683.992     1393.413     2036.566        1.284        0.306      103.573       44.193        0.182      327.183       -7.501      866.693
01/01/2015  09:31:00       49.580       44.059       42.470       36.358       26.634       28.287     1321.940      709.361      800.177        0.452        0.142       66.327       23.483        0.125      327.337       -7.251      866.709
01/01/2015  09:32:00       53.308       57.269       61.657       68.579       48.683       46.312     4703.041     2370.060     2144.823        0.957        0.461       78.240       38.651        0.244      327.437       -7.087      866.717
01/01/2015  09:33:00      132.989       99.605       41.940       73.250       34.255       43.532     5365.547     1173.402     1895.066        1.890        0.422      166.154       32.404        0.038      327.332       -7.260      866.751
01/01/2015  09:34:00       83.975       77.884       58.350       40.526       29.249       40.575     1642.363      855.488     1646.319        1.033        0.207      114.532       24.678        0.046      327.377       -7.186      866.768
01/01/2015  09:35:00       30.827       69.496       71.680       32.388       36.242       25.694     1048.996     1313.497      660.160        0.697        0.151       76.026       11.428        0.023      327.404       -7.142      866.780
01/01/2015  09:36:00      -12.717       52.159       79.639       17.211       41.096       29.741      296.219     1688.913      884.505        0.605        0.143       53.687       28.407        0.280      327.854       -6.411      866.801
01/01/2015  09:37:00        2.893       73.322       88.369       25.601       35.951       32.078      655.400     1292.497     1028.975        0.808        0.149       73.379       27.311        0.139      327.544       -6.915      866.825
01/01/2015  09:38:00       34.154       60.465       61.997       49.050       47.201       29.195     2405.866     2227.938      852.374        0.708        0.274       69.444       26.884        0.150      327.580       -6.856      866.858
01/01/2015  09:39:00       57.333       49.833       46.608       59.831       39.966       35.568     3579.787     1597.269     1265.079        0.719        0.322       75.963       34.300        0.204      327.753       -6.574      866.866
01/01/2015  09:40:00       44.549       81.269       -9.749       63.957       45.396       27.634     4090.503     2060.838      763.644        0.780        0.346       92.679       16.267        0.031      327.235       -7.416      866.861
01/01/2015  09:41:00       17.353       21.575       11.427       30.660       31.581       19.824      940.036      997.331      393.001        0.161        0.117       27.688       12.924        0.218      327.689       -6.679      866.849
01/01/2015  09:42:00       23.506       46.182       59.587       57.342       53.692       47.226     3288.098     2882.808     2230.258        0.732        0.420       51.820       42.160        0.662      327.916       -6.309      866.832
01/01/2015  09:43:00       44.618       74.392       65.851       42.583       35.200       34.587     1813.303     1239.012     1196.253        0.805        0.212       86.746       31.185        0.129      327.578       -6.859      866.821
01/01/2015  09:44:00       37.620       48.297       80.473       57.968       47.381       44.565     3360.256     2244.992     1986.035        0.891        0.380       61.220       44.535        0.529      327.684       -6.686      866.802
01/01/2015  09:45:00       16.358       -0.204       54.919       35.958       71.371       37.559     1292.997     5093.881     1410.656        0.554        0.390       16.359       35.227        4.637      327.765       -6.555      866.796
01/01/2015  09:46:00       31.130       68.547       65.081       61.598       55.377       36.583     3794.372     3066.643     1338.334        0.905        0.410       75.285       26.489        0.124      327.778       -6.533      866.813
01/01/2015  09:47:00       72.729       64.580       72.963       60.258       66.386       42.807     3630.972     4407.088     1832.460        1.233        0.494       97.263       41.632        0.183      327.578       -6.859      866.843
01/01/2015  09:48:00       86.115       83.483       34.772       25.301       19.456       44.048      640.158      378.550     1940.239        0.928        0.148      119.939       14.344        0.014      327.271       -7.358      866.860
01/01/2015  09:49:00       64.586      -17.564       25.354       43.749       67.546       33.543     1913.994     4562.497     1125.121        0.636        0.380       66.932       28.232        0.178      327.626       -6.782      866.857
01/01/2015  09:50:00       40.108       14.124       31.975       46.154       49.214       31.395     2130.168     2422.045      985.662        0.418        0.277       42.522       13.082        0.095      327.817       -6.471      866.847
01/01/2015  09:51:00       23.174      -20.323       32.981       30.442       49.664       37.938      926.708     2466.499     1439.274        0.343        0.242       30.823       28.905        0.879      327.837       -6.439      866.844
01/01/2015  09:52:00       14.748      -39.038       32.741       33.358       71.633       29.805     1112.745     5131.310      888.337        0.497        0.357       41.731       33.677        0.651      327.850       -6.418      866.822
01/01/2015  09:53:00       49.724       40.835       36.661       43.471       40.492       33.338     1889.718     1639.575     1111.450        0.506        0.232       64.343       20.141        0.098      327.712       -6.640      866.815
01/01/2015  09:54:00      -10.142      -12.418       22.276       28.991       32.988       25.986      840.457     1088.179      675.280        0.168        0.130       16.033       21.752        1.841      327.992       -6.187      866.813
01/01/2015  09:55:00       32.173       33.226       51.709       46.199       35.931       29.967     2134.334     1291.062      898.002        0.457        0.216       46.250       19.705        0.182      328.101       -6.008      866.799
01/01/2015  09:56:00       16.420      -11.561       25.649       42.778       69.150       46.653     1829.969     4781.666     2176.512        0.492        0.439       20.082       29.181        2.112      328.069       -6.060      866.791
01/01/2015  09:57:00       39.315       29.763       67.042       35.731       70.206       38.777     1276.688     4928.945     1503.677        0.732        0.385       49.310       42.835        0.755      328.001       -6.172      866.785
01/01/2015  09:58:00       -2.455        9.157       40.815       29.687       45.715       33.769      881.321     2089.848     1140.331        0.293        0.206        9.480       28.670        9.146      328.127       -5.967      866.766
01/01/2015  09:59:00       36.336      -30.905       29.623       59.886       83.684       68.280     3586.371     7002.969     4662.214        0.920        0.763       47.701       65.445        1.882      327.983       -6.201      866.741
01/01/2015  10:00:00       41.959      -40.620       36.957       32.041       62.031       36.744     1026.604     3847.872     1350.128        0.550        0.311       58.400       37.727        0.417      327.711       -6.642      866.709
01/01/2015  10:01:00       53.571       15.698       40.535       44.934       45.897       24.744     2019.044     2106.575      612.243        0.475        0.237       55.824       24.044        0.186      327.818       -6.469      866.676
01/01/2015  10:02:00       23.408      -26.061       25.621       42.970       56.322       55.031     1846.390     3172.203     3028.449        0.496        0.402       35.030       44.410        1.607      327.884       -6.361      866.684
01/01/2015  10:03:00       24.730      -50.278       18.108       47.269       48.217       44.861     2234.323     2324.848     2012.515        0.502        0.329       56.031       27.443        0.240      328.119       -5.979      866.684
01/01/2015  10:04:00       64.115      -26.188       25.475       54.551       62.157       48.460     2975.865     3863.532     2348.414        0.731        0.459       69.257       54.214        0.613      328.147       -5.932      866.673
01/01/2015  10:05:00       29.884      -39.133       18.339       22.187       52.221       35.991      492.250     2726.993     1295.366        0.364        0.226       49.239       35.379        0.516      328.008       -6.159      866.633
01/01/2015  10:06:00       23.998       -5.278       24.201       27.419       37.064       36.467      751.813     1373.758     1329.855        0.232        0.173       24.572       32.745        1.776      327.959       -6.240      866.570
01/01/2015  10:07:00       10.052        5.491       57.105       44.941       56.699       29.141     2019.685     3214.729      849.207        0.474        0.304       11.454       24.917        4.732      328.330       -5.635      866.524
01/01/2015  10:08:00       49.679      -30.302       27.341       43.508       94.150       66.399     1892.943     8864.210     4408.811        0.965        0.758       58.191       74.702        1.648      328.040       -6.109      866.497
01/01/2015  10:09:00       35.867       -2.901       39.271       41.910       44.322       35.809     1756.446     1964.397     1282.305        0.392        0.250       35.985       34.423        0.915      328.345       -5.612      866.478
01/01/2015  10:10:00       14.198       81.433      102.778       43.202       53.358       32.672     1866.438     2847.117     1067.436        1.159        0.289       82.661       33.696        0.166      328.196       -5.854      866.461
01/01/2015  10:11:00       35.347       16.242       62.472       50.364       66.913       54.420     2536.571     4477.392     2961.516        0.769        0.499       38.900       54.465        1.960      328.330       -5.635      866.449
01/01/2015  10:12:00       -7.192       18.889       48.966       32.246       68.490       49.588     1039.820     4690.827     2458.932        0.550        0.409       20.211       43.013        4.529      328.340       -5.619      866.446
01/01/2015  10:13:00       73.112     -113.630      -18.089       69.922       53.864       36.786     4889.147     2901.331     1353.217        1.386        0.457      135.119       34.646        0.066      328.038       -6.113      866.434
01/01/2015  10:14:00       38.875      -94.681       -9.128       36.028       59.606       41.447     1298.010     3552.862     1717.892        0.856        0.328      102.351       41.143        0.162      328.112       -5.990      866.418
01/01/2015  10:15:00       27.292       63.395       94.058       56.533       64.997       33.523     3195.969     4224.627     1123.823        1.108        0.427       69.020       33.989        0.243      328.302       -5.681      866.431
01/01/2015  10:16:00       68.902       63.877       59.613       56.762       37.677       27.536     3221.897     1419.530      758.255        0.889        0.270       93.956       16.334        0.030      328.001       -6.171      866.472
01/01/2015  10:17:00       39.951       45.763       46.150       76.420       47.864       34.853     5840.013     2290.918     1214.702        0.758        0.467       60.748       29.666        0.238      328.400       -5.520      866.525
01/01/2015  10:18:00       38.735       58.743       79.922       65.634       52.302       38.599     4307.758     2735.479     1489.906        0.993        0.427       70.364       33.919        0.232      328.314       -5.662      866.536
01/01/2015  10:19:00       32.047       83.228       76.778       49.685       47.628       43.619     2468.610     2268.382     1902.577        1.024        0.332       89.184       29.240        0.107      328.010       -6.157      866.484
01/01/2015  10:20:00      -22.228       21.090       48.216       24.289       23.997       17.574      589.941      575.852      308.847        0.237        0.074       30.641       10.890        0.126      328.598       -5.198      866.400
01/01/2015  10:21:00       13.458       33.745       53.903       38.339       37.537       23.344     1469.915     1409.051      544.947        0.382        0.171       36.330       23.947        0.434      328.407       -5.509      866.377
01/01/2015  10:22:00       -3.130       12.627       30.511       40.437       27.208       26.698     1635.153      740.266      712.768        0.209        0.154       13.009       14.039        1.165      328.789       -4.887      866.392
01/01/2015  10:23:00       15.587       31.852       42.140       40.351       66.182       34.004     1628.226     4380.073     1156.282        0.510        0.358       35.461       42.609        1.444      328.552       -5.273      866.449
01/01/2015  10:24:00       -6.863       34.538       69.947       30.318       42.226       28.930      919.189     1783.056      836.970        0.484        0.177       35.213       25.175        0.511      328.759       -4.936      866.477
01/01/2015  10:25:00        0.188       16.833       23.293       29.087       32.821       36.677      846.071     1077.246     1345.175        0.205        0.163       16.834       24.357        2.094      328.661       -5.096      866.470
01/01/2015  10:26:00       24.942       34.001       25.832       41.823       62.441       32.589     1749.182     3898.850     1062.066        0.458        0.336       42.168       19.098        0.205      328.709       -5.017      866.423
01/01/2015  10:27:00      125.095       85.944       20.874       30.499       29.305       27.742      930.208      858.801      769.634        1.301        0.128      151.773       18.477        0.015      327.961       -6.236      866.383
01/01/2015  10:28:00      117.072       71.925       -4.278       47.893       36.946       24.225     2293.709     1365.040      586.865        1.157        0.212      137.401       13.627        0.010      328.093       -6.022      866.344
01/01/2015  10:29:00      146.241       91.341       11.680       53.056       35.225       41.012     2814.909     1240.767     1681.973        1.780        0.287      172.423       28.451        0.027      328.189       -5.867      866.319
01/01/2015  10:30:00      128.616       86.891       22.993       41.937       31.957       44.417     1758.748     1021.271     1972.862        1.469        0.238      155.216       34.325        0.049      328.153       -5.923      866.294
01/01/2015  10:31:00       60.143       72.936       44.482       49.213       46.584       43.646     2421.939     2170.083     1905.004        0.870        0.325       94.535       28.244        0.089      328.437       -5.461      866.253
01/01/2015  10:32:00       91.245      105.705       59.650       54.703       41.840       41.988     2992.463     1750.568     1762.991        1.478        0.325      139.640       29.061        0.043      328.242       -5.778      866.222
01/01/2015  10:33:00       24.886       50.721       65.331       39.988       39.254       22.801     1599.053     1540.861      519.906        0.556        0.183       56.497       16.644        0.087      328.696       -5.038      866.211
01/01/2015  10:34:00       15.209       53.579       89.301       40.035       37.619       24.142     1602.780     1415.170      582.854        0.734        0.180       55.696       23.150        0.173      328.685       -5.057      866.206
01/01/2015  10:35:00       75.046       45.554       53.071       31.139       48.165       39.152      969.625     2319.826     1532.871        0.767        0.241       87.790       35.053        0.159      328.301       -5.682      866.207
01/01/2015  10:36:00       55.615       31.803       57.832       32.476       27.739       29.580     1054.660      769.450      874.977        0.507        0.135       64.066       12.589        0.039      328.360       -5.588      866.189
01/01/2015  10:37:00       23.006       21.125       19.755       38.685       13.088       31.822     1496.492      171.306     1012.619        0.202        0.134       31.234       24.995        0.640      328.376       -5.560      866.160
01/01/2015  10:38:00       -5.043       30.379       41.007       17.177       21.007       26.574      295.050      441.312      706.159        0.204        0.072       30.795       14.405        0.219      328.767       -4.924      866.124
01/01/2015  10:39:00       20.269       50.950       70.758       41.727       35.963       21.839     1741.173     1293.363      476.958        0.576        0.176       54.834       13.216        0.058      328.736       -4.973      866.112
01/01/2015  10:40:00      148.479      103.639       13.046       34.093       37.530       37.699     1162.309     1408.495     1421.193        1.847        0.200      181.072       21.390        0.014      328.251       -5.765      866.089
01/01/2015  10:41:00       75.820       94.641       30.491       62.286       57.546       38.504     3879.522     3311.568     1482.593        1.215        0.434      121.267       10.962        0.008      328.599       -5.196      866.071
01/01/2015  10:42:00       18.845        6.192       44.071       42.745       56.422       34.366     1827.171     3183.407     1181.028        0.426        0.310       19.836       34.874        3.091      329.142       -4.311      866.035
01/01/2015  10:43:00       78.923       61.086       21.416       35.984       42.220       31.491     1294.872     1782.507      991.660        0.724        0.203       99.802       26.101        0.068      328.354       -5.595      866.018
01/01/2015  10:44:00       78.639       80.948        8.673       33.657       48.075       35.642     1132.777     2311.216     1270.377        0.876        0.236      112.857       20.801        0.034      328.274       -5.725      866.008
01/01/2015  10:45:00       93.697       63.719       27.458       51.864       42.991       42.363     2689.868     1848.259     1794.640        0.996        0.317      113.310       28.324        0.062      328.601       -5.194      866.006
01/01/2015  10:46:00        7.721      -33.238       31.329       56.080       82.539       38.849     3144.956     6812.689     1509.239        0.680        0.573       34.123       36.205        1.126      328.998       -4.546      865.987
01/01/2015  10:47:00       48.584      -36.415       44.942       47.167      126.845       70.977     2224.716    16089.774     5037.788        1.452        1.168       60.716       86.625        2.036      328.797       -4.873      865.967
01/01/2015  10:48:00       78.444      109.688       89.611       61.747       38.388       46.608     3812.644     1473.630     2172.298        1.684        0.373      134.851       30.588        0.051      328.616       -5.170      865.944
01/01/2015  10:49:00       65.483       45.761       25.934       47.484       26.649       35.359     2254.754      710.168     1250.264        0.563        0.211       79.888       21.688        0.074      328.494       -5.366      865.925
01/01/2015  10:50:00       80.989       59.314        8.537       29.724       26.654       28.548      883.538      710.417      814.971        0.628        0.120      100.386       19.137        0.036      328.651       -5.111      865.895
01/01/2015  10:51:00       65.235       68.183       35.301       52.206       37.241       49.114     2725.466     1386.881     2412.214        0.834        0.326       94.364       34.307        0.132      329.046       -4.467      865.871
01/01/2015  10:52:00       60.058       79.929       48.998       48.678       43.218       36.549     2369.516     1867.774     1335.801        0.898        0.279       99.978       26.987        0.073      329.122       -4.343      865.837
01/01/2015  10:53:00       33.092       -0.591       41.910       49.970       83.441       41.054     2496.954     6962.393     1685.447        0.700        0.557       33.098       47.031        2.019      329.085       -4.404      865.806
01/01/2015  10:54:00       11.570      -31.749       41.847       36.553       80.157       37.587     1336.114     6425.191     1412.754        0.603        0.459       33.792       44.137        1.706      329.211       -4.197      865.778
01/01/2015  10:55:00        8.110      -15.917       28.691       34.567       49.125       40.464     1194.890     2413.287     1637.341        0.319        0.262       17.864       31.886        3.186      329.119       -4.347      865.761
01/01/2015  10:56:00        7.110       27.594       62.662       29.917       31.209       31.191      895.041      974.024      972.891        0.379        0.142       28.496       23.221        0.664      329.247       -4.138      865.739
01/01/2015  10:57:00       33.740       55.009       47.271       33.403       29.025       34.409     1115.775      842.427     1183.986        0.477        0.157       64.532       22.149        0.118      328.726       -4.990      865.723
01/01/2015  10:58:00       77.513       45.978       62.758       62.097       61.005       47.291     3856.064     3721.565     2236.445        1.094        0.491       90.123       45.072        0.250      328.794       -4.879      865.702
01/01/2015  10:59:00       62.652       36.031       69.207       58.023       63.659       51.733     3366.652     4052.511     2676.315        1.005        0.505       72.273       48.449        0.449      328.788       -4.889      865.683
01/01/2015  11:00:00       80.393       85.442       22.757       64.577       45.662       50.219     4170.176     2085.025     2521.970        1.153        0.439      117.317       28.967        0.061      328.779       -4.903      865.661
01/01/2015  11:01:00       80.412       51.433        9.426       41.345       33.990       35.979     1709.380     1155.354     1294.487        0.668        0.208       95.454       25.788        0.073      328.684       -5.057      865.632
01/01/2015  11:02:00       45.398       26.584       10.613       46.799       46.149       28.646     2190.175     2129.688      820.602        0.401        0.257       52.609       14.641        0.077      329.153       -4.292      865.608
01/01/2015  11:03:00       34.509       -3.168       17.730       47.998       40.736       36.712     2303.829     1659.401     1347.775        0.341        0.266       34.654       24.755        0.510      329.305       -4.044      865.595
01/01/2015  11:04:00       31.138       12.210       56.327       60.602       92.663       65.476     3672.586     8586.446     4287.053        1.042        0.827       33.446       73.446        4.822      329.176       -4.255      865.569
01/01/2015  11:05:00       50.590      -73.315       -2.877       50.880       52.761       42.824     2588.758     2783.708     1833.885        0.757        0.360       89.076       35.909        0.163      328.977       -4.579      865.569
01/01/2015  11:06:00      117.292        1.948       36.326       61.753       96.894       47.751     3813.459     9388.410     2280.164        1.528        0.774      117.308       55.614        0.225      328.777       -4.907      865.553
01/01/2015  11:07:00       94.583       68.948       16.602       62.556       37.507       36.716     3913.295     1406.765     1348.069        1.032        0.333      117.046       27.531        0.055      328.591       -5.209      865.530
01/01/2015  11:08:00       53.577      -35.677       30.682       48.239      100.043       40.606     2327.008    10008.598     1648.809        0.953        0.699       64.368       45.883        0.508      328.986       -4.566      865.494
01/01/2015  11:09:00       46.106      -39.057       13.346       64.020       69.651       35.824     4098.513     4851.290     1283.377        0.703        0.512       60.425       43.053        0.508      328.843       -4.798      865.484
01/01/2015  11:10:00       58.540      -61.895       -9.013       64.994       83.684       50.727     4224.205     7003.087     2573.276        1.057        0.690       85.193       51.814        0.370      329.099       -4.380      865.465
01/01/2015  11:11:00       58.937      -69.703        2.576       64.469       62.385       58.364     4156.281     3891.856     3406.317        0.989        0.573       91.280       53.577        0.345      329.098       -4.383      865.460
01/01/2015  11:12:00       32.728      -35.400       36.052       41.418       72.617       43.035     1715.465     5273.283     1851.987        0.623        0.442       48.211       47.767        0.982      329.159       -4.283      865.454
01/01/2015  11:13:00       20.729      -32.648       36.759       44.310       79.605       50.499     1963.335     6336.927     2550.127        0.685        0.543       38.673       50.934        1.735      329.501       -3.724      865.445
01/01/2015  11:14:00       58.018      -19.644       35.422       52.455       61.506       47.493     2751.569     3782.983     2255.587        0.690        0.440       61.253       48.381        0.624      329.150       -4.297      865.444
01/01/2015  11:15:00       54.049      -38.487       23.358       43.230       73.639       49.133     1868.833     5422.698     2414.098        0.732        0.485       66.351       54.308        0.670      329.292       -4.066      865.425
01/01/2015  11:16:00       35.943        6.405       51.737       45.866       95.068       47.865     2103.680     9037.843     2291.082        0.872        0.672       36.509       51.764        2.010      329.150       -4.298      865.391
01/01/2015  11:17:00       11.365       74.879       73.700       33.241       34.912       31.280     1104.945     1218.816      978.410        0.723        0.165       75.737       24.685        0.106      329.031       -4.492      865.364
01/01/2015  11:18:00       34.976       58.891       65.808       37.248       35.092       29.481     1387.403     1231.429      869.109        0.625        0.174       68.494       20.237        0.087      329.022       -4.506      865.359
01/01/2015  11:19:00       15.983       49.384       47.176       45.738       49.990       32.440     2091.993     2498.956     1052.345        0.528        0.282       51.905       33.438        0.415      329.107       -4.368      865.334
01/01/2015  11:20:00       50.056     -106.884       18.839       84.600       80.798       52.569     7157.185     6528.348     2763.527        1.536        0.822      118.025       52.206        0.196      329.118       -4.350      865.298
01/01/2015  11:21:00       36.040        8.062       60.334       53.925       94.521       53.257     2907.928     8934.305     2836.278        0.984        0.734       36.931       52.281        2.004      329.282       -4.082      865.266
01/01/2015  11:22:00       38.127       96.731      100.278       61.093       45.146       29.533     3732.375     2038.180      872.179        1.375        0.332      103.973       14.170        0.019      329.256       -4.124      865.235
01/01/2015  11:23:00       84.475       64.296       30.247       53.294       45.154       42.067     2840.258     2038.900     1769.615        0.942        0.332      106.160       15.507        0.021      329.026       -4.501      865.220
01/01/2015  11:24:00       58.582      -33.657        6.433       36.851       32.939       38.069     1358.011     1084.978     1449.277        0.425        0.195       67.562       26.543        0.154      329.174       -4.258      865.211
01/01/2015  11:25:00       42.390      -19.174       -7.012       26.214       28.344       31.275      687.168      803.377      978.096        0.234        0.123       46.524       21.653        0.217      328.918       -4.676      865.183
01/01/2015  11:26:00       25.462      -65.012      -11.014       45.236       59.589       38.333     2046.278     3550.869     1469.411        0.603        0.353       69.820       25.734        0.136      329.205       -4.207      865.155
01/01/2015  11:27:00       22.590       51.218       46.649       55.367       47.022       42.931     3065.469     2211.074     1843.047        0.621        0.356       55.979       37.596        0.451      329.650       -3.480      865.133
01/01/2015  11:28:00       77.719       77.570       57.173       64.262       38.531       35.210     4129.646     1484.639     1239.758        1.109        0.343      109.806       29.795        0.074      329.454       -3.802      865.117
01/01/2015  11:29:00       44.497       95.855      104.845       52.318       53.563       27.426     2737.122     2869.029      752.192        1.426        0.318      105.680       24.757        0.055      329.436       -3.831      865.107
01/01/2015  11:30:00       52.546       14.374       23.503       36.279       61.461       49.573     1316.138     3777.408     2457.497        0.553        0.378       54.476       32.803        0.363      329.368       -3.941      865.090
01/01/2015  11:31:00       -2.897       20.414       54.708       23.938       39.437       27.259      573.046     1555.315      743.053        0.314        0.144       20.618       25.685        1.552      329.671       -3.444      865.065
01/01/2015  11:32:00       -5.806       11.880       41.112       24.028       31.796       31.723      577.354     1010.963     1006.331        0.223        0.130       13.223       27.090        4.197      329.874       -3.115      865.042
01/01/2015  11:33:00       19.255      -12.293       30.678       39.551       61.319       41.103     1564.270     3760.057     1689.428        0.424        0.351       22.844       35.266        2.383      329.871       -3.119      865.005
01/01/2015  11:34:00       32.173       42.090       46.549       31.916       35.711       29.106     1018.626     1275.289      847.168        0.406        0.157       52.978       24.486        0.214      329.653       -3.475      865.000
01/01/2015  11:35:00       17.656       17.592       30.365       43.188       46.833       45.621     1865.194     2193.336     2081.259        0.384        0.307       24.924       33.131        1.767      329.680       -3.431      864.979
01/01/2015  11:36:00       18.733       26.937       31.977       42.039       50.759       43.039     1767.280     2576.487     1852.342        0.415        0.310       32.811       40.941        1.557      329.856       -3.143      864.959
01/01/2015  11:37:00       43.271       69.816       25.397       52.652       42.295       44.402     2772.257     1788.828     1971.521        0.696        0.327       82.138       25.179        0.094      329.660       -3.464      864.940
01/01/2015  11:38:00       64.241       67.613       -9.981       53.745       37.057       33.350     2888.505     1373.189     1112.243        0.708        0.269       93.265       23.264        0.062      329.412       -3.869      864.926
01/01/2015  11:39:00       64.719       68.190       42.974       66.819       50.462       62.199     4464.725     2546.434     3868.718        1.078        0.544       94.013       39.761        0.179      329.545       -3.652      864.917
01/01/2015  11:40:00      125.788       86.929       46.690       52.325       46.752       57.159     2737.898     2185.743     3267.136        1.687        0.410      152.903       47.284        0.096      329.099       -4.380      864.907
01/01/2015  11:41:00      135.325      103.877       15.671       39.445       29.420       37.026     1555.892      865.558     1370.959        1.657        0.190      170.597       29.378        0.030      328.988       -4.563      864.890
01/01/2015  11:42:00       94.285       48.934        0.743       36.954       47.579       30.454     1365.606     2263.800      927.476        0.792        0.228      106.227       19.729        0.034      329.208       -4.203      864.855
01/01/2015  11:43:00       36.842       47.630        6.597       44.759       34.724       28.211     2003.392     1205.745      795.869        0.384        0.200       60.216       21.567        0.128      329.480       -3.759      864.828
01/01/2015  11:44:00       10.522       29.573       10.981       40.008       39.573       34.787     1600.667     1566.002     1210.162        0.274        0.219       31.389       26.413        0.708      329.698       -3.402      864.805
01/01/2015  11:45:00       71.412       66.111        6.374       44.579       35.485       34.506     1987.255     1259.195     1190.698        0.697        0.222       97.315       24.096        0.061      329.469       -3.777      864.794
01/01/2015  11:46:00       66.124       96.212      -19.715       33.927       31.278       34.638     1151.066      978.322     1199.805        0.867        0.166      116.744       23.837        0.042      329.502       -3.722      864.796
01/01/2015  11:47:00       16.897       66.718        8.358       49.174       38.731       25.209     2418.101     1500.058      635.490        0.468        0.228       68.824       19.855        0.083      329.649       -3.482      864.802
01/01/2015  11:48:00       45.162       33.878       -4.391       40.887       29.733       22.416     1671.729      884.069      502.472        0.313        0.153       56.456       13.488        0.057      329.524       -3.686      864.797
01/01/2015  11:49:00       35.662       35.349       17.146       35.149       40.085       34.499     1235.419     1606.781     1190.213        0.342        0.202       50.213       20.611        0.168      329.645       -3.486      864.771
01/01/2015  11:50:00       50.681       36.837        6.222       43.727       33.570       38.658     1912.033     1126.955     1494.479        0.425        0.227       62.655       22.433        0.128      329.651       -3.477      864.760
01/01/2015  11:51:00      101.740       69.671       12.806       61.803       37.424       39.522     3819.640     1400.523     1561.978        1.107        0.339      123.309       26.961        0.048      329.543       -3.654      864.737
01/01/2015  11:52:00      149.502       97.787       -5.355       31.269       25.994       25.662      977.762      675.689      658.543        1.713        0.116      178.642       15.435        0.007      329.217       -4.187      864.734
01/01/2015  11:53:00       59.764       60.923       43.663       50.600       35.704       20.197     2560.389     1274.792      407.903        0.672        0.212       85.342       14.058        0.027      329.583       -3.588      864.737
01/01/2015  11:54:00       57.318       51.600       24.504       40.927       26.338       33.258     1675.057      693.694     1106.088        0.501        0.174       77.123       28.093        0.133      329.573       -3.605      864.738
01/01/2015  11:55:00       46.199       84.611       78.213       63.579       38.965       41.598     4042.349     1518.261     1730.382        1.135        0.365       96.402       41.041        0.181      329.840       -3.169      864.726
01/01/2015  11:56:00       84.161       38.777       24.783       50.929       40.020       35.190     2593.737     1601.608     1238.347        0.732        0.272       92.665       32.473        0.123      329.539       -3.661      864.720
01/01/2015  11:57:00      109.119      104.474        2.862       55.101       53.281       33.663     3036.090     2838.905     1133.210        1.492        0.350      151.069       19.566        0.017      329.468       -3.777      864.704
01/01/2015  11:58:00       89.648       54.511       30.832       45.022       41.523       30.591     2026.938     1724.130      935.817        0.832        0.234      104.920       15.874        0.023      329.636       -3.502      864.697
01/01/2015  11:59:00       57.969       55.851       11.302       41.892       34.048       29.070     1754.906     1159.278      845.042        0.518        0.188       80.496       25.165        0.098      329.747       -3.320      864.702
01/01/2015  12:00:00       29.357       89.225      -12.631       39.670       31.677       25.356     1573.722     1003.414      642.915        0.610        0.161       93.931       14.728        0.025      329.962       -2.969      864.691
01/01/2015  12:01:00       10.431       35.312       33.149       34.924       34.911       30.684     1219.702     1218.762      941.522        0.292        0.169       36.821       21.004        0.325      330.381       -2.281      864.685
01/01/2015  12:02:00       47.289       65.630        1.278       46.095       40.630       29.059     2124.755     1650.775      844.410        0.558        0.231       80.893       24.041        0.088      329.947       -2.993      864.668
01/01/2015  12:03:00       51.881       47.282       -0.866       36.424       31.587       34.393     1326.685      997.754     1182.907        0.422        0.175       70.194       25.118        0.128      329.803       -3.230      864.643
01/01/2015  12:04:00       81.325       66.695       15.299       34.748       37.341       32.564     1207.444     1394.336     1060.442        0.748        0.183      105.176       16.488        0.025      329.707       -3.386      864.617
01/01/2015  12:05:00       20.006       50.938       71.230       47.082       57.216       50.347     2216.716     3273.627     2534.826        0.805        0.401       54.726       44.566        0.663      330.127       -2.698      864.595
01/01/2015  12:06:00       74.185       89.128       67.815       79.750       56.559       63.714     6359.985     3198.918     4059.487        1.583        0.681      115.962       63.015        0.295      329.895       -3.078      864.594
01/01/2015  12:07:00       71.133       73.663       -8.979       52.989       20.341       34.524     2807.875      413.769     1191.901        0.749        0.221      102.402       26.093        0.065      329.721       -3.363      864.590
01/01/2015  12:08:00       64.403       47.750        4.450       48.673       27.744       25.738     2369.072      769.739      662.444        0.512        0.190       80.173       11.962        0.022      329.929       -3.023      864.583
01/01/2015  12:09:00      116.673       84.632        3.494       26.141       29.940       24.079      683.366      896.387      579.779        1.147        0.108      144.137       11.873        0.007      329.586       -3.585      864.582
01/01/2015  12:10:00       58.180       18.614       -0.203       44.744       20.100       23.001     2002.055      403.993      529.055        0.333        0.147       61.085       16.276        0.071      329.886       -3.093      864.581
01/01/2015  12:11:00       11.013       17.805       18.511       15.603       13.962       10.945      243.468      194.925      119.803        0.067        0.028       20.936        6.869        0.108      330.329       -2.367      864.567
01/01/2015  12:12:00        5.481       25.907       23.733       16.628       16.312       12.965      276.484      266.097      168.101        0.099        0.036       26.480       11.538        0.190      330.177       -2.615      864.570
01/01/2015  12:13:00       36.823       39.965       20.803       31.276       23.235       21.281      978.188      539.844      452.874        0.268        0.099       54.343        7.828        0.021      330.134       -2.688      864.553
01/01/2015  12:14:00       16.501       -9.413       28.215       22.998       21.123       24.352      528.923      446.176      593.024        0.136        0.078       18.997       15.799        0.692      330.456       -2.160      864.563
01/01/2015  12:15:00       38.506      -87.567        6.662       47.875       71.133       41.354     2292.025     5059.888     1710.174        0.913        0.453       95.660       35.724        0.139      330.318       -2.385      864.571
01/01/2015  12:16:00       30.911      -79.486       25.548       46.105      105.509       35.717     2125.704    11132.159     1275.685        1.123        0.727       85.285       41.031        0.231      330.361       -2.315      864.572
01/01/2015  12:17:00       28.645       40.944       23.720       34.565       29.582       29.882     1194.741      875.117      892.913        0.301        0.148       49.969       10.101        0.041      330.256       -2.487      864.596
01/01/2015  12:18:00        9.687       33.119       33.876       21.574       22.412       19.430      465.443      502.302      377.514        0.184        0.067       34.506        9.108        0.070      330.488       -2.108      864.606
01/01/2015  12:19:00       -3.243      -13.528       29.950       15.812       44.785       26.925      250.010     2005.654      724.932        0.203        0.149       13.911       27.416        3.884      330.823       -1.558      864.615
01/01/2015  12:20:00        3.429      -16.251       26.428       25.591       50.817       24.836      654.903     2582.414      616.832        0.241        0.193       16.609       24.856        2.240      330.737       -1.698      864.607
01/01/2015  12:21:00       33.780      -64.593       12.104       52.361       63.758       44.169     2741.717     4065.069     1950.862        0.711        0.438       72.892       42.150        0.334      330.540       -2.020      864.607
01/01/2015  12:22:00       41.885      -94.862      -22.582       28.678       33.384       21.273      822.401     1114.525      452.527        0.683        0.119      103.697       13.377        0.017      329.925       -3.030      864.600
01/01/2015  12:23:00       32.236     -118.448      -13.027       43.530       38.871       34.026     1894.874     1510.933     1157.779        0.990        0.228      122.756       21.942        0.032      330.360       -2.317      864.590
01/01/2015  12:24:00       14.649        1.158       42.276       38.288       51.222       29.996     1465.956     2623.676      899.786        0.350        0.249       14.695       30.864        4.412      330.679       -1.794      864.582
01/01/2015  12:25:00      101.078       72.390       34.482       57.417       36.623       31.711     3296.733     1341.280     1005.615        1.114        0.282      124.327       17.990        0.021      330.291       -2.429      864.591
01/01/2015  12:26:00        2.227        5.779       38.821       35.588       40.982       22.845     1266.510     1679.548      521.910        0.251        0.173        6.194       24.615       15.795      330.769       -1.645      864.612
01/01/2015  12:27:00       -7.789      -50.702        5.025       37.873       24.454       27.188     1434.376      598.013      739.171        0.271        0.139       51.297        7.553        0.022      330.510       -2.070      864.643
01/01/2015  12:28:00       13.039       62.630        1.096       38.685       85.572       29.096     1496.507     7322.635      846.563        0.688        0.483       63.973       35.207        0.303      330.495       -2.096      864.667
01/01/2015  12:29:00       -8.311      112.294      -11.047       38.129       72.863       33.888     1453.837     5309.069     1148.401        1.035        0.396      112.601       40.171        0.127      330.367       -2.305      864.697
01/01/2015  12:30:00       32.486       32.954        8.591       35.431       42.937       26.806     1255.323     1843.544      718.559        0.302        0.191       46.274       18.931        0.167      330.616       -1.896      864.722
01/01/2015  12:31:00        9.536       34.942       18.564       32.823       53.157       31.434     1077.348     2825.641      988.094        0.327        0.245       36.220       23.471        0.420      330.892       -1.445      864.727
01/01/2015  12:32:00       78.743       35.931        4.606       52.395       47.360       37.635     2745.192     2243.004     1416.386        0.696        0.320       86.554       11.407        0.017      330.709       -1.744      864.738
01/01/2015  12:33:00       71.319       93.714       12.610       67.056       54.051       39.535     4496.542     2921.488     1563.019        1.150        0.449      117.766       27.242        0.054      330.498       -2.091      864.737
01/01/2015  12:34:00       12.880       17.303       28.485       33.935       29.495       31.055     1151.569      869.948      964.388        0.213        0.149       21.571       18.925        0.770      330.970       -1.316      864.736
01/01/2015  12:35:00       20.870       61.303       -2.002       32.049       40.288       24.123     1027.159     1623.137      581.929        0.371        0.162       64.758       24.051        0.138      330.664       -1.818      864.725
01/01/2015  12:36:00       28.493       74.660        5.670       48.442       55.956       41.039     2346.586     3131.101     1684.205        0.679        0.358       79.912       30.855        0.149      330.585       -1.948      864.722
01/01/2015  12:37:00       88.588      114.504      -10.907       56.632       52.992       50.796     3207.184     2808.129     2580.193        1.484        0.430      144.773       33.377        0.053      330.443       -2.182      864.718
01/01/2015  12:38:00       97.389       47.985       21.298       42.969       47.193       22.485     1846.310     2227.207      505.555        0.841        0.229      108.569       14.037        0.017      330.259       -2.484      864.706
01/01/2015  12:39:00      -19.835       -5.720       -1.159       23.537       20.149       19.458      553.981      405.968      378.615        0.088        0.067       20.643       13.843        0.450      330.741       -1.692      864.678
01/01/2015  12:40:00      -19.993      -41.619       -1.552       21.255       28.766       19.320      451.782      827.463      373.265        0.189        0.083       46.172       14.563        0.099      330.659       -1.826      864.643
01/01/2015  12:41:00      -38.151      -16.485        0.959       28.448       22.347       18.774      809.303      499.389      352.458        0.169        0.083       41.561       10.339        0.062      330.770       -1.645      864.624
01/01/2015  12:42:00      -33.871       38.064       -7.916       29.749       41.012       24.586      885.001     1681.987      604.494        0.291        0.159       50.952       23.953        0.221      330.858       -1.499      864.618
01/01/2015  12:43:00      -50.014        9.004      -16.091       37.908       34.200       28.658     1437.003     1169.622      821.263        0.313        0.171       50.818       26.008        0.262      330.570       -1.974      864.611
01/01/2015  12:44:00       -4.100       27.674       53.419       20.524       28.534       30.873      421.244      814.201      953.141        0.291        0.109       27.976       25.103        0.805      331.338       -0.712      864.617
01/01/2015  12:45:00       26.628       29.581       28.826       44.265       43.141       35.546     1959.374     1861.126     1263.537        0.375        0.254       39.800       24.462        0.378      330.796       -1.602      864.598
01/01/2015  12:46:00        3.683       46.116       65.635       49.484       48.480       37.325     2448.703     2350.330     1393.150        0.632        0.310       46.263       29.595        0.409      331.242       -0.868      864.573
01/01/2015  12:47:00       68.806     -128.978       -1.155       61.868       68.736       53.430     3827.601     4724.571     2854.809        1.639        0.570      146.183       49.495        0.115      330.766       -1.651      864.572
01/01/2015  12:48:00       26.541      -11.236       17.933       23.394       36.161       28.020      547.299     1307.648      785.114        0.190        0.132       28.822       25.632        0.791      330.870       -1.481      864.585
01/01/2015  12:49:00       -4.577        9.560       16.817       29.705       41.670       22.808      882.416     1736.386      520.183        0.177        0.157       10.599       17.166        2.623      331.194       -0.948      864.594
01/01/2015  12:50:00       44.160       47.411       19.377       40.911       29.959       32.236     1673.707      897.523     1039.186        0.409        0.181       64.791       18.889        0.085      331.051       -1.183      864.608
01/01/2015  12:51:00       18.181      -25.222        9.802       33.595       58.765       35.501     1128.607     3453.319     1260.294        0.345        0.292       31.092       37.530        1.457      331.300       -0.774      864.605
01/01/2015  12:52:00        7.670      -64.945        8.336       33.441       64.041       39.512     1118.273     4101.290     1561.200        0.556        0.339       65.396       43.156        0.435      331.280       -0.807      864.615
01/01/2015  12:53:00       18.147       38.602       46.167       27.822       32.808       36.244      774.058     1076.390     1313.598        0.356        0.158       42.655       29.878        0.491      331.025       -1.226      864.620
01/01/2015  12:54:00       60.325       67.701        7.078       44.041       26.493       31.868     1939.567      701.905     1015.548        0.596        0.183       90.678       14.789        0.027      331.102       -1.099      864.622
01/01/2015  12:55:00       73.705       61.552       -8.644       34.788       40.555       29.259     1210.233     1644.682      856.086        0.650        0.186       96.027        7.938        0.007      330.799       -1.596      864.634
01/01/2015  12:56:00       28.945       37.132        4.813       23.584       26.642       26.895      556.194      709.789      723.351        0.211        0.099       47.081       25.034        0.283      330.874       -1.473      864.632
01/01/2015  12:57:00       12.001       39.252       11.995       25.288       22.411       17.753      639.470      502.273      315.182        0.164        0.073       41.046       11.114        0.073      330.947       -1.354      864.633
01/01/2015  12:58:00        1.690       -9.388       15.055       21.802       57.105       25.111      475.309     3261.014      630.542        0.234        0.218        9.539       25.555        7.176      331.455       -0.518      864.634
01/01/2015  12:59:00        3.608       12.256        3.160       22.849       23.934       30.307      522.081      572.819      918.491        0.109        0.101       12.777       16.220        1.612      331.460       -0.509      864.634
01/01/2015  13:00:00       11.355      -38.431       16.362       44.345       46.844       28.744     1966.510     2194.348      826.205        0.343        0.249       40.074       34.037        0.721      331.505       -0.436      864.651
01/01/2015  13:01:00       20.412      -44.770       16.192       36.647       52.810       31.896     1343.020     2788.892     1017.385        0.392        0.257       49.204       31.187        0.402      331.388       -0.629      864.656
01/01/2015  13:02:00        8.032       39.128       12.684       26.777       30.355       24.198      716.981      921.411      585.529        0.199        0.111       39.944       21.539        0.291      331.261       -0.837      864.664
01/01/2015  13:03:00       14.173       36.777       19.874       20.155       24.110       19.979      406.219      581.281      399.147        0.167        0.069       39.413       15.220        0.149      331.265       -0.832      864.669
01/01/2015  13:04:00       -6.344       76.408        1.341       31.841       47.235       31.340     1013.879     2231.190      982.200        0.505        0.211       76.671       25.473        0.110      331.081       -1.133      864.671
01/01/2015  13:05:00      -11.139       25.789       -1.376       22.936       38.040       19.159      526.051     1447.057      367.054        0.157        0.117       28.092       16.242        0.334      331.394       -0.620      864.672
01/01/2015  13:06:00      -37.723       61.994       10.907       29.341       39.879       30.500      860.908     1590.358      930.270        0.438        0.169       72.569       24.797        0.117      331.417       -0.580      864.694
01/01/2015  13:07:00      -24.325       40.759        8.852       18.931       26.665       21.127      358.395      711.002      446.331        0.192        0.076       47.466       16.024        0.114      331.351       -0.690      864.707
01/01/2015  13:08:00       37.402       47.287       29.293       46.473       35.721       38.285     2159.726     1275.960     1465.719        0.470        0.245       60.291       31.866        0.279      331.346       -0.697      864.723
01/01/2015  13:09:00       52.892       46.440       24.699       35.086       26.486       30.263     1231.052      701.491      915.837        0.421        0.142       70.386       13.239        0.035      331.205       -0.930      864.737
01/01/2015  13:10:00       -2.701       77.387       -3.024       22.192       31.603       17.031      492.475      998.725      290.056        0.389        0.089       77.435       13.499        0.030      331.122       -1.067      864.730
01/01/2015  13:11:00        6.704      -49.474      -10.162       52.347       59.097       26.884     2740.204     3492.437      722.730        0.477        0.348       49.926       19.243        0.149      331.215       -0.912      864.717
01/01/2015  13:12:00       71.540      -67.079       12.638       49.916       72.758       46.620     2491.647     5293.746     2173.390        0.987        0.498       98.070       48.224        0.242      331.150       -1.020      864.708
01/01/2015  13:13:00       81.829       85.245       49.420       33.094       35.701       38.040     1095.199     1274.555     1447.023        1.011        0.191      118.164       20.072        0.029      331.007       -1.255      864.689
01/01/2015  13:14:00       -3.082      -50.742       21.366       50.593       95.866       44.857     2559.612     9190.261     2012.179        0.840        0.688       50.835       51.971        1.045      331.561       -0.345      864.676
01/01/2015  13:15:00       70.656      -99.011        5.255       55.918       67.747       33.504     3126.785     4589.596     1122.507        1.183        0.442      121.637       36.704        0.091      331.153       -1.016      864.691
01/01/2015  13:16:00       44.236     -114.115      -33.056       42.587       50.159       38.168     1813.620     2515.972     1456.760        1.093        0.289      122.389       18.787        0.024      331.265       -0.832      864.684
01/01/2015  13:17:00       46.679      -25.712        9.562       38.855       79.771       49.847     1509.717     6363.426     2484.675        0.664        0.518       53.292       51.135        0.921      331.273       -0.818      864.684
01/01/2015  13:18:00       -1.479       21.102       46.795       19.915       30.582       21.939      396.596      935.241      481.317        0.222        0.091       21.154       22.790        1.161      331.632       -0.228      864.696
01/01/2015  13:19:00        5.471      -78.760       18.263       49.734       71.850       46.859     2473.474     5162.366     2195.812        0.820        0.492       78.950       47.909        0.368      331.550       -0.363      864.695
01/01/2015  13:20:00       24.538      -80.590       20.481       49.406       71.041       55.618     2440.918     5046.877     3093.366        0.905        0.529       84.243       32.426        0.148      331.371       -0.658      864.701
01/01/2015  13:21:00      103.790     -163.758      -25.324       46.408       52.208       38.370     2153.701     2725.693     1472.225        2.229        0.318      193.879       29.393        0.023      331.044       -1.198      864.730
01/01/2015  13:22:00       21.629      -38.243       -5.501       29.267       41.442       23.987      856.584     1717.412      575.362        0.255        0.157       43.936       26.173        0.355      331.369       -0.660      864.753
01/01/2015  13:23:00      -26.521      -54.617       -2.331       41.721       36.716       30.918     1740.665     1348.081      955.938        0.387        0.202       60.715       10.533        0.030      331.722       -0.079      864.740
01/01/2015  13:24:00       18.785      -66.085       20.497       57.887       58.856       40.938     3350.893     3464.053     1675.954        0.681        0.425       68.703       31.843        0.215      331.527       -0.400      864.747
01/01/2015  13:25:00       38.112     -107.530      -27.280       57.513       44.820       40.845     3307.792     2008.807     1668.275        1.037        0.349      114.084       32.493        0.081      331.336       -0.715      864.750
01/01/2015  13:26:00      -11.644      -62.067       23.834       46.527       89.272       47.419     2164.788     7969.441     2248.579        0.847        0.619       63.150       55.415        0.770      331.700       -0.116      864.728
01/01/2015  13:27:00       -1.838      -21.733       30.378       22.279       30.520       25.254      496.333      931.488      637.764        0.173        0.103       21.811       19.728        0.818      331.934        0.269      864.709
01/01/2015  13:28:00      -13.198      -73.207       -9.530       39.001       37.626       29.765     1521.114     1415.697      885.962        0.472        0.191       74.387       25.135        0.114      331.604       -0.272      864.690
01/01/2015  13:29:00        4.360       -4.595        1.220       59.975       33.246       23.339     3596.963     1105.279      544.729        0.264        0.262        6.334       18.411        8.448      331.657       -0.187      864.689
01/01/2015  13:30:00       85.020     -117.157       -5.480       75.904       53.824       33.489     5761.410     2897.036     1121.502        1.538        0.489      144.756       26.271        0.033      331.501       -0.445      864.681
01/01/2015  13:31:00       85.210      -96.653        7.205       45.425       71.546       30.973     2063.414     5118.885      959.312        1.240        0.407      128.851       29.225        0.051      331.611       -0.261      864.667
01/01/2015  13:32:00       36.751       -8.404       36.831       42.544       60.958       37.405     1810.022     3715.913     1399.127        0.485        0.346       37.700       34.717        0.848      331.798        0.044      864.657
01/01/2015  13:33:00       31.167        6.156       46.777       34.694       55.636       34.707     1203.694     3095.359     1204.577        0.435        0.275       31.769       33.760        1.129      331.703       -0.110      864.645
01/01/2015  13:34:00       87.704     -116.599      -16.328       77.258       68.164       36.614     5968.807     4646.274     1340.581        1.675        0.598      145.902       41.478        0.081      331.586       -0.304      864.619
01/01/2015  13:35:00      140.338     -161.750      -23.473       65.018       81.720       51.787     4227.313     6678.188     2681.882        3.000        0.679      214.145       48.228        0.051      331.458       -0.516      864.603
01/01/2015  13:36:00      160.581     -190.674      -37.999       61.517       48.227       31.033     3784.300     2325.820      963.038        3.533        0.354      249.285       30.080        0.015      331.335       -0.720      864.591
01/01/2015  13:37:00       92.137       60.295       71.206       84.385      146.285       99.485     7120.779    21399.169     9897.256        2.780        1.921      110.112       99.838        0.822      331.546       -0.372      864.597
01/01/2015  13:38:00       52.887       22.786       62.818       60.017       95.969       63.070     3602.034     9209.999     3977.807        1.202        0.839       57.587       68.402        1.411      331.710       -0.101      864.615
01/01/2015  13:39:00       40.408       45.966       80.774       68.905       77.759       61.077     4747.948     6046.535     3730.400        1.239        0.726       61.202       60.507        0.977      331.817        0.076      864.622
01/01/2015  13:40:00      122.314       69.086       74.353       76.040      108.260       62.219     5782.141    11720.237     3871.247        2.331        1.069      140.476       66.187        0.222      331.470       -0.496      864.644
01/01/2015  13:41:00       87.899       80.439       52.069       46.847       37.311       42.550     2194.619     1392.099     1810.506        1.115        0.270      119.150       26.035        0.048      331.300       -0.775      864.667
01/01/2015  13:42:00       53.877       70.037       60.773       42.841       46.249       31.037     1835.343     2139.005      963.276        0.822        0.247       88.362       27.942        0.100      331.481       -0.476      864.681
01/01/2015  13:43:00       50.393       49.229       40.769       67.778       33.250       32.482     4593.913     1105.574     1055.049        0.669        0.338       70.448       31.940        0.206      331.755       -0.026      864.701
01/01/2015  13:44:00      203.730      127.162       48.192       66.609       62.615       56.891     4436.801     3920.667     3236.529        3.579        0.580      240.159       37.122        0.024      331.411       -0.595      864.705
01/01/2015  13:45:00      114.573      111.670       72.204      102.764       62.477       71.990    10560.484     3903.338     5182.578        2.522        0.982      159.991       74.042        0.214      331.507       -0.435      864.706
01/01/2015  13:46:00      127.768      117.970       53.171       59.342       47.013       61.439     3521.444     2210.217     3774.794        2.129        0.475      173.901       44.665        0.066      331.432       -0.557      864.718
01/01/2015  13:47:00       83.750       83.758       23.603       53.899       40.369       37.269     2905.086     1629.692     1388.954        1.025        0.296      118.446       34.353        0.084      331.440       -0.543      864.728
01/01/2015  13:48:00       38.512       60.966        6.425       66.345       40.376       37.119     4401.723     1630.251     1377.790        0.632        0.370       72.111       37.837        0.275      331.744       -0.042      864.722
01/01/2015  13:49:00       24.747       25.959       40.657       40.212       48.740       45.024     1616.992     2375.617     2027.129        0.448        0.301       35.865       27.804        0.601      331.839        0.113      864.718
01/01/2015  13:50:00       87.226       70.167       32.101       57.214       40.317       47.310     3273.390     1625.469     2238.240        1.035        0.357      111.945       41.544        0.138      331.583       -0.309      864.703
01/01/2015  13:51:00       18.062        6.789       22.092       41.095       42.487       22.506     1688.826     1805.169      506.506        0.243        0.200       19.296       16.940        0.771      331.808        0.062      864.688
01/01/2015  13:52:00       54.137      -21.026       31.037       76.775       71.620       46.720     5894.352     5129.412     2182.752        0.877        0.660       58.076       49.144        0.716      331.906        0.222      864.677
01/01/2015  13:53:00       83.912       74.523       68.792       59.125       49.949       40.799     3495.742     2494.946     1664.568        1.249        0.383      112.227       30.706        0.075      331.545       -0.371      864.701
01/01/2015  13:54:00       42.781       23.030       17.474       43.489       39.715       22.645     1891.262     1577.279      512.803        0.332        0.199       48.586        5.286        0.012      331.564       -0.340      864.736
01/01/2015  13:55:00       70.880       53.725       46.118       70.405       60.803       46.273     4956.922     3696.960     2141.174        1.041        0.540       88.941       30.779        0.120      331.635       -0.223      864.742
01/01/2015  13:56:00       36.367      -26.898       38.124       35.366       49.969       41.701     1250.748     2496.878     1739.012        0.449        0.274       45.234       39.064        0.746      331.695       -0.125      864.758
01/01/2015  13:57:00       36.096      -14.974       21.051       34.475       32.056       23.574     1188.533     1027.617      555.717        0.237        0.139       39.079       24.468        0.392      331.833        0.103      864.748
01/01/2015  13:58:00       19.142        9.350       21.232       25.412       40.491       22.170      645.764     1639.505      491.493        0.184        0.139       21.304       23.555        1.223      331.779        0.014      864.736
01/01/2015  13:59:00       13.367      -48.678       20.664       28.080       45.732       28.191      788.478     2091.392      794.722        0.332        0.184       50.480       29.974        0.353      331.925        0.254      864.725
01/01/2015  14:00:00       24.958      -49.832       12.064       38.347       59.334       33.470     1470.471     3520.494     1120.229        0.468        0.306       55.733       28.440        0.260      331.733       -0.062      864.730
01/01/2015  14:01:00      -13.033        0.577        5.454       36.020       27.270       34.579     1297.438      743.650     1195.703        0.172        0.162       13.046       29.301        5.045      331.869        0.162      864.726
01/01/2015  14:02:00       62.642       16.399       37.356       50.451       53.786       43.429     2545.270     2892.933     1886.119        0.645        0.366       64.753       36.165        0.312      331.767       -0.004      864.733
01/01/2015  14:03:00      107.160       41.911       28.245       50.538       37.345       37.345     2554.111     1394.637     1394.632        0.969        0.267      115.065       22.657        0.039      331.729       -0.069      864.730
01/01/2015  14:04:00       26.004       47.626       73.449       56.870       70.532       35.959     3234.211     4974.693     1293.074        0.892        0.475       54.263       40.676        0.562      331.961        0.315      864.726
01/01/2015  14:05:00       42.805      -28.049       71.024       97.780      153.678       71.672     9561.016    23616.917     5136.877        2.298        1.916       51.176      104.330        4.156      332.068        0.490      864.720
01/01/2015  14:06:00       85.282       -9.186       62.069       84.992       93.380       71.431     7223.686     8719.814     5102.458        1.612        1.052       85.776       64.281        0.562      331.927        0.257      864.717
01/01/2015  14:07:00       73.561      -24.408       50.389       78.198      114.788       70.765     6114.876    13176.182     5007.660        1.642        1.215       77.504       82.745        1.140      331.852        0.133      864.748
01/01/2015  14:08:00       73.875       45.842       78.237       54.130       55.441       40.668     2930.091     3073.737     1653.918        1.067        0.383       86.943       29.841        0.118      331.755       -0.025      864.759
01/01/2015  14:09:00       62.335      -33.160       24.108       64.902       60.894       43.157     4212.311     3708.025     1862.532        0.767        0.489       70.606       40.126        0.323      331.962        0.315      864.757
01/01/2015  14:10:00       95.442       70.213       99.636       70.871       62.092       67.530     5022.664     3855.378     4560.318        1.870        0.672      118.486       49.003        0.171      331.721       -0.083      864.764
01/01/2015  14:11:00      109.551       68.208       41.459       72.744       94.709       63.269     5291.705     8969.707     4002.977        1.831        0.913      129.050       55.122        0.182      331.729       -0.069      864.749
01/01/2015  14:12:00       66.729     -111.660       10.401       46.813       75.435       46.322     2191.439     5690.399     2145.710        1.353        0.501      130.080       47.542        0.134      331.899        0.211      864.734
01/01/2015  14:13:00       76.374      -76.227       28.448       77.493       81.804       42.964     6005.143     6691.893     1845.938        1.350        0.727      107.905       41.135        0.145      331.969        0.328      864.727
01/01/2015  14:14:00       64.049       -1.104       33.522       55.268       57.750       38.266     3054.500     3335.055     1464.315        0.654        0.393       64.059       33.327        0.271      332.019        0.410      864.726
01/01/2015  14:15:00       47.715       21.372       11.231       54.319       57.548       37.014     2950.534     3311.782     1370.053        0.524        0.382       52.282       31.463        0.362      331.988        0.359      864.721
01/01/2015  14:16:00       41.504       -0.769       46.553       51.032       61.802       39.035     2604.254     3819.443     1523.722        0.592        0.397       41.511       27.908        0.452      332.079        0.509      864.711
01/01/2015  14:17:00      113.565      -61.620       36.040       82.538       79.421       54.499     6812.492     6307.726     2970.088        1.704        0.805      129.205       48.212        0.139      331.907        0.225      864.723
01/01/2015  14:18:00       36.925       50.222       49.344       44.130       53.179       49.492     1947.482     2828.029     2449.506        0.677        0.361       62.336       27.342        0.192      332.076        0.503      864.753
01/01/2015  14:19:00       58.966       56.322       45.990       40.001       56.324       51.299     1600.109     3172.378     2631.577        0.808        0.370       81.542       43.107        0.279      332.051        0.462      864.792
01/01/2015  14:20:00      140.504       73.525       19.823       50.425       57.663       43.877     2542.707     3324.965     1925.197        1.666        0.390      158.579       33.799        0.045      331.595       -0.288      864.815
01/01/2015  14:21:00       41.074       67.611       69.653       35.020       39.289       32.716     1226.407     1543.653     1070.317        0.747        0.192       79.109       25.062        0.100      331.884        0.187      864.834
01/01/2015  14:22:00       34.368       20.580       18.853       26.033       25.513       30.831      677.711      650.907      950.538        0.212        0.114       40.058       13.790        0.119      331.824        0.088      864.838
01/01/2015  14:23:00       54.723      -71.796        8.176       22.794       47.657       27.365      519.580     2271.200      748.865        0.588        0.177       90.273       27.026        0.090      331.830        0.098      864.837
01/01/2015  14:24:00       69.268      -80.685        6.620       88.126       70.240       39.943     7766.200     4933.601     1595.419        1.282        0.715      106.340       53.965        0.258      331.809        0.063      864.835
01/01/2015  14:25:00       91.364     -119.857       -5.205       87.195       87.097       41.694     7602.890     7585.882     1738.367        1.983        0.846      150.708       54.366        0.130      331.993        0.365      864.837
01/01/2015  14:26:00       40.004       29.768       79.523       52.854      129.698       66.831     2793.593    16821.476     4466.433        1.644        1.204       49.865       85.413        2.934      331.978        0.340      864.848
01/01/2015  14:27:00       19.498       50.217       73.670       51.348       39.668       32.553     2636.655     1573.552     1059.697        0.680        0.263       53.870       28.910        0.288      332.003        0.384      864.857
01/01/2015  14:28:00      158.183       94.495       36.879       73.824       51.948       51.181     5449.962     2698.555     2619.468        2.304        0.538      184.258       45.105        0.060      331.857        0.141      864.841
01/01/2015  14:29:00      170.263       99.052       34.296       52.515       45.468       40.648     2757.859     2067.322     1652.249        2.323        0.324      196.979       17.513        0.008      331.766       -0.009      864.819
01/01/2015  14:30:00      118.464       59.660       33.943       55.548       58.368       38.373     3085.557     3406.823     1472.474        1.335        0.398      132.639       21.266        0.026      331.825        0.090      864.798
01/01/2015  14:31:00      174.573      111.797       48.470       72.317       59.767       61.945     5229.789     3572.068     3837.240        2.898        0.632      207.302       48.378        0.054      331.768       -0.008      864.798
01/01/2015  14:32:00      114.105       19.928       48.330       66.962       60.244       50.305     4483.910     3629.342     2530.604        1.320        0.532      115.832       38.581        0.111      331.738       -0.053      864.812
01/01/2015  14:33:00        6.641       12.267       38.173       36.526       41.790       24.272     1334.172     1746.404      589.150        0.266        0.183       13.949       26.130        3.509      332.008        0.392      864.806
01/01/2015  14:34:00      100.585       57.470       43.875       77.237       65.393       48.378     5965.557     4276.244     2340.478        1.396        0.629      115.846       45.045        0.151      331.800        0.049      864.800
01/01/2015  14:35:00       25.718       -0.089        8.654       39.321       22.761       22.241     1546.179      518.056      494.650        0.165        0.128       25.718       14.192        0.305      331.958        0.309      864.792
01/01/2015  14:36:00       32.291      -70.639       19.299       46.813       81.136       39.264     2191.470     6583.047     1541.651        0.836        0.516       77.670       28.068        0.131      332.090        0.526      864.779
01/01/2015  14:37:00       21.486       55.459       65.128       43.337       61.632       32.346     1878.074     3798.472     1046.258        0.725        0.336       59.476       29.144        0.240      332.130        0.593      864.779
01/01/2015  14:38:00       96.402       56.972       70.146       76.480       54.012       62.046     5849.194     2917.266     3849.757        1.504        0.631      111.978       47.792        0.182      331.897        0.207      864.793
01/01/2015  14:39:00       59.941       89.301       87.590       49.574       44.539       34.536     2457.602     1983.695     1192.704        1.244        0.282      107.553       28.441        0.070      331.746       -0.040      864.820
01/01/2015  14:40:00       43.983       26.446       23.308       35.486       27.851       30.968     1259.243      775.653      958.998        0.308        0.150       51.322       23.571        0.211      331.881        0.181      864.834
01/01/2015  14:41:00       42.864       29.012        6.210       27.798       34.952       26.801      772.731     1221.612      718.310        0.271        0.136       51.759       23.251        0.202      331.831        0.100      864.840
01/01/2015  14:42:00       -6.466       46.374      -18.377       14.821       13.509        9.583      219.674      182.494       91.836        0.151        0.025       46.823        6.467        0.019      331.735       -0.056      864.834
01/01/2015  14:43:00        2.239       27.488        1.597       21.012       16.617       18.420      441.498      276.116      339.314        0.091        0.053       27.579       14.121        0.262      331.978        0.342      864.825
01/01/2015  14:44:00       25.198       34.118       13.026       42.322       25.963       23.581     1791.184      674.056      556.069        0.249        0.151       42.414       22.475        0.281      331.851        0.132      864.811
01/01/2015  14:45:00      -43.200       -7.142        9.792       73.567       59.744       34.392     5412.104     3569.398     1182.779        0.609        0.508       43.787       39.927        0.831      332.275        0.831      864.806
01/01/2015  14:46:00       90.002      -53.932        7.987       49.256       54.440       34.443     2426.132     2963.712     1186.332        0.882        0.329      104.923       32.652        0.097      332.089        0.525      864.811
01/01/2015  14:47:00      101.105      -18.971       50.717       78.274      113.932       77.381     6126.773    12980.488     5987.764        1.912        1.255      102.869       86.514        0.707      332.105        0.550      864.813
01/01/2015  14:48:00      124.769     -140.721      -11.022       65.119      116.241       70.105     4240.481    13511.982     4914.779        2.907        1.133      188.069       78.122        0.173      331.958        0.307      864.830
01/01/2015  14:49:00      115.455     -153.790      -14.400       66.595       94.424       41.590     4434.869     8915.969     1729.733        2.613        0.754      192.305       39.808        0.043      331.886        0.187      864.842
01/01/2015  14:50:00       79.849      -31.095       25.872       66.748       61.101       37.458     4455.286     3733.272     1403.119        0.880        0.480       85.690       28.762        0.113      332.083        0.515      864.842
01/01/2015  14:51:00       58.284      -81.692        8.521       61.170       67.127       45.898     3741.801     4505.988     2106.644        1.025        0.518      100.353       50.586        0.254      332.178        0.672      864.829
01/01/2015  14:52:00       19.322        6.989       41.273       40.492       51.046       34.237     1639.598     2605.711     1172.195        0.377        0.271       20.547       35.239        2.941      332.159        0.641      864.805
01/01/2015  14:53:00       79.378      -49.929       29.360       63.976      111.596       59.958     4092.939    12453.729     3594.912        1.489        1.007       93.776       73.215        0.610      332.003        0.382      864.787
01/01/2015  14:54:00       91.689     -140.089       -7.166       60.363       84.450       51.260     3643.705     7131.853     2627.589        2.074        0.670      167.427       50.887        0.092      332.080        0.508      864.774
01/01/2015  14:55:00       77.059       24.596       50.754       45.158       81.505       53.792     2039.241     6643.095     2893.543        1.035        0.579       80.889       48.979        0.367      331.928        0.258      864.775
01/01/2015  14:56:00       53.786       27.880        9.348       49.681       46.961       33.589     2468.247     2205.309     1128.188        0.478        0.290       60.583       26.589        0.193      331.906        0.222      864.759
01/01/2015  14:57:00       52.953       37.842       48.267       40.335       27.638       19.377     1626.926      763.884      375.481        0.467        0.138       65.085       16.532        0.065      331.920        0.247      864.741
01/01/2015  14:58:00       86.698       64.234       30.636       30.226       19.120       27.375      913.621      365.579      749.405        0.730        0.101      107.900       21.241        0.039      331.726       -0.073      864.728
01/01/2015  14:59:00       56.455       15.889       30.767       46.911       49.360       43.154     2200.648     2436.420     1862.265        0.544        0.325       58.648       25.538        0.190      332.084        0.516      864.717
01/01/2015  15:00:00      150.343        5.385       28.158       88.439       72.210       59.779     7821.457     5214.318     3573.491        2.001        0.830      150.440       50.903        0.114      331.937        0.272      864.729
01/01/2015  15:01:00       26.494      -44.446       22.626       89.854       68.871       46.988     8073.814     4743.201     2207.893        0.910        0.751       51.743       25.242        0.238      332.133        0.598      864.745
01/01/2015  15:02:00       -5.829       33.881       61.279       15.382       43.986       29.312      236.600     1934.790      859.181        0.398        0.152       34.379       25.762        0.562      332.391        1.024      864.765
01/01/2015  15:03:00       33.002      -55.552       25.238       44.436       57.212       32.719     1974.521     3273.259     1070.558        0.556        0.316       64.616       23.326        0.130      332.351        0.957      864.778
01/01/2015  15:04:00       33.197      -14.477       27.120       56.076       61.268       42.459     3144.501     3753.801     1802.732        0.537        0.435       36.217       44.821        1.532      332.334        0.929      864.785
01/01/2015  15:05:00       72.008     -103.534       27.606       57.823      124.734       53.500     3343.486    15558.508     2862.287        1.921        1.088      126.112       77.365        0.376      332.025        0.417      864.786
01/01/2015  15:06:00       49.114       16.897       58.057       54.618       65.826       49.316     2983.099     4333.072     2432.087        0.791        0.487       51.939       44.598        0.737      332.168        0.657      864.786
01/01/2015  15:07:00       60.053       -1.332       37.015       67.540       67.701       43.667     4561.646     4583.371     1906.777        0.801        0.553       60.068       55.132        0.842      332.008        0.393      864.809
01/01/2015  15:08:00       78.246       20.698       60.320       66.055       46.588       46.176     4363.244     2170.463     2132.205        0.943        0.433       80.937       39.110        0.233      332.120        0.576      864.816
01/01/2015  15:09:00       34.703       11.766       54.283       44.185       49.010       35.954     1952.297     2401.979     1292.716        0.497        0.282       36.643       22.236        0.368      332.117        0.572      864.826
01/01/2015  15:10:00       93.555      -80.724      -10.785       52.658       73.115       50.920     2772.872     5345.831     2592.865        1.305        0.536      123.568       54.876        0.197      331.901        0.215      864.811
01/01/2015  15:11:00       81.957      -74.231       11.183       57.975      101.353       48.371     3361.083    10272.399     2339.707        1.416        0.799      110.576       67.164        0.369      331.983        0.350      864.798
01/01/2015  15:12:00       25.070       42.647       48.170       37.321       43.234       31.298     1392.850     1869.171      979.579        0.450        0.212       49.470       28.063        0.322      332.001        0.379      864.797
01/01/2015  15:13:00      -10.226       -8.931       33.060       25.125       36.985       26.146      631.255     1367.896      683.600        0.198        0.134       13.577       15.988        1.387      332.361        0.974      864.808
01/01/2015  15:14:00       52.050      -90.951      -10.884       72.586       43.354       32.757     5268.775     1879.536     1072.999        0.966        0.411      104.792       28.157        0.072      332.100        0.542      864.814
01/01/2015  15:15:00       78.857      -34.445       35.691       66.697       98.411       57.177     4448.454     9684.684     3269.161        1.304        0.870       86.052       71.958        0.699      331.992        0.364      864.806
01/01/2015  15:16:00      102.290     -150.684      -24.645       64.141       73.566       52.909     4114.068     5411.992     2799.404        2.305        0.616      182.123       51.976        0.081      332.013        0.398      864.775
01/01/2015  15:17:00       66.251     -105.655        0.922       45.648       68.967       48.303     2083.770     4756.427     2333.151        1.236        0.459      124.709       48.820        0.153      332.134        0.599      864.764
01/01/2015  15:18:00       55.506      -63.376        8.530       69.497       91.499       54.928     4829.829     8372.089     3017.090        1.169        0.811       84.246       54.805        0.423      332.117        0.571      864.757
01/01/2015  15:19:00      113.335     -200.559      -34.736       57.056       41.104       31.221     3255.360     1689.505      974.759        3.010        0.296      230.367       23.038        0.010      331.844        0.116      864.774
01/01/2015  15:20:00       93.512     -101.333       18.338       50.149       62.172       39.326     2514.951     3865.378     1546.562        1.364        0.396      137.887       35.824        0.068      331.903        0.218      864.781
01/01/2015  15:21:00       14.890      -65.285        9.486       44.521       51.975       38.628     1982.155     2701.444     1492.140        0.537        0.309       66.961       15.651        0.055      332.005        0.387      864.769
01/01/2015  15:22:00       45.889      -94.558      -18.207       37.260       45.688       23.374     1388.313     2087.431      546.361        0.770        0.201      105.105       24.420        0.054      332.224        0.748      864.761
01/01/2015  15:23:00       73.063     -127.227      -21.408       42.168       49.693       30.307     1778.117     2469.415      918.539        1.357        0.258      146.714       25.218        0.030      331.984        0.351      864.757
01/01/2015  15:24:00       20.409      -62.550        5.915       42.828       50.178       36.072     1834.230     2517.819     1301.179        0.501        0.283       65.795       29.099        0.196      332.242        0.778      864.755
01/01/2015  15:25:00      -39.603      -17.363       15.829       41.070       29.712       23.090     1686.750      882.808      533.159        0.261        0.155       43.242       13.342        0.095      332.221        0.743      864.745
01/01/2015  15:26:00       24.689      -38.168       10.515       52.080       37.477       25.653     2712.305     1404.502      658.075        0.347        0.239       45.457       19.785        0.189      332.179        0.673      864.737
01/01/2015  15:27:00       31.819      -71.690       -3.792       64.296       55.977       40.700     4133.962     3133.436     1656.472        0.754        0.446       78.434       42.222        0.290      332.139        0.606      864.733
01/01/2015  15:28:00       41.858     -103.395      -24.522       61.399       46.700       28.773     3769.869     2180.925      827.874        0.991        0.339      111.547       27.809        0.062      331.916        0.242      864.743
01/01/2015  15:29:00      -30.585      -61.392        1.354       52.359       51.115       48.410     2741.451     2612.774     2343.565        0.620        0.385       68.588       32.572        0.226      332.091        0.529      864.745
01/01/2015  15:30:00       29.676      -35.947       10.229       47.439       54.598       33.398     2250.463     2980.946     1115.429        0.431        0.317       46.614       37.708        0.654      332.024        0.418      864.754
01/01/2015  15:31:00      -61.743      -22.888       12.040       48.803       33.020       22.146     2381.699     1090.336      490.459        0.422        0.198       65.848       23.780        0.130      332.100        0.544      864.760
01/01/2015  15:32:00      -31.933      -32.455       11.554       54.096       34.537       26.343     2926.333     1192.787      693.945        0.351        0.241       45.530       22.216        0.238      332.297        0.867      864.768
01/01/2015  15:33:00        8.404      -22.644       17.381       28.097       35.846       17.989      789.434     1284.902      323.596        0.164        0.120       24.154       12.779        0.280      332.237        0.769      864.777
01/01/2015  15:34:00      -14.309      -14.472       -4.150       35.358       25.504       22.734     1250.155      650.457      516.812        0.142        0.121       20.351       16.478        0.656      332.174        0.665      864.788
01/01/2015  15:35:00        0.738      -47.611       10.769       33.763       30.677       20.810     1139.930      941.059      433.049        0.245        0.126       47.617       10.267        0.046      332.239        0.773      864.786
01/01/2015  15:36:00       30.863        0.460       31.840       29.240       52.571       26.988      854.991     2763.685      728.372        0.316        0.217       30.866       17.534        0.323      332.049        0.459      864.799
01/01/2015  15:37:00       56.022       78.049       23.938       18.984       26.219       28.305      360.377      687.415      801.161        0.583        0.092       96.074       13.989        0.021      331.808        0.061      864.807
01/01/2015  15:38:00       11.297       19.087       15.282       32.748       21.362       22.839     1072.407      456.329      521.598        0.139        0.103       22.180       12.525        0.319      332.117        0.572      864.811
01/01/2015  15:39:00      -11.865       -8.005       -6.507       42.431       21.525       20.916     1800.372      463.343      437.485        0.147        0.135       14.313       13.255        0.858      332.010        0.395      864.816
01/01/2015  15:40:00      -87.554      -20.935      -16.438       27.475       14.728       16.311      754.878      216.906      266.041        0.481        0.062       90.023        6.329        0.005      331.830        0.097      864.822
01/01/2015  15:41:00      -75.405      -20.389       -7.400       19.174       23.872       17.161      367.650      569.858      294.489        0.369        0.062       78.113       11.704        0.022      332.030        0.427      864.804
01/01/2015  15:42:00      -53.840      -20.463       -6.038       26.627       22.836       14.874      708.992      521.479      221.222        0.240        0.073       57.598        9.292        0.026      332.151        0.628      864.797
01/01/2015  15:43:00       -3.661      -15.338        9.265       17.135       12.494       12.317      293.612      156.110      151.712        0.047        0.030       15.769       10.804        0.469      332.248        0.788      864.794
01/01/2015  15:44:00       15.341        9.057        9.955       19.495       19.774       16.255      380.063      391.029      264.220        0.073        0.052       17.815       15.074        0.716      332.070        0.495      864.797
01/01/2015  15:45:00      -15.024      -26.898       11.956       25.077       52.413       25.079      628.874     2747.125      628.965        0.255        0.200       30.809       28.097        0.832      332.276        0.833      864.796
01/01/2015  15:46:00       80.082      -90.403      -28.190       43.452       53.000       18.648     1888.047     2808.985      347.756        1.021        0.252      120.772       16.651        0.019      331.883        0.185      864.799
01/01/2015  15:47:00       17.760       16.579       49.963       44.148       57.670       38.215     1949.081     3325.829     1460.353        0.491        0.337       24.295       48.315        3.955      331.917        0.242      864.793
01/01/2015  15:48:00       29.902       42.641       51.732       31.469       31.177       21.718      990.283      972.020      471.670        0.391        0.122       52.080       12.119        0.054      331.886        0.191      864.796
01/01/2015  15:49:00        3.428       28.456       35.112       26.338       29.051       18.689      693.684      843.957      349.296        0.197        0.094       28.662       16.392        0.327      332.017        0.406      864.801
01/01/2015  15:50:00       -1.191      -17.732       25.187       18.592       38.683       20.707      345.670     1496.351      428.764        0.161        0.114       17.772       23.502        1.749      332.263        0.812      864.815
01/01/2015  15:51:00        4.636        7.985       45.615       27.489       47.495       22.108      755.671     2255.731      488.750        0.283        0.175        9.233       11.825        1.640      332.182        0.680      864.827
01/01/2015  15:52:00        2.885       31.472       61.258       27.432       41.756       26.128      752.502     1743.604      682.686        0.396        0.159       31.604       24.103        0.582      332.161        0.643      864.838
01/01/2015  15:53:00       20.566      -41.183       17.653       34.273       59.135       34.506     1174.629     3496.960     1190.675        0.415        0.293       46.033       40.340        0.768      332.170        0.659      864.849
01/01/2015  15:54:00       13.662       46.020       53.237       46.460       38.928       28.011     2158.578     1515.355      784.643        0.480        0.223       48.006       18.391        0.147      332.105        0.553      864.864
01/01/2015  15:55:00       86.945       49.715       40.334       60.492       35.114       36.868     3659.327     1232.998     1359.263        0.895        0.313      100.154       33.287        0.110      331.891        0.198      864.879
01/01/2015  15:56:00       88.251       21.595       29.493       57.223       45.032       31.902     3274.517     2027.840     1017.764        0.772        0.316       90.854       26.612        0.086      331.906        0.223      864.872
01/01/2015  15:57:00       72.352       46.092       55.589       50.484       39.262       38.901     2548.594     1541.477     1513.261        0.803        0.280       85.786       27.765        0.105      331.865        0.156      864.875
01/01/2015  15:58:00       73.803       62.176       78.379       53.079       57.918       37.944     2817.355     3354.470     1439.731        1.153        0.381       96.503       33.117        0.118      331.860        0.149      864.873
01/01/2015  15:59:00       53.341      106.505       91.998       58.079       36.824       32.417     3373.134     1356.030     1050.850        1.421        0.289      119.115       29.504        0.061      331.888        0.193      864.875
01/01/2015  16:00:00      100.766       32.470       30.421       58.503       48.154       30.351     3422.607     2318.806      921.178        0.940        0.333      105.868       27.064        0.065      331.858        0.144      864.882
01/01/2015  16:01:00       61.945       31.728       19.867       43.960       31.999       29.887     1932.492     1023.962      893.250        0.454        0.192       69.598       27.740        0.159      331.858        0.144      864.903
01/01/2015  16:02:00      111.173       61.701       37.572       61.723       35.983       30.694     3809.786     1294.793      942.123        1.181        0.302      127.147       19.742        0.024      331.840        0.113      864.921
01/01/2015  16:03:00       83.621       75.825       33.175       26.523       26.062       26.257      703.446      679.225      689.439        0.796        0.104      112.880       16.928        0.022      331.823        0.086      864.926
01/01/2015  16:04:00       47.147       27.844       12.494       31.759       24.162       25.601     1008.643      583.797      655.404        0.270        0.112       54.755        8.516        0.024      331.834        0.105      864.920
01/01/2015  16:05:00       43.105       34.334      -10.848       27.993       24.115       15.525      783.610      581.529      241.011        0.238        0.080       55.108        9.343        0.029      331.804        0.054      864.917
01/01/2015  16:06:00       83.307       34.351       13.871       30.992       19.743       20.879      960.501      389.771      435.934        0.505        0.089       90.111       12.856        0.020      331.830        0.097      864.923
01/01/2015  16:07:00       89.882       33.535       19.538       36.271       23.986       29.075     1315.574      575.334      845.342        0.616        0.137       95.934       17.062        0.032      331.896        0.207      864.933
01/01/2015  16:08:00       91.140       34.395        7.945       32.553       34.363       26.104     1059.729     1180.831      681.402        0.624        0.146       97.414       18.653        0.037      331.915        0.239      864.942
01/01/2015  16:09:00       77.081       38.394        2.403       34.279       30.239       21.257     1175.065      914.374      451.864        0.498        0.127       86.114       14.887        0.030      331.848        0.128      864.956
01/01/2015  16:10:00      106.467       63.140       13.303       37.695       36.459       28.416     1420.927     1329.234      807.475        0.953        0.178      123.781       15.868        0.016      331.810        0.064      864.964
01/01/2015  16:11:00       79.387       52.380        9.253       22.419       27.782       25.725      502.614      771.857      661.757        0.553        0.097       95.111       20.027        0.044      331.782        0.019      864.967
01/01/2015  16:12:00       86.122       71.722       14.008       32.894       30.386       27.154     1082.024      923.313      737.317        0.775        0.137      112.076       20.529        0.034      331.764       -0.011      864.964
01/01/2015  16:13:00       58.181       47.709        4.748       29.252       25.198       24.503      855.679      634.939      600.404        0.389        0.105       75.241       19.472        0.067      331.761       -0.016      864.959
01/01/2015  16:14:00      125.111       68.355        6.934       27.973       21.946       25.935      782.511      481.619      672.633        1.115        0.097      142.566       13.575        0.009      331.803        0.053      864.953
01/01/2015  16:15:00       95.355       66.408       13.301       46.042       33.948       33.071     2119.840     1152.484     1093.697        0.902        0.218      116.201       31.559        0.074      331.820        0.079      864.952
01/01/2015  16:16:00       21.427       50.417       75.615       50.443       49.119       40.756     2544.520     2412.641     1661.087        0.767        0.331       54.782       35.474        0.419      331.851        0.133      864.953
01/01/2015  16:17:00       69.419       80.743       38.520       45.273       32.934       42.206     2049.631     1084.664     1781.320        0.887        0.246      106.482       36.864        0.120      331.834        0.104      864.936
01/01/2015  16:18:00       87.456       70.928       22.193       37.347       20.032       24.077     1394.819      401.282      579.685        0.777        0.119      112.603       15.181        0.018      331.823        0.087      864.924
01/01/2015  16:19:00       40.764       34.710       30.416       28.321       19.746       17.329      802.060      389.891      300.298        0.264        0.075       53.540       13.587        0.064      331.812        0.069      864.920
01/01/2015  16:20:00       56.213       43.165       42.645       35.506       30.427       21.876     1260.647      925.779      478.548        0.475        0.133       70.874       14.499        0.042      331.808        0.062      864.922
01/01/2015  16:21:00       23.393       27.323       28.301       32.268       27.985       27.316     1041.243      783.141      746.154        0.233        0.129       35.970       22.787        0.401      331.868        0.160      864.914
01/01/2015  16:22:00        8.526       58.097       71.988       30.815       35.526       23.175      949.562     1262.085      537.094        0.569        0.137       58.719       17.302        0.087      331.854        0.137      864.907
01/01/2015  16:23:00        0.755       43.724       67.207       34.214       39.733       30.853     1170.585     1578.722      951.890        0.506        0.185       43.731       30.581        0.489      331.812        0.068      864.904
01/01/2015  16:24:00        0.933      -13.111       12.675       15.744       26.351       23.872      247.870      694.381      569.895        0.092        0.076       13.144       19.445        2.189      331.856        0.143      864.908
01/01/2015  16:25:00       53.519      -82.730       -6.453       36.039       43.925       23.970     1298.822     1929.430      574.557        0.678        0.190       98.532       21.264        0.047      331.913        0.233      864.909
01/01/2015  16:26:00       53.415      -30.332       12.202       47.132       45.788       30.150     2221.421     2096.518      909.040        0.457        0.261       61.427       35.422        0.333      331.824        0.086      864.906
01/01/2015  16:27:00       70.734      -89.129      -11.403       43.421       38.634       24.012     1885.414     1492.560      576.575        0.852        0.198      113.787       21.383        0.035      331.873        0.170      864.918
01/01/2015  16:28:00       26.236      -17.005       25.169       32.703       46.006       28.599     1069.457     2116.585      817.901        0.281        0.200       31.265       30.889        0.976      331.771        0.002      864.912
01/01/2015  16:29:00       -9.092      -32.350       21.340       29.171       32.088       19.395      850.923     1029.659      376.173        0.192        0.113       33.603       11.786        0.123      331.856        0.141      864.895
01/01/2015  16:30:00        8.468      -49.665        5.992       34.835       47.326       30.035     1213.463     2239.770      902.119        0.346        0.218       50.382       24.274        0.232      331.887        0.192      864.882
01/01/2015  16:31:00      -14.151       -7.317       10.180       20.552       31.743       20.003      422.375     1007.588      400.122        0.109        0.092       15.931       16.176        1.031      331.838        0.111      864.870
01/01/2015  16:32:00      -18.908       12.954        7.337       25.932       28.246       26.120      672.478      797.811      682.248        0.137        0.108       22.920       23.837        1.082      331.818        0.078      864.876
01/01/2015  16:33:00      -66.732      -13.753       -9.246       37.085       30.770       22.226     1375.298      946.799      494.004        0.377        0.141       68.134       17.024        0.062      331.825        0.091      864.881
01/01/2015  16:34:00      -18.836      -10.684       12.554       31.827       31.873       20.336     1012.987     1015.907      413.564        0.153        0.122       21.655       19.126        0.780      331.782        0.020      864.883
01/01/2015  16:35:00      -59.549      -51.144        4.307       52.479       37.330       26.003     2754.027     1393.521      676.163        0.550        0.241       78.497       22.235        0.080      331.805        0.056      864.880
01/01/2015  16:36:00      -13.062      -42.589       -5.696       48.468       32.288       20.837     2349.173     1042.532      434.173        0.292        0.191       44.547       11.349        0.065      331.859        0.147      864.884
01/01/2015  16:37:00      -50.810      -23.304        1.439       52.319       23.826       21.575     2737.306      567.662      465.490        0.345        0.189       55.900       17.924        0.103      331.776        0.010      864.888
01/01/2015  16:38:00      -65.117      -42.694        6.471       57.896       39.610       28.763     3351.974     1568.929      827.307        0.593        0.287       77.865       16.591        0.045      331.685       -0.141      864.891
01/01/2015  16:39:00      -54.393      -52.619        0.806       48.048       41.211       23.296     2308.563     1698.319      542.692        0.514        0.227       75.680       15.534        0.042      331.732       -0.062      864.890
01/01/2015  16:40:00      -93.021      -56.110        4.142       46.788       45.831       21.701     2189.108     2100.463      470.942        0.829        0.238      108.633       17.180        0.025      331.697       -0.120      864.891
01/01/2015  16:41:00     -134.913      -94.528       -0.382       61.343       64.943       31.676     3762.917     4217.658     1003.339        1.806        0.449      164.734       32.890        0.040      331.579       -0.317      864.896
01/01/2015  16:42:00     -132.078     -125.461       -9.580       66.639       46.374       38.904     4440.770     2150.510     1513.499        2.069        0.405      182.168       39.235        0.046      331.557       -0.352      864.908
01/01/2015  16:43:00     -110.287      -79.099       -1.191       40.699       42.653       24.543     1656.405     1819.316      602.357        1.125        0.204      135.720       20.291        0.022      331.578       -0.318      864.924
01/01/2015  16:44:00     -127.163     -112.662      -10.306       52.694       53.976       25.442     2776.700     2913.370      647.279        1.765        0.317      169.892       24.111        0.020      331.572       -0.327      864.940
01/01/2015  16:45:00     -126.522      -74.121       -1.083       45.150       39.713       24.111     2038.524     1577.109      581.326        1.285        0.210      146.635       25.846        0.031      331.593       -0.292      864.959
01/01/2015  16:46:00     -122.928      -50.522       -1.374       41.808       29.085       22.713     1747.895      845.925      515.869        1.039        0.155      132.905       18.389        0.019      331.553       -0.359      864.968
01/01/2015  16:47:00      -88.758      -76.521       -9.518       47.721       35.197       19.075     2277.342     1238.851      363.848        0.885        0.194      117.190       23.313        0.040      331.605       -0.273      864.961
01/01/2015  16:48:00     -126.785      -66.728        6.006       62.148       55.841       32.532     3862.313     3118.230     1058.302        1.430        0.402      143.273       34.484        0.058      331.543       -0.375      864.951
01/01/2015  16:49:00      -94.262      -41.554        3.397       38.599       44.245       24.720     1489.888     1957.643      611.102        0.734        0.203      103.014       20.607        0.040      331.560       -0.346      864.949
01/01/2015  16:50:00     -107.366     -114.851       -7.638       45.359       36.872       25.622     2057.417     1359.571      656.496        1.442        0.204      157.220       25.504        0.026      331.584       -0.307      864.942
01/01/2015  16:51:00     -127.283      -67.387       -2.663       54.080       38.673       22.808     2924.697     1495.613      520.188        1.284        0.247      144.021       17.328        0.014      331.596       -0.286      864.936
01/01/2015  16:52:00      -86.868      -45.084        9.408       68.185       41.515       28.159     4649.167     1723.526      792.953        0.841        0.358       97.870       37.772        0.149      331.519       -0.414      864.917
01/01/2015  16:53:00      -89.721      -95.635       -4.032       46.564       37.095       31.706     2168.199     1376.076     1005.298        1.088        0.227      131.134       26.321        0.040      331.564       -0.339      864.905
01/01/2015  16:54:00      -95.789      -94.368       -6.878       42.895       40.288       22.375     1839.961     1623.125      500.650        1.105        0.198      134.465       16.684        0.015      331.574       -0.324      864.892
01/01/2015  16:55:00      -88.905      -79.951        6.217       53.752       39.313       33.870     2889.281     1545.485     1147.153        0.996        0.279      119.567       29.924        0.063      331.530       -0.396      864.898
01/01/2015  16:56:00      -75.326      -82.022        1.232       35.587       44.283       22.927     1266.460     1960.973      525.658        0.808        0.188      111.362       19.984        0.032      331.576       -0.320      864.916
01/01/2015  16:57:00      -94.786      -54.612        2.028       54.802       36.909       27.443     3003.259     1362.303      753.113        0.854        0.256      109.393       36.115        0.109      331.554       -0.356      864.925
01/01/2015  16:58:00     -102.858      -55.936       -3.933       39.022       36.745       20.874     1522.748     1350.177      435.731        0.852        0.165      117.083       23.795        0.041      331.544       -0.373      864.925
01/01/2015  16:59:00      -89.575      -71.565       -0.416       43.527       28.669       20.788     1894.626      821.895      432.156        0.815        0.157      114.652       23.792        0.043      331.563       -0.342      864.920
01/01/2015  17:00:00      -37.658      -21.769        6.301       31.022       23.903       18.646      962.368      571.348      347.688        0.191        0.094       43.497       16.888        0.151      331.537       -0.383      864.918
01/01/2015  17:01:00      -51.677      -43.217        0.411       27.264       19.079       15.305      743.344      364.024      234.242        0.294        0.067       67.366       16.186        0.058      331.573       -0.325      864.911
01/01/2015  17:02:00      -57.322      -63.156       -1.537       42.997       40.663       21.647     1848.710     1653.445      468.613        0.562        0.199       85.290       22.093        0.067      331.549       -0.365      864.907
01/01/2015  17:03:00      -80.043      -56.383        2.855       39.379       37.419       23.058     1550.704     1400.197      531.659        0.654        0.174       97.907       23.697        0.059      331.493       -0.456      864.910
01/01/2015  17:04:00      -43.551      -32.645        6.809       40.729       29.530       18.521     1658.849      872.023      343.029        0.294        0.144       54.428       18.962        0.121      331.480       -0.478      864.913
01/01/2015  17:05:00        4.186      -12.630       11.942       20.032       20.636       12.048      401.282      425.832      145.157        0.065        0.049       13.306       10.696        0.646      331.489       -0.463      864.914
01/01/2015  17:06:00      -17.771      -23.012       14.673       41.685       21.673       13.702     1737.631      469.703      187.753        0.173        0.120       29.075       14.106        0.235      331.555       -0.353      864.908
01/01/2015  17:07:00      -27.420      -18.800        3.409       28.666       23.561       14.338      821.712      555.107      205.576        0.135        0.079       33.246       14.738        0.197      331.461       -0.509      864.906
01/01/2015  17:08:00      -50.219      -46.585       -2.522       22.671       23.694       16.797      513.979      561.388      282.156        0.303        0.068       68.500        9.456        0.019      331.536       -0.385      864.906
01/01/2015  17:09:00       -7.686      -13.101        5.429       18.565       16.197       15.824      344.666      262.332      250.390        0.056        0.043       15.189        8.075        0.283      331.533       -0.391      864.899
01/01/2015  17:10:00      -15.353       -6.402        3.633       27.342       11.814       17.005      747.605      139.561      289.162        0.073        0.059       16.635        8.656        0.271      331.496       -0.452      864.884
01/01/2015  17:11:00       -4.933      -14.090        4.976       14.805       16.511       10.468      219.184      272.605      109.576        0.042        0.030       14.929        6.591        0.195      331.504       -0.438      864.874
01/01/2015  17:12:00        0.261        0.715        6.600       10.945       17.256       10.909      119.797      297.776      119.000        0.029        0.027        0.761       10.568      192.944      331.410       -0.593      864.870
01/01/2015  17:13:00       26.516       11.968       11.795       15.387       17.285       11.902      236.750      298.787      141.653        0.083        0.034       29.091        9.914        0.116      331.423       -0.572      864.882
01/01/2015  17:14:00      -14.510       12.772        0.441       20.965       20.043       12.987      439.516      401.731      168.672        0.069        0.050       19.330       11.369        0.346      331.425       -0.568      864.896
01/01/2015  17:15:00      -40.072      -10.342        2.768       23.050       30.459       15.180      531.321      927.774      230.433        0.170        0.084       41.385       14.219        0.118      331.441       -0.542      864.908
01/01/2015  17:16:00      -53.844      -16.768       -2.121       26.076       24.456       17.798      679.943      598.091      316.776        0.239        0.080       56.395       12.940        0.053      331.442       -0.540      864.927
01/01/2015  17:17:00       -3.655        7.406       19.472       18.148       16.277       13.838      329.338      264.956      191.501        0.062        0.039        8.259        6.841        0.686      331.312       -0.755      864.932
01/01/2015  17:18:00      -53.461      -38.174       -1.477       24.955       23.203       15.046      622.754      538.363      226.389        0.285        0.069       65.691       13.368        0.041      331.455       -0.520      864.936
01/01/2015  17:19:00      -24.477      -38.505       -0.397       32.738       21.946       11.909     1071.804      481.627      141.817        0.189        0.085       45.626        7.363        0.026      331.439       -0.546      864.918
01/01/2015  17:20:00       -2.957      -12.199        7.857       22.352       20.531       16.700      499.622      421.536      278.881        0.071        0.060       12.552       13.161        1.099      331.382       -0.641      864.898
01/01/2015  17:21:00        8.267       -4.677        4.437       15.356       22.897       11.633      235.810      524.267      135.317        0.050        0.045        9.498        9.970        1.102      331.333       -0.720      864.882
01/01/2015  17:22:00       11.583        9.413        0.870       25.612       19.934       12.873      655.994      397.382      165.709        0.072        0.061       14.925        8.207        0.302      331.399       -0.612      864.874
01/01/2015  17:23:00       17.855        3.706       -1.774       15.498       16.454       13.926      240.200      270.748      193.934        0.052        0.035       18.236        5.657        0.096      331.377       -0.646      864.882
01/01/2015  17:24:00      -21.599      -22.464       -3.137       27.175       22.169       14.863      738.507      491.462      220.896        0.122        0.073       31.163        9.986        0.103      331.325       -0.732      864.886
01/01/2015  17:25:00        6.259       20.219       11.934       22.517       21.589       11.339      507.004      466.066      128.566        0.085        0.055       21.166        5.542        0.069      331.202       -0.936      864.900
01/01/2015  17:26:00       10.771        9.578       16.850       18.961       14.115       11.242      359.528      199.231      126.381        0.059        0.034       14.414        8.708        0.365      331.101       -1.102      864.895
01/01/2015  17:27:00      -13.423       21.938       -5.436       19.553       14.345       16.556      382.303      205.765      274.102        0.078        0.043       25.719       14.395        0.313      331.250       -0.855      864.893
01/01/2015  17:28:00        4.269       13.252       -1.360       16.749       11.281       12.421      280.541      127.267      154.273        0.038        0.028       13.923        7.781        0.312      331.301       -0.772      864.880
01/01/2015  17:29:00       -0.448        2.607        7.947       13.224        7.059       13.312      174.878       49.835      177.214        0.024        0.020        2.645       10.890       16.949      331.052       -1.182      864.878
01/01/2015  17:30:00      -15.544        0.173      -12.184       12.376       17.817        9.570      153.162      317.432       91.593        0.048        0.028       15.545        6.943        0.199      331.238       -0.875      864.871
01/01/2015  17:31:00      -22.596       -0.178       -9.798       11.449       10.305        7.064      131.082      106.200       49.900        0.045        0.014       22.596        4.399        0.038      331.255       -0.847      864.871
01/01/2015  17:32:00        5.837       16.836        2.466        9.169        9.509        5.445       84.070       90.424       29.648        0.026        0.010       17.819        4.323        0.059      331.234       -0.881      864.867
01/01/2015  17:33:00       19.638       33.196       -4.770       13.201        9.950       10.661      174.254       98.998      113.667        0.095        0.019       38.570        8.033        0.043      331.138       -1.042      864.869
01/01/2015  17:34:00       60.766       32.273       -1.172       32.203       22.929       21.658     1037.015      525.762      469.077        0.338        0.102       68.805       15.953        0.054      330.958       -1.336      864.850
01/01/2015  17:35:00       83.647       52.302        7.282       35.605       18.652       19.236     1267.717      347.895      370.015        0.589        0.099       98.652        8.711        0.008      330.833       -1.542      864.837
01/01/2015  17:36:00       90.954       52.690       10.701       40.517       36.725       28.592     1641.666     1348.736      817.507        0.748        0.190      105.114       20.835        0.039      330.806       -1.584      864.833
01/01/2015  17:37:00       91.343       50.398        8.713       32.542       25.336       20.988     1058.978      641.912      440.496        0.655        0.107      104.325       12.148        0.014      330.798       -1.599      864.839
01/01/2015  17:38:00      120.007       55.755       19.522       29.953       24.573       24.667      897.190      603.812      608.456        1.000        0.105      132.327       20.532        0.024      330.893       -1.443      864.847
01/01/2015  17:39:00       90.358       42.663       34.083       40.821       22.176       23.931     1666.330      491.778      572.689        0.694        0.137       99.924       19.847        0.039      330.859       -1.498      864.844
01/01/2015  17:40:00       62.100       29.199       11.310       48.137       33.087       24.175     2317.168     1094.723      584.438        0.442        0.200       68.622       21.398        0.097      330.824       -1.556      864.835
01/01/2015  17:41:00       63.354       25.243       10.505       37.952       31.392       23.963     1440.350      985.432      574.224        0.388        0.150       68.198       18.157        0.071      330.809       -1.580      864.829
01/01/2015  17:42:00       81.602       38.583       12.905       29.164       21.716       24.154      850.546      471.579      583.429        0.511        0.095       90.264       15.887        0.031      330.851       -1.511      864.825
01/01/2015  17:43:00       42.224       40.436       32.223       31.677       20.276       21.126     1003.404      411.117      446.302        0.316        0.093       58.463       20.849        0.127      330.742       -1.691      864.831
01/01/2015  17:44:00       70.416       36.968        7.566       38.443       26.956       23.943     1477.841      726.599      573.267        0.458        0.139       79.530       16.170        0.041      330.852       -1.509      864.825
01/01/2015  17:45:00       57.133       26.636       11.939       23.728       19.709       18.458      563.040      388.433      340.710        0.270        0.065       63.037       11.737        0.035      330.818       -1.566      864.831
01/01/2015  17:46:00       68.288       44.397       24.808       27.277       25.948       18.502      744.060      673.305      342.336        0.450        0.088       81.452       12.838        0.025      330.790       -1.612      864.827
01/01/2015  17:47:00       60.037       55.413       30.559       22.213       25.527       21.582      493.405      651.636      465.801        0.461        0.081       81.701       14.264        0.030      330.811       -1.578      864.840
01/01/2015  17:48:00       65.482       33.884       16.176       24.681       18.849       16.815      609.157      355.302      282.757        0.347        0.062       73.730       10.778        0.021      330.771       -1.644      864.840
01/01/2015  17:49:00       75.654       40.921       13.727       23.924       22.529       16.784      572.355      507.570      281.691        0.447        0.068       86.012       11.094        0.017      330.747       -1.683      864.856
01/01/2015  17:50:00       84.186       42.533       16.605       24.294       15.555       18.567      590.189      241.955      344.727        0.517        0.059       94.321       14.012        0.022      330.754       -1.672      864.864
01/01/2015  17:51:00       71.597       42.290        8.891       27.109       19.721       19.344      734.912      388.921      374.201        0.425        0.075       83.154       16.274        0.038      330.710       -1.743      864.870
01/01/2015  17:52:00       80.506       27.645       17.045       34.605       29.004       19.756     1197.494      841.226      390.284        0.498        0.121       85.120       17.149        0.041      330.750       -1.678      864.877
01/01/2015  17:53:00       58.055       21.897       10.109       22.258       18.005       17.793      495.403      324.198      316.586        0.254        0.057       62.047        8.744        0.020      330.760       -1.661      864.879
01/01/2015  17:54:00       69.193       52.707       10.769       18.177       20.984       15.814      330.394      440.312      250.098        0.435        0.051       86.982        3.523        0.002      330.767       -1.650      864.886
01/01/2015  17:55:00       73.902       55.423       17.886       16.228       19.575       14.832      263.345      383.189      219.979        0.486        0.043       92.376       10.051        0.012      330.760       -1.660      864.889
01/01/2015  17:56:00       48.419       29.681        0.481       17.373       21.916       15.688      301.813      480.305      246.108        0.213        0.051       56.792        8.120        0.020      330.716       -1.732      864.898
01/01/2015  17:57:00       58.763       46.718        1.530       15.517       15.650       10.523      240.789      244.927      110.731        0.312        0.030       75.071        2.816        0.001      330.727       -1.714      864.902
01/01/2015  17:58:00       38.265       28.928        0.121       17.803       12.728        9.083      316.945      161.991       82.507        0.143        0.028       47.969        5.796        0.015      330.666       -1.815      864.921
01/01/2015  17:59:00       23.485       26.828        0.439       19.806       21.237       16.598      392.289      450.998      275.495        0.119        0.056       35.655       10.002        0.079      330.629       -1.874      864.935
01/01/2015  18:00:00       48.052       52.445        1.587       35.160       31.657       22.322     1236.197     1002.168      498.273        0.390        0.137       71.130       14.309        0.040      330.580       -1.956      864.945
01/01/2015  18:01:00       75.372       48.700        6.176       31.898       28.518       28.612     1017.491      813.303      818.631        0.537        0.132       89.736       17.129        0.036      330.593       -1.936      864.954
01/01/2015  18:02:00       93.672       35.679       11.924       37.279       26.331       23.335     1389.692      693.297      544.508        0.641        0.131      100.237       22.097        0.049      330.606       -1.914      864.969
01/01/2015  18:03:00       71.806       13.182        5.873       36.208       29.484       26.883     1311.043      869.334      722.699        0.413        0.145       73.006       18.924        0.067      330.640       -1.856      864.971
01/01/2015  18:04:00       90.571       44.419        3.466       27.489       21.524       22.980      755.664      463.283      528.070        0.597        0.087      100.877       19.182        0.036      330.611       -1.907      864.977
01/01/2015  18:05:00       77.502       33.181        7.651       24.416       20.767       17.112      596.144      431.265      292.817        0.424        0.066       84.307       14.095        0.028      330.573       -1.967      864.975
01/01/2015  18:06:00       62.634       25.984        8.368       23.882       12.970       15.275      570.352      168.220      233.320        0.282        0.049       67.810       10.522        0.024      330.565       -1.980      864.983
01/01/2015  18:07:00       82.327       55.157        9.470       18.097       14.634       10.649      327.514      214.150      113.401        0.528        0.033       99.096        8.610        0.008      330.555       -1.997      864.999
01/01/2015  18:08:00       71.027       49.808       12.842       19.544       16.933       14.047      381.982      286.731      197.316        0.428        0.043       86.751       12.219        0.020      330.548       -2.008      865.002
01/01/2015  18:09:00       62.538       46.953        7.970       22.469       13.817       13.089      504.867      190.910      171.317        0.352        0.043       78.202        5.660        0.005      330.495       -2.097      865.009
01/01/2015  18:10:00       75.998       44.371        8.396       15.832       20.823       13.119      250.641      433.598      172.121        0.434        0.043       88.003        5.820        0.004      330.542       -2.019      865.025
01/01/2015  18:11:00       25.905       27.418       -1.816       19.773       14.449       11.665      390.987      208.767      136.081        0.108        0.037       37.720       11.399        0.091      330.465       -2.145      865.040
01/01/2015  18:12:00       36.690       24.692        6.687       18.829       16.966       15.535      354.536      287.842      241.331        0.144        0.044       44.225       10.294        0.054      330.438       -2.190      865.046
01/01/2015  18:13:00       32.628       21.553        1.310       19.122       18.424       10.776      365.645      339.427      116.124        0.118        0.041       39.104        8.556        0.048      330.483       -2.115      865.063
01/01/2015  18:14:00       21.799       32.762        5.056       18.332       18.241       14.253      336.064      332.731      203.143        0.122        0.044       39.352       12.155        0.095      330.414       -2.228      865.061
01/01/2015  18:15:00       40.379       47.222       -0.815       16.573       18.651       13.224      274.659      347.862      174.868        0.233        0.040       62.132        7.178        0.013      330.462       -2.151      865.066
01/01/2015  18:16:00       34.933       34.790       -0.587       21.050       16.105       14.493      443.108      259.357      210.044        0.167        0.046       49.302       11.710        0.056      330.497       -2.092      865.068
01/01/2015  18:17:00       25.867       46.286       -6.220       14.423       18.431       11.012      208.017      339.688      121.266        0.176        0.033       53.023       10.978        0.043      330.499       -2.089      865.063
01/01/2015  18:18:00        7.453       52.542       -8.776       17.478       11.000       10.142      305.472      120.993      102.870        0.171        0.026       53.068       10.789        0.041      330.517       -2.059      865.067
01/01/2015  18:19:00       29.167       40.616        1.592       19.725       19.823       13.174      389.064      392.952      173.565        0.173        0.048       50.003       13.284        0.071      330.486       -2.111      865.061
01/01/2015  18:20:00       25.942       55.781       -7.652       13.418       19.479       13.430      180.050      379.443      180.357        0.229        0.037       61.518       10.036        0.027      330.480       -2.119      865.042
01/01/2015  18:21:00       28.551       56.225       -4.483       16.005       15.261       10.711      256.171      232.894      114.730        0.230        0.030       63.059        9.228        0.021      330.455       -2.159      865.035
01/01/2015  18:22:00       27.037       26.762        5.665       15.276       14.169        9.898      233.365      200.764       97.980        0.101        0.027       38.042        7.086        0.035      330.406       -2.244      865.024
01/01/2015  18:23:00       35.757       26.595        2.492       13.657       11.406        9.647      186.515      130.093       93.059        0.120        0.020       44.563        8.075        0.033      330.430       -2.202      865.019
01/01/2015  18:24:00       26.194       34.356       -2.862       15.094       21.422       13.016      227.831      458.915      169.413        0.137        0.043       43.202       13.791        0.102      330.415       -2.227      865.024
01/01/2015  18:25:00       31.426       33.931       -7.297       21.755       18.308       10.942      473.273      335.194      119.731        0.156        0.046       46.248       10.006        0.047      330.376       -2.291      865.034
01/01/2015  18:26:00       21.271       65.694       -8.288       19.508       24.114       15.143      380.550      581.509      229.299        0.301        0.060       69.052       17.308        0.063      330.398       -2.255      865.038
01/01/2015  18:27:00       32.782       68.694       -7.297       22.065       24.539       16.391      486.853      602.163      268.671        0.360        0.068       76.115       11.825        0.024      330.333       -2.361      865.034
01/01/2015  18:28:00       20.392       64.648       -8.609       22.293       23.940       16.403      496.983      573.121      269.045        0.300        0.067       67.788       16.057        0.056      330.344       -2.343      865.040
01/01/2015  18:29:00       29.944       63.084      -11.099       14.930       31.815       14.974      222.917     1012.176      224.211        0.323        0.073       69.830       15.494        0.049      330.333       -2.362      865.030
01/01/2015  18:30:00       16.752       57.061       -3.262       18.635       21.743       16.995      347.246      472.765      288.835        0.233        0.055       59.469       14.701        0.061      330.306       -2.407      865.008
01/01/2015  18:31:00       36.513       75.194      -10.780       19.876       23.305       17.258      395.049      543.122      297.841        0.417        0.062       83.590       14.209        0.029      330.319       -2.384      864.992
01/01/2015  18:32:00       50.094       66.973       -2.259       37.193       32.266       26.132     1383.298     1041.121      682.890        0.505        0.155       83.634       18.272        0.048      330.281       -2.447      864.988
01/01/2015  18:33:00       74.065       54.828        9.183       29.369       23.865       26.808      862.536      569.544      718.679        0.536        0.108       92.150       20.189        0.048      330.291       -2.430      864.990
01/01/2015  18:34:00       50.306       40.693       14.616       24.316       15.228       15.937      591.263      231.896      253.988        0.274        0.054       64.704       11.644        0.032      330.232       -2.527      864.990
01/01/2015  18:35:00       38.435       44.379        0.519       17.542       19.477       10.785      307.726      379.347      116.317        0.213        0.040       58.709        7.886        0.018      330.240       -2.514      865.005
01/01/2015  18:36:00       32.696       57.216       -5.609       23.639       26.617       20.896      558.804      708.487      436.650        0.304        0.085       65.899       19.799        0.090      330.235       -2.521      865.013
01/01/2015  18:37:00       39.110       72.680       -6.793       21.432       31.236       21.578      459.321      975.663      465.593        0.438        0.095       82.535       19.853        0.058      330.252       -2.494      865.020
01/01/2015  18:38:00       26.057       44.760        0.671       31.250       31.827       23.826      976.557     1012.933      567.695        0.262        0.128       51.792       23.392        0.204      330.260       -2.480      865.022
01/01/2015  18:39:00       25.769       66.437       -6.599       22.244       30.874       19.983      494.814      953.217      399.302        0.348        0.092       71.259       18.264        0.066      330.243       -2.509      865.036
01/01/2015  18:40:00       29.380       90.215       -8.179       20.951       25.995       21.455      438.964      675.738      460.306        0.532        0.079       94.878       16.327        0.030      330.254       -2.492      865.029
01/01/2015  18:41:00       22.561       59.658       -6.844       24.271       33.537       19.980      589.078     1124.709      399.214        0.311        0.106       63.781       17.652        0.077      330.202       -2.576      865.020
01/01/2015  18:42:00       35.137       66.972       -7.348       30.943       35.221       20.059      957.485     1240.507      402.364        0.419        0.130       75.630       21.608        0.082      330.213       -2.557      865.012
01/01/2015  18:43:00       24.097       85.028      -13.480       17.621       20.805       16.256      310.498      432.856      264.258        0.450        0.050       88.376       11.840        0.018      330.231       -2.529      865.019
01/01/2015  18:44:00       30.844       54.171       -2.029       20.505       22.677       19.136      420.458      514.237      366.204        0.260        0.065       62.337       15.561        0.062      330.235       -2.522      865.015
01/01/2015  18:45:00       20.269       44.639       -1.063       20.187       23.305       16.191      407.507      543.145      262.157        0.181        0.061       49.026       15.475        0.100      330.217       -2.552      865.011
01/01/2015  18:46:00       24.468       79.761      -13.746       15.589       21.568       14.895      243.007      465.166      221.867        0.404        0.047       83.429       12.913        0.024      330.230       -2.531      865.025
01/01/2015  18:47:00       28.448       61.152       -4.145       21.763       29.422       19.971      473.631      865.638      398.826        0.315        0.087       67.446       19.930        0.087      330.194       -2.590      865.048
01/01/2015  18:48:00       28.251       51.639       -2.398       19.183       24.097       17.721      368.003      580.686      314.031        0.237        0.063       58.861       14.758        0.063      330.172       -2.625      865.059
01/01/2015  18:49:00       30.847       52.697        0.392       20.693       27.159       15.455      428.218      737.621      238.856        0.257        0.070       61.062       14.350        0.055      330.173       -2.625      865.061
01/01/2015  18:50:00       26.746       33.991        0.297       21.182       29.026       19.315      448.664      842.532      373.059        0.177        0.083       43.252       17.650        0.167      330.156       -2.653      865.064
01/01/2015  18:51:00       30.867       60.907       -7.845       17.029       20.906       11.496      289.993      437.073      132.150        0.279        0.043       68.282       10.024        0.022      330.186       -2.602      865.063
01/01/2015  18:52:00       22.962       38.898       -2.327       14.652       22.334       17.278      214.686      498.791      298.532        0.153        0.051       45.170       15.258        0.114      330.185       -2.604      865.058
01/01/2015  18:53:00       15.638       69.134       -9.119       15.793       13.263       11.682      249.415      175.904      136.467        0.283        0.028       70.881        8.466        0.014      330.210       -2.563      865.058
01/01/2015  18:54:00       10.994       56.207      -11.555       14.534       13.209        6.687      211.246      174.468       44.709        0.192        0.022       57.272        4.879        0.007      330.255       -2.488      865.070
01/01/2015  18:55:00        6.056       56.674      -10.567        9.563       13.024        6.318       91.452      169.628       39.921        0.183        0.015       56.997        6.313        0.012      330.279       -2.448      865.065
01/01/2015  18:56:00       18.341       36.801       -0.308       13.421       13.709       11.665      180.112      187.946      136.071        0.110        0.025       41.119        8.228        0.040      330.236       -2.521      865.049
01/01/2015  18:57:00       22.724       34.145       -1.862       14.164       12.241       10.945      200.612      149.839      119.794        0.108        0.024       41.015        8.381        0.042      330.180       -2.613      865.038
01/01/2015  18:58:00       18.037       41.242       -7.915       13.696       15.899        9.737      187.586      252.792       94.804        0.131        0.027       45.014        9.425        0.044      330.207       -2.568      865.046
01/01/2015  18:59:00        7.090       45.614       -6.762        9.186        8.546        5.325       84.374       73.035       28.353        0.118        0.009       46.162        4.002        0.008      330.230       -2.530      865.062
01/01/2015  19:00:00       -5.872       49.237       -9.582       14.079        8.669        6.586      198.208       75.150       43.373        0.143        0.016       49.586        5.012        0.010      330.190       -2.596      865.072
01/01/2015  19:01:00        3.181       43.460       -9.314       20.018       13.237        7.944      400.702      175.217       63.108        0.131        0.032       43.576        7.075        0.026      330.238       -2.518      865.071
01/01/2015  19:02:00       -6.322       34.319       -8.108       11.065        9.316        6.186      122.444       86.791       38.271        0.077        0.012       34.896        6.115        0.031      330.235       -2.522      865.062
01/01/2015  19:03:00      -26.829       15.904       -6.218       16.179       14.061       12.485      261.763      197.713      155.867        0.081        0.031       31.189        7.844        0.063      329.881       -3.102      865.049
01/01/2015  19:04:00      -20.457       24.603       -4.283       16.086       13.866        9.632      258.763      192.266       92.780        0.079        0.027       31.996        6.331        0.039      330.075       -2.785      865.055
01/01/2015  19:05:00      -14.915       31.212       -1.769       10.186       13.228        9.730      103.756      174.978       94.669        0.079        0.019       34.592        8.130        0.055      330.133       -2.689      865.067
01/01/2015  19:06:00        5.126       29.621       -3.291       11.630       11.773        5.443      135.255      138.599       29.627        0.061        0.015       30.061        5.330        0.031      330.112       -2.725      865.086
01/01/2015  19:07:00      -19.889       27.328      -10.084       18.049       17.386        9.712      325.780      302.279       94.330        0.098        0.036       33.799        5.276        0.024      330.205       -2.572      865.100
01/01/2015  19:08:00      -62.702       -4.029      -13.083       10.306        9.798        7.071      106.205       96.000       49.994        0.219        0.013       62.832        4.197        0.004      329.587       -3.583      865.124
01/01/2015  19:09:00      -73.625      -11.759      -12.697       19.074        9.762       10.327      363.832       95.303      106.655        0.314        0.028       74.558        9.674        0.017      329.391       -3.904      865.144
01/01/2015  19:10:00      -78.749      -10.924      -15.492       10.984       10.553       10.801      120.655      111.363      116.652        0.345        0.017       79.504        3.222        0.002      329.336       -3.993      865.150
01/01/2015  19:11:00      -65.140      -20.868      -14.590       12.535       14.185       11.571      157.131      201.204      133.890        0.269        0.025       68.401        7.068        0.011      329.338       -3.990      865.139
01/01/2015  19:12:00      -60.375      -19.502      -15.413       14.733       12.949        9.110      217.065      167.673       83.001        0.237        0.023       63.446        6.963        0.012      329.363       -3.949      865.123
01/01/2015  19:13:00      -62.433       -8.607      -14.667       12.225       11.909       10.415      149.460      141.826      108.471        0.229        0.020       63.023        7.646        0.015      329.285       -4.077      865.115
01/01/2015  19:14:00      -68.176       -8.316      -10.936       12.459       12.530       10.257      155.222      156.998      105.215        0.263        0.021       68.681        5.403        0.006      329.407       -3.878      865.115
01/01/2015  19:15:00      -72.518      -17.659      -13.116       17.190       10.597        8.628      295.501      112.303       74.445        0.311        0.024       74.637        6.665        0.008      329.359       -3.957      865.115
01/01/2015  19:16:00      -88.912      -10.625      -15.047       13.886       12.564        9.571      192.817      157.849       91.607        0.434        0.022       89.545        3.356        0.001      329.391       -3.904      865.112
01/01/2015  19:17:00      -97.915      -14.874      -12.274       15.480       21.368       12.953      239.627      456.576      167.769        0.541        0.043       99.038        7.126        0.005      329.253       -4.129      865.123
01/01/2015  19:18:00      -91.172       -9.795      -14.986       19.682       15.879       11.659      387.386      252.148      135.924        0.470        0.039       91.697        4.738        0.003      329.284       -4.079      865.133
01/01/2015  19:19:00     -111.441       -8.269      -17.055       24.751       21.979       15.651      612.611      483.056      244.963        0.706        0.067      111.747       12.538        0.013      329.204       -4.210      865.146
01/01/2015  19:20:00     -116.898        0.063      -13.376       25.158       22.679       16.904      632.922      514.356      285.746        0.764        0.072      116.898        8.357        0.005      329.215       -4.191      865.157
01/01/2015  19:21:00     -106.480      -10.787      -12.880       28.877       18.889       15.148      833.871      356.790      229.453        0.652        0.071      107.025       15.731        0.022      329.185       -4.241      865.148
01/01/2015  19:22:00     -102.700       -6.909      -10.445       23.675       17.504       12.520      560.520      306.407      156.761        0.586        0.051      102.933        8.377        0.007      329.248       -4.137      865.143
01/01/2015  19:23:00      -56.868      -13.962      -10.104       14.667       13.368        8.836      215.131      178.702       78.076        0.200        0.024       58.557        7.427        0.016      329.193       -4.227      865.146
01/01/2015  19:24:00      -48.515      -19.612      -10.127        8.862       13.175        8.383       78.534      173.579       70.267        0.158        0.016       52.329        2.553        0.002      329.309       -4.037      865.151
01/01/2015  19:25:00      -57.691      -19.229      -18.187       10.858        7.445        9.295      117.897       55.431       86.397        0.214        0.013       60.811        3.809        0.004      329.334       -3.996      865.135
01/01/2015  19:26:00      -50.407      -21.419      -17.214       14.894       15.464       10.020      221.836      239.147      100.409        0.193        0.028       54.769        5.481        0.010      329.373       -3.932      865.123
01/01/2015  19:27:00      -60.916      -16.879      -11.006       14.217       11.933        9.607      202.133      142.387       92.300        0.228        0.022       63.211        4.741        0.006      329.269       -4.102      865.115
01/01/2015  19:28:00      -52.000      -13.386      -10.528        7.950        8.916        7.093       63.208       79.489       50.317        0.159        0.010       53.695        3.438        0.004      329.206       -4.205      865.105
01/01/2015  19:29:00      -46.313      -23.344      -10.130        9.050        9.731        8.858       81.901       94.699       78.465        0.152        0.013       51.864        4.253        0.007      329.237       -4.157      865.086
01/01/2015  19:30:00      -47.048      -18.572       -7.824       13.196        9.641        6.441      174.126       92.951       41.484        0.146        0.015       50.581        4.213        0.007      329.240       -4.150      865.079
01/01/2015  19:31:00      -29.115       -2.845       -4.397       16.628       14.723       10.387      276.502      216.761      107.883        0.074        0.030       29.254        8.683        0.088      329.560       -3.628      865.082
01/01/2015  19:32:00      -43.213        4.902      -10.024        8.919       11.909        7.145       79.555      141.814       51.052        0.113        0.014       43.490        5.484        0.016      329.491       -3.739      865.086
01/01/2015  19:33:00      -29.363       12.714       -7.777       10.329       12.076        7.247      106.683      145.824       52.515        0.069        0.015       31.997        4.386        0.019      329.623       -3.524      865.085
01/01/2015  19:34:00      -13.738       13.460       -5.991       19.272       21.492        9.698      371.408      461.895       94.054        0.067        0.046       19.233        6.580        0.117      329.731       -3.347      865.091
01/01/2015  19:35:00        3.108       22.009       -3.823       11.343       19.635        8.895      128.659      385.536       79.116        0.055        0.030       22.228        9.158        0.170      329.998       -2.910      865.095
01/01/2015  19:36:00       -2.524       11.352        3.997       11.899       12.636       12.709      141.596      159.676      161.509        0.031        0.023       11.629        9.915        0.727      329.677       -3.435      865.081
01/01/2015  19:37:00       -7.129       13.644       -2.026       11.915       10.522        8.085      141.958      110.711       65.367        0.028        0.016       15.395        5.814        0.143      329.889       -3.087      865.068
01/01/2015  19:38:00       10.433        7.703       -1.351        5.415        5.781        6.453       29.322       33.423       41.639        0.014        0.005       12.969        2.906        0.050      329.985       -2.930      865.075
01/01/2015  19:39:00        7.157        5.101       10.058       14.210        9.071        5.759      201.932       82.283       33.167        0.025        0.016        8.789        4.980        0.321      329.941       -3.004      865.082
01/01/2015  19:40:00      -28.914      -13.575       -5.527        8.125        7.160        8.985       66.011       51.259       80.729        0.062        0.010       31.942        6.015        0.035      329.430       -3.840      865.083
01/01/2015  19:41:00      -17.617      -12.953        2.840       10.478        6.278        7.225      109.785       39.409       52.205        0.034        0.010       21.866        6.615        0.092      329.630       -3.512      865.098
01/01/2015  19:42:00      -16.761       -5.024       -7.250        8.400        8.922        4.427       70.552       79.603       19.597        0.026        0.008       17.498        2.771        0.025      329.599       -3.565      865.123
01/01/2015  19:43:00      -24.662       -6.386       -6.596        7.174        8.685        4.761       51.466       75.429       22.664        0.042        0.007       25.475        2.427        0.009      329.429       -3.841      865.131
01/01/2015  19:44:00      -16.574       -3.629        3.403       10.901        9.666        4.675      118.838       93.422       21.858        0.027        0.012       16.967        3.387        0.040      329.549       -3.645      865.131
01/01/2015  19:45:00      -24.542       -5.145       -5.704       17.990       14.687        7.484      323.628      215.699       56.017        0.063        0.030       25.076        6.551        0.068      329.627       -3.516      865.129
01/01/2015  19:46:00      -41.476      -15.287       -7.083       12.108       11.153        7.565      146.596      124.397       57.234        0.117        0.016       44.203        4.904        0.012      329.410       -3.872      865.130
01/01/2015  19:47:00      -55.096      -19.913      -13.837        6.544        8.642        7.955       42.829       74.677       63.279        0.190        0.009       58.585        1.816        0.001      329.152       -4.294      865.126
01/01/2015  19:48:00      -69.375      -23.143      -10.500       12.869       11.360        8.639      165.602      129.050       74.626        0.291        0.018       73.133        7.188        0.010      329.119       -4.348      865.119
01/01/2015  19:49:00      -70.962      -16.271      -17.362        8.408        9.120        7.976       70.691       83.182       63.612        0.291        0.011       72.804        2.655        0.001      329.091       -4.393      865.122
01/01/2015  19:50:00      -82.932      -16.351      -20.777       11.934        9.651        8.200      142.419       93.145       67.235        0.394        0.015       84.528        2.266        0.001      329.070       -4.429      865.118
01/01/2015  19:51:00      -83.062      -14.974      -15.674       11.022       14.081        8.232      121.493      198.277       67.768        0.388        0.019       84.401        3.412        0.002      329.023       -4.504      865.123
01/01/2015  19:52:00      -97.775      -10.963      -21.810       19.453       20.766       10.543      378.414      431.234      111.159        0.554        0.046       98.388        9.459        0.009      329.011       -4.524      865.133
01/01/2015  19:53:00      -71.256       -5.929       -9.424       35.019       20.675       15.724     1226.349      427.462      247.258        0.355        0.095       71.503       15.239        0.045      328.969       -4.592      865.154
01/01/2015  19:54:00      -39.032      -13.030       -0.715       27.467       29.125       15.335      754.440      848.252      235.150        0.177        0.092       41.149       12.388        0.091      328.976       -4.581      865.175
01/01/2015  19:55:00      -60.227      -10.147       -3.377       31.267       28.428       23.701      977.651      808.132      561.732        0.304        0.117       61.076       20.942        0.118      328.993       -4.554      865.184
01/01/2015  19:56:00      -69.030       -4.620       -2.460       33.889       31.060       18.861     1148.477      964.734      355.726        0.363        0.123       69.184       14.350        0.043      329.006       -4.533      865.177
01/01/2015  19:57:00      -52.844        7.677       -4.576       48.000       23.343       15.762     2303.976      544.891      248.433        0.298        0.155       53.399       17.139        0.103      328.989       -4.561      865.173
01/01/2015  19:58:00      -90.282        8.080       -4.551       44.566       30.675       21.903     1986.123      940.985      479.725        0.582        0.170       90.643       21.988        0.059      329.008       -4.531      865.176
01/01/2015  19:59:00      -78.439        2.410       -6.429       33.881       23.839       19.090     1147.923      568.288      364.424        0.414        0.104       78.476       17.354        0.049      329.033       -4.488      865.191
01/01/2015  20:00:00      -66.878        0.570        2.237       27.219       26.675       17.468      740.899      711.536      305.115        0.312        0.088       66.880       12.246        0.034      329.061       -4.443      865.210
01/01/2015  20:01:00     -120.599       13.026       -9.856       40.038       36.535       18.239     1603.016     1334.774      332.676        0.904        0.164      121.301       17.338        0.020      329.163       -4.276      865.224
01/01/2015  20:02:00     -107.806        5.174       -7.934       41.031       29.991       20.758     1683.550      899.481      430.882        0.736        0.151      107.930       19.494        0.033      329.173       -4.260      865.222
01/01/2015  20:03:00     -118.669        1.455       -8.404       24.909       28.977       15.166      620.448      839.691      230.016        0.792        0.085      118.678       11.212        0.009      329.186       -4.238      865.222
01/01/2015  20:04:00      -82.859      -15.421       -1.114       29.753       21.086       16.481      885.270      444.607      271.608        0.435        0.080       84.281       17.652        0.044      329.159       -4.283      865.222
01/01/2015  20:05:00      -97.476      -29.396       -5.610       24.850       24.671       18.349      617.542      608.655      336.681        0.598        0.078      101.812       15.073        0.022      329.127       -4.336      865.223
01/01/2015  20:06:00     -119.633      -42.402       -6.779       18.161       19.186       14.420      329.817      368.087      207.926        0.853        0.045      126.925       11.121        0.008      329.152       -4.295      865.225
01/01/2015  20:07:00     -104.848      -16.989        0.627       32.185       32.724       19.426     1035.904     1070.847      377.380        0.688        0.124      106.215       19.865        0.035      329.185       -4.240      865.236
01/01/2015  20:08:00      -82.744      -18.994        3.113       25.674       23.604       15.871      659.163      557.157      251.896        0.434        0.073       84.896       13.986        0.027      329.221       -4.181      865.236
01/01/2015  20:09:00      -89.769      -19.437       -0.595       25.888       19.423       17.269      670.169      377.253      298.227        0.489        0.067       91.849       15.786        0.030      329.269       -4.104      865.221
01/01/2015  20:10:00      -99.782      -32.691       -2.220       29.342       20.056       12.741      860.947      402.230      162.328        0.623        0.071      105.001       13.585        0.017      329.238       -4.154      865.218
01/01/2015  20:11:00      -86.709      -48.639        0.907       25.547       25.563       14.441      652.669      653.464      208.551        0.570        0.076       99.420        5.119        0.003      329.227       -4.171      865.204
01/01/2015  20:12:00      -63.439      -46.439       -3.505       39.322       22.165       15.223     1546.221      491.295      231.737        0.423        0.113       78.620        8.725        0.012      329.178       -4.252      865.194
01/01/2015  20:13:00      -69.980      -54.340        1.830       35.110       31.494       20.593     1232.700      991.862      424.073        0.525        0.132       88.601       16.779        0.036      329.171       -4.265      865.181
01/01/2015  20:14:00      -72.226      -55.940        0.272       45.025       23.348       24.461     2027.285      545.146      598.341        0.576        0.159       91.356       19.686        0.046      329.160       -4.282      865.182
01/01/2015  20:15:00      -40.648      -41.099        3.862       28.243       26.617       17.191      797.669      708.453      295.533        0.258        0.090       57.805       15.470        0.072      329.159       -4.284      865.199
01/01/2015  20:16:00      -48.311      -38.418       10.682       42.714       22.933       23.208     1824.518      525.925      538.612        0.341        0.144       61.724       24.196        0.154      329.078       -4.414      865.217
01/01/2015  20:17:00      -46.463      -40.886        5.002       46.968       31.325       16.618     2205.993      981.285      276.157        0.366        0.173       61.891       19.693        0.101      329.048       -4.464      865.222
01/01/2015  20:18:00      -88.010      -75.251       -8.275       28.899       32.856       24.272      835.125     1079.492      589.151        0.799        0.125      115.795       18.303        0.025      329.064       -4.438      865.219
01/01/2015  20:19:00     -102.112      -68.702       -4.406       53.944       42.514       22.372     2909.964     1807.475      500.513        1.019        0.261      123.072       23.176        0.035      328.985       -4.567      865.218
01/01/2015  20:20:00     -107.231      -80.764       -8.802       43.355       36.305       28.630     1879.654     1318.041      819.705        1.106        0.201      134.244       24.731        0.034      328.947       -4.630      865.223
01/01/2015  20:21:00     -142.484      -60.970      -10.192       31.159       37.145       18.948      970.910     1379.748      359.017        1.342        0.135      154.981       12.352        0.006      328.950       -4.624      865.212
01/01/2015  20:22:00      -86.284      -68.927       -7.470       46.181       32.409       23.223     2132.696     1050.341      539.318        0.799        0.186      110.435       17.572        0.025      328.983       -4.570      865.199
01/01/2015  20:23:00      -78.867      -48.871        1.936       47.404       36.091       22.761     2247.127     1302.546      518.049        0.634        0.203       92.781       22.660        0.060      328.943       -4.637      865.194
01/01/2015  20:24:00      -84.316      -68.658       -0.264       43.733       30.053       24.167     1912.612      903.177      584.039        0.761        0.170      108.734       26.136        0.058      328.925       -4.665      865.193
01/01/2015  20:25:00      -50.763      -59.262        5.559       40.943       31.271       22.510     1676.322      977.852      506.692        0.464        0.158       78.031       23.313        0.089      328.964       -4.602      865.193
01/01/2015  20:26:00     -100.095      -62.692       -4.562       23.856       22.068       18.480      569.099      487.015      341.500        0.768        0.070      118.107        9.548        0.007      328.967       -4.598      865.211
01/01/2015  20:27:00      -97.142      -45.475       -2.854       26.078       35.738       19.566      680.081     1277.183      382.844        0.693        0.117      107.259       15.467        0.021      328.959       -4.610      865.221
01/01/2015  20:28:00      -73.719      -52.362       -6.030       43.637       37.171       17.338     1904.152     1381.707      300.618        0.590        0.179       90.423       13.267        0.022      329.010       -4.528      865.231
01/01/2015  20:29:00      -94.013      -59.672       -3.252       39.520       36.805       19.830     1561.814     1354.618      393.234        0.786        0.165      111.352       15.975        0.021      328.934       -4.650      865.236
01/01/2015  20:30:00     -100.059      -97.663      -11.239       27.426       25.886       20.401      752.213      670.087      416.195        1.076        0.092      139.821       16.008        0.013      328.967       -4.596      865.233
01/01/2015  20:31:00      -90.817      -86.014       -4.694       32.592       32.322       18.810     1062.229     1044.697      353.803        0.906        0.123      125.084       15.055        0.014      328.983       -4.570      865.226
01/01/2015  20:32:00      -87.146      -49.758        4.394       50.558       40.014       28.652     2556.153     1601.093      820.954        0.753        0.249      100.351       27.569        0.075      328.944       -4.633      865.230
01/01/2015  20:33:00      -91.482      -68.200       -0.189       51.327       34.062       24.709     2634.486     1160.203      610.550        0.871        0.220      114.106       23.924        0.044      328.938       -4.645      865.220
01/01/2015  20:34:00     -128.927      -52.219       -1.660       31.772       28.684       21.075     1009.462      822.753      444.168        1.081        0.114      139.101       17.919        0.017      328.956       -4.615      865.195
01/01/2015  20:35:00     -107.979      -40.252       -1.277       46.041       27.903       21.842     2119.790      778.591      477.065        0.833        0.169      115.238       22.730        0.039      328.933       -4.651      865.187
01/01/2015  20:36:00     -107.541      -53.876       -6.865       41.931       26.987       20.726     1758.241      728.296      429.554        0.871        0.146      120.281       21.981        0.033      328.982       -4.571      865.183
01/01/2015  20:37:00      -69.460      -42.333       -4.889       26.605       26.642       17.567      707.851      709.817      308.596        0.418        0.086       81.344        9.314        0.013      329.020       -4.510      865.164
01/01/2015  20:38:00      -52.243      -18.677        4.446       33.666       22.261       17.839     1133.397      495.573      318.236        0.252        0.097       55.481       19.999        0.130      328.981       -4.574      865.141
01/01/2015  20:39:00      -81.676      -47.300       -4.321       25.707       19.648       15.931      660.870      386.040      253.785        0.511        0.065       94.384        9.632        0.010      329.005       -4.534      865.125
01/01/2015  20:40:00      -88.312      -32.996       -4.067       30.581       22.371       14.645      935.228      500.463      214.467        0.528        0.083       94.275       14.717        0.024      329.023       -4.506      865.129
01/01/2015  20:41:00      -60.127      -21.647       -6.271       20.165       17.121       11.749      406.613      293.121      138.033        0.248        0.042       63.905        9.629        0.023      329.043       -4.472      865.137
01/01/2015  20:42:00      -59.995       -8.373       -8.415       16.207       12.314       12.467      262.672      151.632      155.438        0.215        0.028       60.577       12.215        0.041      329.056       -4.449      865.144
01/01/2015  20:43:00      -36.539       -4.086        0.120       18.407       13.764        9.924      338.805      189.434       98.492        0.099        0.031       36.767       10.325        0.079      329.070       -4.427      865.152
01/01/2015  20:44:00      -51.144       -4.281       -5.314       13.861       10.356        6.393      192.128      107.238       40.869        0.150        0.017       51.323        5.262        0.011      329.009       -4.530      865.165
01/01/2015  20:45:00      -30.575       -2.629       -4.931       10.425       12.352        6.173      108.691      152.560       38.103        0.063        0.015       30.688        5.437        0.031      328.957       -4.614      865.160
01/01/2015  20:46:00      -29.848        3.988       -3.868        9.474        9.293        4.883       89.753       86.351       23.845        0.056        0.010       30.113        2.866        0.009      328.942       -4.636      865.149
01/01/2015  20:47:00      -43.610       -1.914       -5.266        9.475        8.707        6.925       89.773       75.819       47.953        0.107        0.011       43.652        5.215        0.014      328.975       -4.585      865.140
01/01/2015  20:48:00      -41.246       -9.921       -4.395       12.937       11.645        9.222      167.375      135.601       85.044        0.110        0.019       42.423        7.315        0.030      328.903       -4.700      865.126
01/01/2015  20:49:00      -47.955       -0.488       -4.058       22.940       14.012       10.071      526.256      196.347      101.431        0.157        0.041       47.958       11.608        0.059      328.907       -4.695      865.103
01/01/2015  20:50:00      -74.380      -18.976      -13.690       21.249       13.812       11.605      451.523      190.765      134.674        0.343        0.039       76.762       12.022        0.025      328.824       -4.828      865.093
01/01/2015  20:51:00      -81.440      -30.811       -2.849       15.356       15.658       11.143      235.816      245.173      124.164        0.410        0.030       87.073        8.578        0.010      328.793       -4.880      865.069
01/01/2015  20:52:00      -99.127      -21.152       -7.712       31.762       22.923       14.278     1008.849      525.484      203.850        0.604        0.087      101.358       13.498        0.018      328.767       -4.922      865.057
01/01/2015  20:53:00      -64.394      -23.062        1.810       28.378       27.784       16.923      805.339      771.937      286.396        0.327        0.093       68.399       14.503        0.045      328.779       -4.903      865.056
01/01/2015  20:54:00      -79.443      -21.121       -4.238       20.968       22.841       12.392      439.646      521.705      153.550        0.394        0.056       82.203        9.948        0.015      328.725       -4.992      865.058
01/01/2015  20:55:00      -55.487       -1.156       -1.088       43.422       30.484       17.926     1885.469      929.293      321.355        0.311        0.157       55.500       17.852        0.103      328.710       -5.015      865.061
01/01/2015  20:56:00      -50.500       -3.898       -2.407       29.527       25.014       13.796      871.856      625.713      190.319        0.213        0.084       50.651       10.849        0.046      328.713       -5.010      865.060
01/01/2015  20:57:00      -67.565      -18.297       -4.141       24.933       24.698       14.987      621.647      609.995      224.612        0.319        0.073       69.998       12.335        0.031      328.702       -5.030      865.068
01/01/2015  20:58:00      -76.628      -20.984       -7.744       25.201       24.078       12.818      635.112      579.733      164.298        0.388        0.069       79.449        7.876        0.010      328.643       -5.124      865.070
01/01/2015  20:59:00      -71.412      -25.940      -10.848       19.096       22.500       12.102      364.649      506.266      146.459        0.345        0.051       75.977        9.353        0.015      328.671       -5.080      865.061
01/01/2015  21:00:00      -90.234      -19.576      -10.228       22.044       20.692       14.938      485.919      428.145      223.149        0.488        0.057       92.334       11.826        0.016      328.628       -5.150      865.048
01/01/2015  21:01:00      -93.155      -12.797       -4.461       30.037       31.834       23.371      902.238     1013.396      546.220        0.566        0.123       94.030       20.055        0.045      328.526       -5.315      865.034
01/01/2015  21:02:00     -119.515        1.530       -5.313       31.536       28.522       20.291      994.514      813.529      411.730        0.827        0.111      119.525       15.461        0.017      328.457       -5.427      865.005
01/01/2015  21:03:00     -105.338        6.906       -6.174       31.643       19.325       17.574     1001.275      373.452      308.845        0.643        0.084      105.564       13.877        0.017      328.443       -5.449      864.981
01/01/2015  21:04:00      -98.558       -1.601      -10.650       18.989       21.043       13.843      360.595      442.812      191.620        0.541        0.050       98.571       11.735        0.014      328.453       -5.436      864.965
01/01/2015  21:05:00      -82.846      -50.273      -14.636       22.329       18.991       12.721      498.589      360.665      161.817        0.531        0.051       96.906        7.436        0.006      328.525       -5.318      864.951
01/01/2015  21:06:00      -80.717      -32.768       -8.408       26.386       20.917       18.061      696.233      437.538      326.189        0.456        0.073       87.115       13.079        0.023      328.531       -5.308      864.939
01/01/2015  21:07:00     -109.301      -24.394       -8.980       17.044       18.061       15.892      290.504      326.188      252.557        0.675        0.043      111.990       14.348        0.016      328.475       -5.400      864.929
01/01/2015  21:08:00     -106.401      -26.077      -10.416       20.754       20.038       14.163      430.746      401.524      200.586        0.657        0.052      109.550        4.089        0.001      328.451       -5.437      864.918
01/01/2015  21:09:00     -117.512      -36.795       -9.341       19.266       24.541       13.534      371.186      602.279      183.181        0.820        0.058      123.138        7.801        0.004      328.415       -5.496      864.904
01/01/2015  21:10:00     -134.753        6.319      -15.875       22.122       22.730       16.375      489.389      516.653      268.127        0.986        0.064      134.901        9.581        0.005      328.370       -5.570      864.892
01/01/2015  21:11:00     -131.197       -0.927      -23.177       30.725       25.832       19.498      944.037      667.285      380.177        0.987        0.100      131.200       14.476        0.012      328.348       -5.607      864.894
01/01/2015  21:12:00     -124.124      -13.447      -14.549       35.275       31.264       23.026     1244.327      977.419      530.178        0.928        0.138      124.850       23.191        0.035      328.325       -5.643      864.893
01/01/2015  21:13:00     -139.235      -10.721      -13.851       29.346       23.930       18.510      861.193      572.624      342.626        1.073        0.089      139.647       14.169        0.010      328.317       -5.656      864.881
01/01/2015  21:14:00     -129.505       -9.546      -10.886       35.984       21.196       20.290     1294.870      449.270      411.681        0.957        0.108      129.856       19.847        0.023      328.300       -5.684      864.861
01/01/2015  21:15:00     -129.475      -22.919       -7.213       28.933       24.863       19.731      837.136      618.157      389.306        0.959        0.092      131.487       17.020        0.017      328.240       -5.781      864.832
01/01/2015  21:16:00     -109.857      -27.211      -12.597       33.377       22.368       13.239     1114.022      500.309      175.282        0.738        0.089      113.177        7.374        0.004      328.290       -5.700      864.804
01/01/2015  21:17:00     -102.092      -46.657       -4.386       30.207       24.187       18.320      912.476      585.020      335.611        0.723        0.092      112.248       16.805        0.022      328.309       -5.669      864.782
01/01/2015  21:18:00     -122.891      -22.960      -11.462       17.350       20.045       11.537      301.036      401.821      133.108        0.830        0.042      125.018        5.270        0.002      328.273       -5.727      864.764
01/01/2015  21:19:00     -102.197      -18.013       -4.773       29.856       28.026       19.364      891.387      785.429      374.979        0.642        0.103      103.772       12.328        0.014      328.266       -5.739      864.757
01/01/2015  21:20:00     -116.806      -33.680      -11.960       20.748       24.487       12.534      430.484      599.614      157.103        0.805        0.059      121.565        9.718        0.006      328.201       -5.845      864.760
01/01/2015  21:21:00     -121.842      -39.923      -12.279       18.315       25.880       15.379      335.435      669.780      236.510        0.892        0.062      128.216        7.068        0.003      328.223       -5.810      864.762
01/01/2015  21:22:00      -96.256      -39.469        0.692       33.338       29.292       16.617     1111.430      858.029      276.121        0.653        0.112      104.033       12.249        0.014      328.228       -5.801      864.758
01/01/2015  21:23:00      -84.372      -51.428       -4.693       29.712       36.996       16.683      882.829     1368.726      278.321        0.616        0.126       98.810       13.823        0.020      328.251       -5.765      864.760
01/01/2015  21:24:00     -122.539       -5.008      -14.085       23.903       21.473       16.985      571.344      461.086      288.481        0.828        0.066      122.641        4.560        0.001      328.166       -5.902      864.765
01/01/2015  21:25:00     -149.243      -13.588      -16.240       29.468       25.606       22.183      868.380      655.675      492.104        1.237        0.101      149.860       20.159        0.018      328.096       -6.015      864.783
01/01/2015  21:26:00     -145.326      -13.459       -7.280       45.253       25.230       24.917     2047.825      636.574      620.858        1.233        0.165      145.948       25.663        0.031      328.141       -5.944      864.804
01/01/2015  21:27:00     -151.351      -14.223      -14.322       52.106       40.291       23.620     2715.003     1623.369      557.904        1.410        0.245      152.018       22.167        0.021      328.097       -6.014      864.831
01/01/2015  21:28:00      -94.475      -28.143        0.213       51.151       39.734       21.926     2616.459     1578.753      480.745        0.720        0.234       98.578       25.273        0.066      328.082       -6.038      864.856
01/01/2015  21:29:00      -72.951      -14.281        0.103       55.269       49.560       27.779     3054.658     2456.161      771.655        0.590        0.314       74.336       30.650        0.170      328.127       -5.967      864.870
01/01/2015  21:30:00      -79.094       -2.166        5.494       54.977       42.100       24.416     3022.458     1772.432      596.154        0.584        0.270       79.123       22.291        0.079      328.071       -6.056      864.882
01/01/2015  21:31:00      -85.985      -25.129       -6.625       32.030       36.026       24.422     1025.933     1297.855      596.443        0.549        0.146       89.582       16.795        0.035      328.157       -5.917      864.885
01/01/2015  21:32:00      -71.937       12.352       -5.009       50.125       25.112       21.971     2512.550      630.615      482.704        0.449        0.181       72.989       23.729        0.106      328.132       -5.959      864.905
01/01/2015  21:33:00     -118.183       -0.118      -14.063       42.300       29.525       23.488     1789.255      871.717      551.669        0.869        0.161      118.183       20.643        0.031      328.242       -5.777      864.923
01/01/2015  21:34:00      -66.876       -9.726       -5.294       54.329       28.044       21.071     2951.692      786.493      443.981        0.439        0.209       67.579       18.174        0.072      328.216       -5.820      864.916
01/01/2015  21:35:00      -52.779      -20.305       -4.633       46.729       22.606       19.211     2183.573      511.051      369.071        0.314        0.153       56.550       10.920        0.037      328.219       -5.817      864.913
01/01/2015  21:36:00      -59.280      -36.267       -4.249       49.013       27.168       18.809     2402.233      738.121      353.795        0.417        0.175       69.494       14.868        0.046      328.167       -5.902      864.917
01/01/2015  21:37:00      -80.636      -57.259       -6.682       62.956       31.540       23.481     3963.443      994.754      551.371        0.767        0.275       98.898       25.202        0.065      328.174       -5.890      864.925
01/01/2015  21:38:00      -98.352      -44.460       -4.813       47.753       35.146       26.455     2280.392     1235.222      699.872        0.794        0.211      107.935       17.033        0.025      328.125       -5.970      864.921
01/01/2015  21:39:00     -131.722      -27.706       -6.822       41.241       40.665       24.391     1700.822     1653.633      594.935        1.106        0.197      134.604       23.585        0.031      328.056       -6.082      864.913
01/01/2015  21:40:00     -149.295      -40.396      -14.722       33.673       39.175       22.947     1133.873     1534.716      526.550        1.367        0.160      154.663       16.128        0.011      328.061       -6.073      864.919
01/01/2015  21:41:00      -99.219      -24.057       -2.706       47.759       30.130       23.241     2280.952      907.828      540.164        0.708        0.186      102.094       21.701        0.045      328.081       -6.041      864.917
01/01/2015  21:42:00      -96.130      -41.669       -7.468       52.994       35.603       28.138     2808.417     1267.575      791.737        0.795        0.243      104.773       33.103        0.100      328.064       -6.070      864.911
01/01/2015  21:43:00      -84.913      -28.026       -4.218       53.134       30.614       21.269     2823.185      937.210      452.368        0.611        0.211       89.419       21.047        0.055      328.100       -6.010      864.912
01/01/2015  21:44:00     -112.512      -53.708       -9.322       29.843       30.212       17.299      890.617      912.764      299.251        0.887        0.105      124.674       11.225        0.008      328.125       -5.968      864.921
01/01/2015  21:45:00      -76.332      -16.909       -1.979       44.803       41.143       27.418     2007.332     1692.733      751.755        0.528        0.223       78.183       25.604        0.107      328.147       -5.934      864.928
01/01/2015  21:46:00      -96.160      -21.614       -7.426       40.751       22.760       17.080     1660.628      518.039      291.735        0.612        0.124       98.559       15.433        0.025      328.139       -5.947      864.936
01/01/2015  21:47:00      -88.082      -32.957       -6.613       29.246       39.973       17.428      855.339     1597.824      303.732        0.582        0.138       94.046        6.921        0.005      328.143       -5.940      864.944
01/01/2015  21:48:00      -81.645      -30.599       -5.896       35.579       33.180       22.719     1265.883     1100.923      516.153        0.526        0.144       87.191       14.208        0.027      328.063       -6.069      864.956
01/01/2015  21:49:00     -112.077      -29.633       -8.871       40.634       21.564       24.632     1651.100      465.023      606.732        0.812        0.136      115.928       20.139        0.030      328.094       -6.020      864.959
01/01/2015  21:50:00     -122.305      -38.005      -14.905       24.455       28.979       18.450      598.029      839.770      340.398        0.920        0.089      128.074        9.709        0.006      328.118       -5.980      864.961
01/01/2015  21:51:00      -40.298      -24.662       -5.135       52.950       33.417       25.923     2803.749     1116.695      671.999        0.342        0.230       47.245       19.604        0.172      328.126       -5.966      864.970
01/01/2015  21:52:00     -122.793      -41.918       -2.699       35.729       33.786       21.021     1276.589     1141.470      441.881        0.985        0.143      129.751       20.735        0.026      328.030       -6.125      864.972
01/01/2015  21:53:00      -82.387      -77.420        1.942       36.395       35.206       21.656     1324.629     1239.471      468.997        0.791        0.152      113.055       16.507        0.021      328.124       -5.971      864.961
01/01/2015  21:54:00     -124.796      -41.923       -0.217       31.910       24.509       19.788     1018.225      600.668      391.580        0.967        0.101      131.649       19.828        0.023      328.135       -5.953      864.944
01/01/2015  21:55:00      -94.493      -39.492       -6.788       41.736       28.350       18.691     1741.864      803.703      349.339        0.671        0.145      102.414       10.060        0.010      328.244       -5.773      864.928
01/01/2015  21:56:00     -100.785      -70.524       -5.041       37.844       32.993       21.034     1432.196     1088.569      442.446        0.906        0.148      123.009       16.749        0.019      328.221       -5.814      864.925
01/01/2015  21:57:00     -106.506      -52.957       -6.597       34.359       30.791       21.646     1180.517      948.107      468.528        0.839        0.130      118.945       23.994        0.041      328.230       -5.797      864.927
01/01/2015  21:58:00      -76.611      -52.008       -1.834       40.483       31.759       20.809     1638.871     1008.647      433.025        0.583        0.154       92.596       20.454        0.049      328.230       -5.798      864.950
01/01/2015  21:59:00      -96.933      -46.840        0.702       31.134       32.576       18.939      969.298     1061.184      358.701        0.699        0.119      107.657       14.076        0.017      328.235       -5.788      864.960
01/01/2015  22:00:00      -97.654      -64.558       -0.713       38.401       37.355       22.686     1474.673     1395.406      514.651        0.854        0.169      117.064       22.653        0.037      328.211       -5.828      864.967
01/01/2015  22:01:00     -106.863      -62.639        1.779       42.925       33.159       21.807     1842.537     1099.518      475.544        0.938        0.171      123.868       18.339        0.022      328.187       -5.868      864.967
01/01/2015  22:02:00     -117.601      -71.984       -7.402       37.214       35.797       22.686     1384.881     1281.398      514.667        1.112        0.159      137.883       18.712        0.018      328.177       -5.884      864.969
01/01/2015  22:03:00      -95.805      -39.325       -0.056       38.533       31.006       18.813     1484.778      961.375      353.939        0.676        0.140      103.562       14.307        0.019      328.198       -5.849      864.963
01/01/2015  22:04:00     -118.527      -66.979       -5.121       37.058       26.656       19.472     1373.278      710.532      379.177        1.051        0.123      136.142       11.998        0.008      328.158       -5.916      864.979
01/01/2015  22:05:00     -135.931      -25.133       -3.948       27.453       35.478       20.481      753.679     1258.709      419.473        1.078        0.122      138.235       17.936        0.017      328.148       -5.932      864.983
01/01/2015  22:06:00      -83.094      -20.414        0.937       45.666       31.898       25.886     2085.407     1017.477      670.110        0.555        0.189       85.565       24.041        0.079      328.146       -5.934      864.976
01/01/2015  22:07:00     -131.474      -26.800       -4.978       36.765       25.070       19.626     1351.675      628.491      385.197        1.020        0.118      134.178       17.111        0.016      328.116       -5.986      864.976
01/01/2015  22:08:00     -152.027      -64.798       -2.280       39.103       33.503       24.864     1529.062     1122.471      618.243        1.529        0.163      165.260       23.261        0.020      328.099       -6.013      864.969
01/01/2015  22:09:00     -130.568      -70.772       -3.747       35.592       33.489       18.750     1266.819     1121.519      351.548        1.240        0.137      148.514       19.610        0.017      328.128       -5.965      864.959
01/01/2015  22:10:00     -142.902      -43.541       -4.112       32.096       36.838       20.529     1030.147     1357.019      421.434        1.257        0.140      149.388       17.010        0.013      328.137       -5.950      864.964
01/01/2015  22:11:00     -122.710      -34.591       -5.609       32.115       33.405       21.398     1031.357     1115.882      457.856        0.944        0.130      127.492       18.414        0.021      328.109       -5.997      864.955
01/01/2015  22:12:00     -120.381      -61.010       -1.829       33.893       29.181       17.188     1148.710      851.515      295.437        1.026        0.115      134.959       18.543        0.019      328.116       -5.983      864.943
01/01/2015  22:13:00     -102.936      -38.744       -1.152       46.358       28.610       18.030     2149.081      818.523      325.078        0.769        0.165      109.986       19.113        0.030      328.136       -5.952      864.929
01/01/2015  22:14:00     -101.966      -63.468       -3.874       43.234       32.229       21.797     1869.195     1038.725      475.111        0.891        0.169      120.106       21.394        0.032      328.123       -5.973      864.907
01/01/2015  22:15:00     -132.295      -39.076       -8.422       32.984       31.204       20.575     1087.976      973.711      423.348        1.079        0.124      137.946       20.241        0.022      328.119       -5.981      864.901
01/01/2015  22:16:00     -140.964      -49.233       -4.981       32.256       30.826       19.699     1040.446      950.247      388.053        1.235        0.119      149.315       15.166        0.010      328.144       -5.937      864.902
01/01/2015  22:17:00      -90.830      -37.843        3.877       31.872       28.246       20.702     1015.828      797.842      428.593        0.597        0.112       98.398       15.491        0.025      328.147       -5.932      864.923
01/01/2015  22:18:00     -128.224      -34.438        0.569       34.610       28.543       18.563     1197.864      814.687      344.572        0.999        0.118      132.768       17.281        0.017      328.065       -6.067      864.939
01/01/2015  22:19:00     -134.839      -28.124       -3.021       32.524       24.010       17.278     1057.818      576.490      298.537        1.046        0.097      137.741       17.059        0.015      328.091       -6.025      864.936
01/01/2015  22:20:00     -132.612      -34.218      -14.948       20.253       24.617       13.633      410.183      606.019      185.870        1.009        0.060      136.955       11.695        0.007      328.068       -6.063      864.937
01/01/2015  22:21:00     -113.066      -28.560       -9.095       14.739       20.824       10.314      217.246      433.633      106.374        0.722        0.038      116.617        6.054        0.003      328.045       -6.098      864.930
01/01/2015  22:22:00      -79.069      -43.561        0.876       32.047       25.710       20.169     1027.030      661.008      406.781        0.512        0.105       90.275       14.172        0.025      328.106       -6.001      864.935
01/01/2015  22:23:00     -107.483      -59.018      -12.531       22.167       26.771       13.266      491.376      716.712      175.982        0.829        0.069      122.620       10.232        0.007      328.080       -6.042      864.929
01/01/2015  22:24:00      -71.951      -40.342       -8.726       38.686       24.974       17.709     1496.617      623.711      313.610        0.466        0.122       82.489       13.496        0.027      328.024       -6.134      864.921
01/01/2015  22:25:00      -93.383      -36.121      -10.489       25.221       25.059       13.186      636.123      627.935      173.880        0.579        0.072      100.125        6.480        0.004      328.057       -6.081      864.917
01/01/2015  22:26:00      -99.289      -13.547       -9.448       27.793       16.183       16.129      772.432      261.886      260.160        0.571        0.065      100.209       13.704        0.019      328.029       -6.124      864.917
01/01/2015  22:27:00     -104.187      -21.361      -12.082       14.935       10.422       12.633      223.064      108.611      159.581        0.597        0.025      106.355        4.722        0.002      327.992       -6.185      864.937
01/01/2015  22:28:00      -90.070      -19.799      -15.851       20.273       23.526       14.927      411.007      553.457      222.813        0.497        0.059       92.221       11.145        0.015      328.034       -6.116      864.963
01/01/2015  22:29:00     -105.406       -3.082       -9.346       26.652       14.430       17.620      710.316      208.228      310.467        0.622        0.061      105.451       17.266        0.027      328.067       -6.063      864.985
01/01/2015  22:30:00     -115.602        6.765      -18.994       19.247       14.136       12.747      370.448      199.826      162.497        0.725        0.037      115.799        9.255        0.006      327.998       -6.176      864.997
01/01/2015  22:31:00     -115.440       10.270      -15.120       15.059       12.969       10.857      226.768      168.196      117.876        0.709        0.026      115.896        6.681        0.003      328.007       -6.160      865.005
01/01/2015  22:32:00      -75.668       16.281      -11.170       28.225       17.524       12.154      796.627      307.074      147.727        0.368        0.063       77.400       13.951        0.032      327.970       -6.222      865.026
01/01/2015  22:33:00      -52.827       32.207      -14.613       16.206       18.141       13.146      262.645      329.106      172.821        0.240        0.038       61.871        9.469        0.023      328.056       -6.083      865.069
01/01/2015  22:34:00      -61.343       23.554       -9.187       16.697       10.653       12.192      278.777      113.482      148.635        0.247        0.027       65.710       11.076        0.028      327.913       -6.313      865.112
01/01/2015  22:35:00      -34.982       34.974        1.820       26.887       23.356       12.952      722.884      545.506      167.754        0.194        0.072       49.466        3.892        0.006      328.030       -6.124      865.155
01/01/2015  22:36:00      -18.350      104.168      -15.180       21.184       27.509       16.246      448.777      756.746      263.922        0.644        0.073      105.772       13.514        0.016      328.083       -6.037      865.188
01/01/2015  22:37:00      -18.591      130.206      -16.727       13.580       20.750       10.869      184.411      430.564      118.138        0.916        0.037      131.527        9.984        0.006      328.173       -5.891      865.211
01/01/2015  22:38:00      -20.807      149.145      -18.985       17.473       16.578       10.637      305.321      274.814      113.151        1.187        0.035      150.589        4.854        0.001      328.243       -5.776      865.237
01/01/2015  22:39:00       -2.974      136.804      -20.872       14.532       18.896        9.714      211.174      357.072       94.359        0.991        0.033      136.836        7.329        0.003      328.206       -5.838      865.247
01/01/2015  22:40:00        4.167      157.652      -25.203       25.526       20.440       12.066      651.591      417.810      145.579        1.336        0.061      157.707       10.107        0.004      328.238       -5.783      865.264
01/01/2015  22:41:00       24.131      141.867      -23.368       23.076       19.623       15.533      532.503      385.069      241.266        1.121        0.058      143.904       10.364        0.005      328.254       -5.758      865.279
01/01/2015  22:42:00       33.097      119.235      -10.552       34.207       49.648       33.703     1170.131     2464.875     1135.884        1.010        0.239      123.743       28.460        0.053      328.211       -5.829      865.291
01/01/2015  22:43:00       25.577      117.624       -8.233       32.537       49.942       33.021     1058.642     2494.178     1090.416        0.960        0.232      120.373       31.781        0.070      328.226       -5.806      865.306
01/01/2015  22:44:00       19.584      124.926      -14.325       26.281       30.071       20.661      690.717      904.244      426.883        0.911        0.101      126.452       15.670        0.015      328.329       -5.638      865.319
01/01/2015  22:45:00       17.343      140.282      -20.880       19.851       24.276       21.745      394.065      589.300      472.855        1.094        0.073      141.350       13.924        0.010      328.350       -5.603      865.329
01/01/2015  22:46:00       26.574       45.052        9.635       29.845       34.671       25.885      890.700     1202.074      670.015        0.280        0.138       52.305       20.210        0.149      328.335       -5.628      865.333
01/01/2015  22:47:00       28.124       70.978       -4.668       26.913       30.791       25.533      724.305      948.115      651.957        0.409        0.116       76.346       18.817        0.061      328.417       -5.493      865.344
01/01/2015  22:48:00       15.746       77.162       -7.979       20.420       50.512       22.226      416.976     2551.444      493.995        0.486        0.173       78.752       26.144        0.110      328.380       -5.552      865.359
01/01/2015  22:49:00       31.924      109.897      -19.241       16.945       19.585       11.352      287.138      383.557      128.874        0.713        0.040      114.440        9.163        0.006      328.469       -5.409      865.363
01/01/2015  22:50:00       32.979       77.976       -9.586       19.611       26.541       17.551      384.591      704.412      308.027        0.433        0.070       84.663       16.545        0.038      328.521       -5.324      865.364
01/01/2015  22:51:00       17.723      120.491      -24.304       35.623       41.277       25.424     1269.019     1703.786      646.358        0.952        0.181      121.787       18.101        0.022      328.639       -5.131      865.363
01/01/2015  22:52:00      -10.178      111.894       -2.799       23.732       51.702       24.887      563.231     2673.087      619.344        0.824        0.193      112.356       21.564        0.037      328.594       -5.206      865.348
01/01/2015  22:53:00       29.035       98.796      -11.863       44.755       42.933       26.513     2003.020     1843.219      702.957        0.765        0.227      102.975       29.382        0.081      328.508       -5.346      865.321
01/01/2015  22:54:00       14.173      119.581      -13.940       28.980       41.507       22.435      839.856     1722.844      503.330        0.888        0.153      120.418       22.917        0.036      328.533       -5.306      865.300
01/01/2015  22:55:00       15.929       36.874        7.463       22.114       31.614       22.071      489.024      999.454      487.137        0.182        0.099       40.167       15.920        0.157      328.484       -5.384      865.287
01/01/2015  22:56:00       62.793       30.737        6.967       15.333       15.399       15.317      235.110      237.138      234.616        0.282        0.035       69.912        8.783        0.016      328.532       -5.307      865.291
01/01/2015  22:57:00       31.046       41.458       -0.333       20.389       23.419       16.828      415.729      548.452      283.171        0.196        0.062       51.794       12.873        0.062      328.465       -5.415      865.314
01/01/2015  22:58:00       17.617       69.919      -12.301       19.412       33.499       15.508      376.842     1122.206      240.488        0.354        0.087       72.105       18.609        0.067      328.478       -5.395      865.325
01/01/2015  22:59:00       29.871       50.587        0.182       25.893       44.327       27.753      670.444     1964.847      770.229        0.343        0.170       58.748       27.801        0.224      328.537       -5.297      865.324
01/01/2015  23:00:00       37.584       26.385       17.237       29.316       17.775       21.866      859.451      315.963      478.140        0.203        0.083       45.921        9.564        0.043      328.453       -5.435      865.304
01/01/2015  23:01:00       37.338       14.776        3.879       24.714       16.336       14.271      610.758      266.870      203.656        0.135        0.054       40.156       11.655        0.084      328.483       -5.387      865.286
01/01/2015  23:02:00       22.419       45.435       -9.145       16.701       16.546       13.390      278.916      273.758      179.290        0.169        0.037       50.665        9.985        0.039      328.533       -5.304      865.274
01/01/2015  23:03:00       -3.290       51.059      -19.956       17.863       15.727       11.734      319.104      247.325      137.687        0.186        0.035       51.165       10.056        0.039      328.596       -5.200      865.279
01/01/2015  23:04:00       17.912       21.838       -7.532       14.372       13.048       16.075      206.551      170.244      258.400        0.074        0.032       28.245       10.451        0.137      328.582       -5.224      865.285
01/01/2015  23:05:00       37.637       23.150       11.466       17.696       13.893       11.155      313.145      193.020      124.433        0.136        0.032       44.186        2.844        0.004      328.579       -5.229      865.283
01/01/2015  23:06:00       47.199       37.433       12.774       13.032       11.164       15.680      169.820      124.630      245.878        0.217        0.027       60.241        9.507        0.025      328.639       -5.132      865.282
01/01/2015  23:07:00       29.127       -0.423        3.458       25.015       16.561       10.212      625.748      274.257      104.279        0.093        0.050       29.131        6.296        0.047      328.625       -5.153      865.285
01/01/2015  23:08:00      -12.002      -11.597        0.732       14.828        7.991        6.710      219.859       63.856       45.027        0.030        0.016       16.689        7.555        0.205      328.713       -5.010      865.291
01/01/2015  23:09:00      -18.869      -32.187       -7.311       18.192       16.551       15.688      330.946      273.941      246.126        0.115        0.043       37.310        6.628        0.032      328.621       -5.161      865.302
01/01/2015  23:10:00      -13.350      -46.819        0.404       19.791       25.071       17.155      391.687      628.580      294.288        0.184        0.066       48.685       10.243        0.044      328.682       -5.061      865.323
01/01/2015  23:11:00      -21.967       -9.223        9.385       20.485       23.639       18.606      419.644      558.806      346.200        0.099        0.066       23.825       12.215        0.263      328.518       -5.328      865.335
01/01/2015  23:12:00      -26.994      -27.501       -0.258       26.868       24.138       26.382      721.872      582.653      696.002        0.174        0.100       38.535       13.926        0.131      328.595       -5.203      865.333
01/01/2015  23:13:00       -8.934      -27.155        1.848       19.934       20.302       13.957      397.370      412.155      194.803        0.091        0.050       28.587        6.390        0.050      328.510       -5.341      865.327
01/01/2015  23:14:00       -0.676      -14.212        6.402       27.638       17.550       13.252      763.832      307.986      175.614        0.075        0.062       14.228        8.199        0.332      328.445       -5.448      865.308
01/01/2015  23:15:00        5.869      -55.751      -12.885       24.248       40.456       21.189      587.980     1636.678      448.966        0.299        0.134       56.059       18.538        0.109      328.549       -5.278      865.284
01/01/2015  23:16:00       -3.835      -60.792      -19.257       33.061       34.090       24.512     1093.057     1162.117      600.837        0.347        0.143       60.913       18.686        0.094      328.495       -5.366      865.270
01/01/2015  23:17:00      -30.210      -69.056      -20.827       36.588       35.275       26.342     1338.694     1244.339      693.917        0.470        0.164       75.375       12.809        0.029      328.421       -5.487      865.261
01/01/2015  23:18:00      -44.088      -35.867       -0.826       43.070       28.889       28.276     1855.004      834.582      799.513        0.336        0.174       56.835       17.658        0.097      328.290       -5.700      865.263
01/01/2015  23:19:00      -42.781      -45.960        8.573       51.547       38.768       29.537     2657.076     1502.950      872.407        0.452        0.252       62.790       33.207        0.280      328.228       -5.802      865.264
01/01/2015  23:20:00     -116.674      -99.926       -5.703       56.734       48.091       30.954     3218.748     2312.714      958.168        1.506        0.324      153.617       31.247        0.041      327.934       -6.280      865.268
01/01/2015  23:21:00     -156.723     -126.484      -14.946       44.945       46.417       31.287     2020.076     2154.498      978.871        2.297        0.258      201.396       26.078        0.017      327.880       -6.370      865.281
01/01/2015  23:22:00     -123.854      -90.697      -12.903       39.528       46.993       36.648     1562.470     2208.303     1343.110        1.442        0.256      153.511       19.586        0.016      327.869       -6.387      865.307
01/01/2015  23:23:00      -76.811      -57.557        7.939       63.837       35.419       31.781     4075.170     1254.500     1010.008        0.781        0.317       95.982       30.141        0.099      327.823       -6.461      865.329
01/01/2015  23:24:00     -100.823      -67.549        0.245       37.053       44.481       24.407     1372.909     1978.519      595.693        0.934        0.197      121.360       16.252        0.018      327.800       -6.498      865.346
01/01/2015  23:25:00      -78.513      -81.778       -5.572       42.033       54.605       24.313     1766.769     2981.662      591.113        0.911        0.267      113.366       20.407        0.032      327.791       -6.513      865.344
01/01/2015  23:26:00      -95.078     -118.550       -5.174       48.927       36.617       23.555     2393.834     1340.840      554.846        1.370        0.214      151.966       26.112        0.030      327.728       -6.615      865.331
01/01/2015  23:27:00      -84.162     -109.111       -4.833       40.444       35.977       19.008     1635.713     1294.316      361.290        1.115        0.165      137.799       18.644        0.018      327.733       -6.609      865.321
01/01/2015  23:28:00     -108.436     -102.828      -12.690       48.496       36.940       25.968     2351.836     1364.549      674.319        1.344        0.220      149.439       30.786        0.042      327.722       -6.626      865.308
01/01/2015  23:29:00      -86.918      -65.656        2.759       34.906       32.638       19.239     1218.404     1065.213      370.145        0.726        0.133      108.928       16.608        0.023      327.744       -6.589      865.305
01/01/2015  23:30:00      -46.220      -28.672        5.797       40.880       28.048       20.655     1671.176      786.664      426.611        0.294        0.144       54.391       16.663        0.094      327.712       -6.642      865.300
01/01/2015  23:31:00      -71.680      -42.248        7.956       42.915       35.469       25.597     1841.668     1258.075      655.213        0.537        0.188       83.204       26.796        0.104      327.684       -6.687      865.300
01/01/2015  23:32:00     -107.058      -52.851       -1.183       47.568       33.266       22.251     2262.759     1106.610      495.123        0.906        0.193      119.393       20.539        0.030      327.697       -6.666      865.294
01/01/2015  23:33:00     -110.055      -24.437       -0.943       36.441       41.912       23.659     1327.967     1756.583      559.734        0.818        0.182      112.735       23.254        0.043      327.713       -6.639      865.292
01/01/2015  23:34:00     -131.842      -39.296       -2.897       32.079       32.116       21.270     1029.093     1031.452      452.397        1.072        0.126      137.573       15.486        0.013      327.709       -6.645      865.293
01/01/2015  23:35:00     -156.872       -7.939      -15.048       48.644       37.237       24.825     2366.192     1386.627      616.285        1.463        0.218      157.073       23.223        0.022      327.601       -6.823      865.308
01/01/2015  23:36:00     -177.966      -45.394      -24.709       27.682       21.780       19.021      766.279      474.349      361.806        1.797        0.080      183.664       14.649        0.006      327.457       -7.058      865.326
01/01/2015  23:37:00     -104.010      -12.611       -3.817       48.926       28.767       22.055     2393.755      827.551      486.401        0.735        0.185      104.772       24.664        0.055      327.537       -6.927      865.346
01/01/2015  23:38:00     -123.711      -31.005       -8.384       29.422       32.093       21.418      865.629     1029.968      458.738        0.934        0.118      127.538       19.498        0.023      327.513       -6.966      865.359
01/01/2015  23:39:00      -98.610        7.956       -5.594       53.852       31.345       21.502     2900.040      982.540      462.333        0.708        0.217       98.930       27.235        0.076      327.545       -6.913      865.362
01/01/2015  23:40:00      -89.824       24.743       -7.591       36.197       24.387       16.387     1310.196      594.703      268.531        0.546        0.109       93.169       18.690        0.040      327.490       -7.004      865.367
01/01/2015  23:41:00     -106.951        6.854      -11.644       44.150       23.018       20.854     1949.250      529.817      434.882        0.727        0.146      107.170       22.040        0.042      327.442       -7.080      865.360
01/01/2015  23:42:00     -131.358       -1.470      -13.575       31.476       26.943       18.368      990.717      725.905      337.375        0.975        0.103      131.366       14.616        0.012      327.492       -6.999      865.338
01/01/2015  23:43:00     -145.005       30.290      -14.734       22.546       22.448       18.632      508.324      503.907      347.152        1.176        0.068      148.135       14.657        0.010      327.651       -6.742      865.326
01/01/2015  23:44:00      -96.361        7.168      -12.046       35.134       34.202       12.995     1234.372     1169.750      168.872        0.603        0.129       96.627       10.694        0.012      327.727       -6.617      865.320
01/01/2015  23:45:00      -96.591       -8.371       -7.523       29.965       19.011       16.871      897.923      361.424      284.623        0.550        0.077       96.953       13.317        0.019      327.652       -6.739      865.316
01/01/2015  23:46:00      -54.632      -17.190        1.066       32.070       28.245       16.685     1028.466      797.802      278.383        0.269        0.105       57.272       14.731        0.066      327.667       -6.716      865.312
01/01/2015  23:47:00      -65.100      -18.856       -7.972       11.527       11.869        8.436      132.869      140.871       71.163        0.250        0.017       67.775        4.716        0.005      327.598       -6.827      865.310
01/01/2015  23:48:00      -85.640      -14.771      -15.274       14.297       10.068        9.728      204.401      101.368       94.643        0.409        0.020       86.904        7.203        0.007      327.590       -6.839      865.306
01/01/2015  23:49:00      -95.707        5.494       -8.892       15.916       11.928       10.413      253.324      142.280      108.426        0.489        0.025       95.864        7.411        0.006      327.850       -6.416      865.303
01/01/2015  23:50:00      -23.835       -6.880        1.750       19.979       12.405        9.438      399.173      153.884       89.073        0.063        0.032       24.808        7.074        0.081      327.847       -6.423      865.311
01/01/2015  23:51:00      -21.953       -5.142       -8.314       10.303       13.799        7.550      106.146      190.399       56.997        0.047        0.018       22.547        6.245        0.077      327.849       -6.419      865.319
01/01/2015  23:52:00      -34.287       -7.780       -3.356       10.889       11.997        7.985      118.569      143.932       63.767        0.079        0.016       35.159        5.419        0.024      327.774       -6.542      865.313
01/01/2015  23:53:00       -8.864       -0.762       -4.255       13.280        6.650        6.142      176.357       44.218       37.724        0.018        0.013        8.896        6.522        0.537      327.751       -6.579      865.306
01/01/2015  23:54:00       -6.714        3.660       -5.014        8.766        8.668        5.592       76.849       75.130       31.275        0.013        0.009        7.647        6.152        0.647      327.819       -6.467      865.307
01/01/2015  23:55:00       -3.129       -3.574       -1.024        5.210        6.670        6.306       27.147       44.493       39.764        0.007        0.006        4.751        4.901        1.064      327.903       -6.331      865.315
01/01/2015  23:56:00        6.160        1.226        5.752        7.348        6.046        6.350       53.997       36.548       40.318        0.010        0.007        6.281        5.051        0.647      327.936       -6.278      865.323
01/01/2015  23:57:00       10.849        9.176        2.063        7.205        6.693        6.015       51.906       44.794       36.182        0.017        0.007       14.209        3.147        0.049      328.000       -6.173      865.327
01/01/2015  23:58:00        4.426        8.824        4.831        5.464        5.658        6.880       29.858       32.015       47.328        0.011        0.005        9.872        1.497        0.023      327.986       -6.195      865.341
01/01/2015  23:59:00        6.921       15.559        6.537        7.161       10.378        7.886       51.283      107.698       62.187        0.028        0.011       17.029        5.388        0.100      327.995       -6.180      865.361
